Wetterdaten: Sonntag, 08.01.2023
Datum Zeit Temp. 2m Temp +5 cm Feuchte A. Luftdruck Regen Wind Richtung Richtung Sonnenschein UV Solar Taupunkt Windchill Windben
08.01.2023 00:00 6,7 C 6,1 C 91 % 1008,3 hPa 0,0 l/m 20,9 km/h (4 Bft) S-SW 202 0 min 0,0 UV-I 0 W/m 5,3 C -1,3 C 30,6 km/h (5 Bft)
08.01.2023 00:01 6,7 C 6,1 C 91 % 1008,4 hPa 0,0 l/m 25,7 km/h (4 Bft) S-SW 202 0 min 0,0 UV-I 0 W/m 5,3 C -2,8 C 27,4 km/h (4 Bft)
08.01.2023 00:02 6,7 C 6,1 C 91 % 1008,4 hPa 0,0 l/m 25,7 km/h (4 Bft) N 0 0 min 0,0 UV-I 0 W/m 5,3 C -2,8 C 0,0 km/h (0 Bft)
08.01.2023 00:03 6,7 C 6,1 C 91 % 1008,5 hPa 0,0 l/m 24,1 km/h (4 Bft) S 180 0 min 0,0 UV-I 0 W/m 5,3 C -2,4 C 38,6 km/h (5 Bft)
08.01.2023 00:04 6,7 C 6,1 C 91 % 1008,4 hPa 0,0 l/m 20,9 km/h (4 Bft) S-SW 202 0 min 0,0 UV-I 0 W/m 5,3 C -1,3 C 27,4 km/h (4 Bft)
08.01.2023 00:05 6,7 C 6,1 C 91 % 1008,5 hPa 0,0 l/m 19,3 km/h (3 Bft) S 180 0 min 0,0 UV-I 0 W/m 5,3 C -0,7 C 29,0 km/h (5 Bft)
08.01.2023 00:06 6,7 C 6,1 C 91 % 1008,4 hPa 0,0 l/m 20,9 km/h (4 Bft) S-SW 202 0 min 0,0 UV-I 0 W/m 5,3 C -1,3 C 37,0 km/h (5 Bft)
08.01.2023 00:07 6,7 C 6,1 C 91 % 1008,4 hPa 0,0 l/m 27,4 km/h (4 Bft) S-SW 202 0 min 0,0 UV-I 0 W/m 5,3 C -3,3 C 38,6 km/h (5 Bft)
08.01.2023 00:08 6,7 C 6,1 C 91 % 1008,4 hPa 0,0 l/m 25,7 km/h (4 Bft) S-SW 202 0 min 0,0 UV-I 0 W/m 5,3 C -2,8 C 35,4 km/h (5 Bft)
08.01.2023 00:09 6,7 C 6,1 C 91 % 1008,3 hPa 0,0 l/m 29,0 km/h (5 Bft) S 180 0 min 0,0 UV-I 0 W/m 5,3 C -3,7 C 37,0 km/h (5 Bft)
08.01.2023 00:10 6,8 C 6,1 C 91 % 1008,2 hPa 0,0 l/m 22,5 km/h (4 Bft) S 180 0 min 0,0 UV-I 0 W/m 5,4 C -1,7 C 32,2 km/h (5 Bft)
08.01.2023 00:11 6,8 C 6,1 C 91 % 1008,3 hPa 0,0 l/m 19,3 km/h (3 Bft) S-SW 202 0 min 0,0 UV-I 0 W/m 5,4 C -0,6 C 25,7 km/h (4 Bft)
08.01.2023 00:12 6,8 C 6,1 C 91 % 1008,3 hPa 0,0 l/m 24,1 km/h (4 Bft) S-SW 202 0 min 0,0 UV-I 0 W/m 5,4 C -2,2 C 32,2 km/h (5 Bft)
08.01.2023 00:13 6,8 C 6,1 C 91 % 1008,3 hPa 0,0 l/m 20,9 km/h (4 Bft) S 180 0 min 0,0 UV-I 0 W/m 5,4 C -1,2 C 29,0 km/h (5 Bft)
08.01.2023 00:14 6,8 C 6,1 C 91 % 1008,3 hPa 0,0 l/m 20,9 km/h (4 Bft) S 180 0 min 0,0 UV-I 0 W/m 5,4 C -1,2 C 30,6 km/h (5 Bft)
08.01.2023 00:15 6,8 C 6,1 C 91 % 1008,2 hPa 0,0 l/m 19,3 km/h (3 Bft) S-SW 202 0 min 0,0 UV-I 0 W/m 5,4 C -0,6 C 29,0 km/h (5 Bft)
08.01.2023 00:16 6,8 C 6,1 C 91 % 1008,2 hPa 0,0 l/m 19,3 km/h (3 Bft) S-SW 202 0 min 0,0 UV-I 0 W/m 5,4 C -0,6 C 27,4 km/h (4 Bft)
08.01.2023 00:17 6,8 C 6,1 C 91 % 1008,2 hPa 0,0 l/m 20,9 km/h (4 Bft) S-SW 202 0 min 0,0 UV-I 0 W/m 5,4 C -1,2 C 27,4 km/h (4 Bft)
08.01.2023 00:18 6,8 C 6,1 C 91 % 1008,1 hPa 0,0 l/m 22,5 km/h (4 Bft) S 180 0 min 0,0 UV-I 0 W/m 5,4 C -1,7 C 29,0 km/h (5 Bft)
08.01.2023 00:19 6,8 C 6,1 C 91 % 1008,1 hPa 0,0 l/m 25,7 km/h (4 Bft) S-SW 202 0 min 0,0 UV-I 0 W/m 5,4 C -2,7 C 35,4 km/h (5 Bft)
08.01.2023 00:20 6,8 C 6,1 C 91 % 1008,1 hPa 0,0 l/m 16,1 km/h (3 Bft) S-SW 202 0 min 0,0 UV-I 0 W/m 5,4 C 0,7 C 20,9 km/h (4 Bft)
08.01.2023 00:21 6,8 C 6,1 C 91 % 1008,1 hPa 0,0 l/m 17,7 km/h (3 Bft) S 180 0 min 0,0 UV-I 0 W/m 5,4 C 0,1 C 27,4 km/h (4 Bft)
08.01.2023 00:22 6,8 C 6,1 C 91 % 1008,0 hPa 0,0 l/m 24,1 km/h (4 Bft) S 180 0 min 0,0 UV-I 0 W/m 5,4 C -2,2 C 37,0 km/h (5 Bft)
08.01.2023 00:23 6,8 C 6,1 C 91 % 1007,9 hPa 0,0 l/m 19,3 km/h (3 Bft) S 180 0 min 0,0 UV-I 0 W/m 5,4 C -0,6 C 32,2 km/h (5 Bft)
08.01.2023 00:24 6,8 C 6,1 C 91 % 1008,0 hPa 0,0 l/m 29,0 km/h (5 Bft) S-SW 202 0 min 0,0 UV-I 0 W/m 5,4 C -3,6 C 40,2 km/h (6 Bft)
08.01.2023 00:25 6,8 C 6,1 C 91 % 1008,0 hPa 0,0 l/m 27,4 km/h (4 Bft) S-SW 202 0 min 0,0 UV-I 0 W/m 5,4 C -3,2 C 33,8 km/h (5 Bft)
08.01.2023 00:26 6,8 C 6,1 C 91 % 1007,9 hPa 0,0 l/m 19,3 km/h (3 Bft) S 180 0 min 0,0 UV-I 0 W/m 5,4 C -0,6 C 32,2 km/h (5 Bft)
08.01.2023 00:27 6,8 C 6,1 C 92 % 1007,9 hPa 0,0 l/m 12,9 km/h (3 Bft) S-SW 202 0 min 0,0 UV-I 0 W/m 5,6 C 2,3 C 17,7 km/h (3 Bft)
08.01.2023 00:28 6,8 C 6,1 C 91 % 1008,0 hPa 0,0 l/m 19,3 km/h (3 Bft) S-SW 202 0 min 0,0 UV-I 0 W/m 5,4 C -0,6 C 27,4 km/h (4 Bft)
08.01.2023 00:29 6,8 C 6,1 C 91 % 1008,0 hPa 0,0 l/m 25,7 km/h (4 Bft) S 180 0 min 0,0 UV-I 0 W/m 5,4 C -2,7 C 35,4 km/h (5 Bft)
08.01.2023 00:30 6,8 C 6,1 C 91 % 1008,1 hPa 0,0 l/m 25,7 km/h (4 Bft) S 180 0 min 0,0 UV-I 0 W/m 5,4 C -2,7 C 33,8 km/h (5 Bft)
08.01.2023 00:31 6,8 C 6,1 C 91 % 1008,0 hPa 0,0 l/m 16,1 km/h (3 Bft) S 180 0 min 0,0 UV-I 0 W/m 5,4 C 0,7 C 27,4 km/h (4 Bft)
08.01.2023 00:32 6,8 C 6,1 C 91 % 1008,0 hPa 0,0 l/m 14,5 km/h (3 Bft) S-SW 202 0 min 0,0 UV-I 0 W/m 5,4 C 1,5 C 19,3 km/h (3 Bft)
08.01.2023 00:33 6,8 C 6,1 C 91 % 1008,1 hPa 0,0 l/m 24,1 km/h (4 Bft) S-SW 202 0 min 0,0 UV-I 0 W/m 5,4 C -2,2 C 43,5 km/h (6 Bft)
08.01.2023 00:34 6,8 C 6,1 C 91 % 1008,1 hPa 0,0 l/m 25,7 km/h (4 Bft) S 180 0 min 0,0 UV-I 0 W/m 5,4 C -2,7 C 33,8 km/h (5 Bft)
08.01.2023 00:35 6,8 C 6,1 C 91 % 1008,0 hPa 0,0 l/m 20,9 km/h (4 Bft) S-SO 157 0 min 0,0 UV-I 0 W/m 5,4 C -1,2 C 33,8 km/h (5 Bft)
08.01.2023 00:36 6,8 C 6,1 C 91 % 1008,1 hPa 0,0 l/m 19,3 km/h (3 Bft) S 180 0 min 0,0 UV-I 0 W/m 5,4 C -0,6 C 35,4 km/h (5 Bft)
08.01.2023 00:37 6,8 C 6,1 C 91 % 1008,2 hPa 0,0 l/m 17,7 km/h (3 Bft) S 180 0 min 0,0 UV-I 0 W/m 5,4 C 0,1 C 30,6 km/h (5 Bft)
08.01.2023 00:38 6,8 C 6,1 C 91 % 1008,0 hPa 0,0 l/m 19,3 km/h (3 Bft) S 180 0 min 0,0 UV-I 0 W/m 5,4 C -0,6 C 24,1 km/h (4 Bft)
08.01.2023 00:39 6,8 C 6,1 C 91 % 1008,2 hPa 0,0 l/m 14,5 km/h (3 Bft) S 180 0 min 0,0 UV-I 0 W/m 5,4 C 1,5 C 19,3 km/h (3 Bft)
08.01.2023 00:40 6,8 C 6,1 C 91 % 1008,0 hPa 0,0 l/m 24,1 km/h (4 Bft) S 180 0 min 0,0 UV-I 0 W/m 5,4 C -2,2 C 37,0 km/h (5 Bft)
08.01.2023 00:41 6,8 C 6,1 C 91 % 1008,0 hPa 0,0 l/m 22,5 km/h (4 Bft) S 180 0 min 0,0 UV-I 0 W/m 5,4 C -1,7 C 37,0 km/h (5 Bft)
08.01.2023 00:42 6,8 C 6,1 C 91 % 1008,0 hPa 0,0 l/m 20,9 km/h (4 Bft) S 180 0 min 0,0 UV-I 0 W/m 5,4 C -1,2 C 33,8 km/h (5 Bft)
08.01.2023 00:43 6,8 C 6,1 C 91 % 1007,9 hPa 0,0 l/m 22,5 km/h (4 Bft) S-SW 202 0 min 0,0 UV-I 0 W/m 5,4 C -1,7 C 32,2 km/h (5 Bft)
08.01.2023 00:44 6,9 C 6,1 C 91 % 1007,9 hPa 0,0 l/m 19,3 km/h (3 Bft) S 180 0 min 0,0 UV-I 0 W/m 5,5 C -0,5 C 29,0 km/h (5 Bft)
08.01.2023 00:45 6,8 C 6,1 C 91 % 1007,9 hPa 0,0 l/m 20,9 km/h (4 Bft) S 180 0 min 0,0 UV-I 0 W/m 5,4 C -1,2 C 33,8 km/h (5 Bft)
08.01.2023 00:46 6,8 C 6,1 C 91 % 1007,9 hPa 0,0 l/m 17,7 km/h (3 Bft) S 180 0 min 0,0 UV-I 0 W/m 5,4 C 0,1 C 25,7 km/h (4 Bft)
08.01.2023 00:47 6,9 C 6,1 C 91 % 1007,9 hPa 0,0 l/m 14,5 km/h (3 Bft) S 180 0 min 0,0 UV-I 0 W/m 5,5 C 1,6 C 22,5 km/h (4 Bft)
08.01.2023 00:48 6,9 C 6,1 C 91 % 1007,9 hPa 0,0 l/m 16,1 km/h (3 Bft) S 180 0 min 0,0 UV-I 0 W/m 5,5 C 0,9 C 22,5 km/h (4 Bft)
08.01.2023 00:49 6,9 C 6,1 C 91 % 1007,9 hPa 0,0 l/m 19,3 km/h (3 Bft) S-SW 202 0 min 0,0 UV-I 0 W/m 5,5 C -0,5 C 29,0 km/h (5 Bft)
08.01.2023 00:50 6,9 C 6,1 C 91 % 1007,9 hPa 0,0 l/m 16,1 km/h (3 Bft) S 180 0 min 0,0 UV-I 0 W/m 5,5 C 0,9 C 24,1 km/h (4 Bft)
08.01.2023 00:51 6,9 C 6,1 C 91 % 1007,8 hPa 0,0 l/m 19,3 km/h (3 Bft) S 180 0 min 0,0 UV-I 0 W/m 5,5 C -0,5 C 30,6 km/h (5 Bft)
08.01.2023 00:52 6,9 C 6,1 C 91 % 1007,9 hPa 0,0 l/m 17,7 km/h (3 Bft) S 180 0 min 0,0 UV-I 0 W/m 5,5 C 0,2 C 29,0 km/h (5 Bft)
08.01.2023 00:53 6,8 C 6,1 C 91 % 1007,9 hPa 0,0 l/m 16,1 km/h (3 Bft) S 180 0 min 0,0 UV-I 0 W/m 5,4 C 0,7 C 25,7 km/h (4 Bft)
08.01.2023 00:54 6,9 C 6,1 C 91 % 1008,0 hPa 0,0 l/m 19,3 km/h (3 Bft) S 180 0 min 0,0 UV-I 0 W/m 5,5 C -0,5 C 25,7 km/h (4 Bft)
08.01.2023 00:55 6,9 C 6,1 C 91 % 1008,0 hPa 0,0 l/m 22,5 km/h (4 Bft) S 180 0 min 0,0 UV-I 0 W/m 5,5 C -1,6 C 32,2 km/h (5 Bft)
08.01.2023 00:56 6,9 C 6,1 C 91 % 1008,0 hPa 0,0 l/m 19,3 km/h (3 Bft) S-SW 202 0 min 0,0 UV-I 0 W/m 5,5 C -0,5 C 27,4 km/h (4 Bft)
08.01.2023 00:57 6,9 C 6,1 C 91 % 1007,9 hPa 0,0 l/m 19,3 km/h (3 Bft) S-SW 202 0 min 0,0 UV-I 0 W/m 5,5 C -0,5 C 27,4 km/h (4 Bft)
08.01.2023 00:58 6,9 C 6,1 C 91 % 1007,9 hPa 0,0 l/m 16,1 km/h (3 Bft) S 180 0 min 0,0 UV-I 0 W/m 5,5 C 0,9 C 29,0 km/h (5 Bft)
08.01.2023 00:59 6,9 C 6,1 C 91 % 1007,9 hPa 0,0 l/m 20,9 km/h (4 Bft) S 180 0 min 0,0 UV-I 0 W/m 5,5 C -1,0 C 33,8 km/h (5 Bft)
08.01.2023 01:00 6,9 C 6,1 C 91 % 1007,9 hPa 0,0 l/m 19,3 km/h (3 Bft) S-SW 202 0 min 0,0 UV-I 0 W/m 5,5 C -0,5 C 24,1 km/h (4 Bft)
08.01.2023 01:01 6,9 C 6,1 C 91 % 1007,8 hPa 0,0 l/m 16,1 km/h (3 Bft) S 180 0 min 0,0 UV-I 0 W/m 5,5 C 0,9 C 22,5 km/h (4 Bft)
08.01.2023 01:02 6,9 C 6,1 C 91 % 1007,8 hPa 0,0 l/m 19,3 km/h (3 Bft) S-SW 202 0 min 0,0 UV-I 0 W/m 5,5 C -0,5 C 30,6 km/h (5 Bft)
08.01.2023 01:03 6,9 C 6,1 C 91 % 1007,9 hPa 0,0 l/m 22,5 km/h (4 Bft) S-SW 202 0 min 0,0 UV-I 0 W/m 5,5 C -1,6 C 29,0 km/h (5 Bft)
08.01.2023 01:04 6,9 C 6,1 C 91 % 1007,9 hPa 0,0 l/m 20,9 km/h (4 Bft) S 180 0 min 0,0 UV-I 0 W/m 5,5 C -1,0 C 30,6 km/h (5 Bft)
08.01.2023 01:05 6,9 C 6,1 C 91 % 1007,9 hPa 0,0 l/m 17,7 km/h (3 Bft) S 180 0 min 0,0 UV-I 0 W/m 5,5 C 0,2 C 30,6 km/h (5 Bft)
08.01.2023 01:06 6,9 C 6,1 C 91 % 1007,9 hPa 0,0 l/m 20,9 km/h (4 Bft) S-SW 202 0 min 0,0 UV-I 0 W/m 5,5 C -1,0 C 30,6 km/h (5 Bft)
08.01.2023 01:07 6,9 C 6,1 C 91 % 1008,0 hPa 0,0 l/m 22,5 km/h (4 Bft) S-SW 202 0 min 0,0 UV-I 0 W/m 5,5 C -1,6 C 30,6 km/h (5 Bft)
08.01.2023 01:08 6,9 C 6,1 C 91 % 1007,9 hPa 0,0 l/m 20,9 km/h (4 Bft) S-SW 202 0 min 0,0 UV-I 0 W/m 5,5 C -1,0 C 27,4 km/h (4 Bft)
08.01.2023 01:09 6,9 C 6,1 C 91 % 1007,8 hPa 0,0 l/m 22,5 km/h (4 Bft) S 180 0 min 0,0 UV-I 0 W/m 5,5 C -1,6 C 30,6 km/h (5 Bft)
08.01.2023 01:10 6,9 C 6,1 C 91 % 1007,9 hPa 0,0 l/m 16,1 km/h (3 Bft) S-SW 202 0 min 0,0 UV-I 0 W/m 5,5 C 0,9 C 27,4 km/h (4 Bft)
08.01.2023 01:11 6,9 C 6,1 C 91 % 1007,9 hPa 0,0 l/m 20,9 km/h (4 Bft) S 180 0 min 0,0 UV-I 0 W/m 5,5 C -1,0 C 29,0 km/h (5 Bft)
08.01.2023 01:12 6,9 C 6,1 C 91 % 1007,8 hPa 0,0 l/m 17,7 km/h (3 Bft) S 180 0 min 0,0 UV-I 0 W/m 5,5 C 0,2 C 27,4 km/h (4 Bft)
08.01.2023 01:13 6,9 C 6,1 C 91 % 1007,8 hPa 0,0 l/m 16,1 km/h (3 Bft) S 180 0 min 0,0 UV-I 0 W/m 5,5 C 0,9 C 24,1 km/h (4 Bft)
08.01.2023 01:14 6,9 C 6,1 C 91 % 1007,8 hPa 0,0 l/m 20,9 km/h (4 Bft) S-SO 157 0 min 0,0 UV-I 0 W/m 5,5 C -1,0 C 30,6 km/h (5 Bft)
08.01.2023 01:15 6,9 C 6,1 C 91 % 1007,7 hPa 0,0 l/m 16,1 km/h (3 Bft) S-SW 202 0 min 0,0 UV-I 0 W/m 5,5 C 0,9 C 24,1 km/h (4 Bft)
08.01.2023 01:16 6,9 C 6,1 C 91 % 1007,7 hPa 0,0 l/m 20,9 km/h (4 Bft) S-SW 202 0 min 0,0 UV-I 0 W/m 5,5 C -1,0 C 37,0 km/h (5 Bft)
08.01.2023 01:17 6,9 C 6,1 C 91 % 1007,8 hPa 0,0 l/m 22,5 km/h (4 Bft) S 180 0 min 0,0 UV-I 0 W/m 5,5 C -1,6 C 40,2 km/h (6 Bft)
08.01.2023 01:18 6,9 C 6,1 C 91 % 1007,6 hPa 0,0 l/m 22,5 km/h (4 Bft) S-SW 202 0 min 0,0 UV-I 0 W/m 5,5 C -1,6 C 30,6 km/h (5 Bft)
08.01.2023 01:19 6,9 C 6,1 C 91 % 1007,6 hPa 0,0 l/m 16,1 km/h (3 Bft) S 180 0 min 0,0 UV-I 0 W/m 5,5 C 0,9 C 25,7 km/h (4 Bft)
08.01.2023 01:20 6,9 C 6,1 C 91 % 1007,6 hPa 0,0 l/m 17,7 km/h (3 Bft) S 180 0 min 0,0 UV-I 0 W/m 5,5 C 0,2 C 27,4 km/h (4 Bft)
08.01.2023 01:21 6,9 C 6,1 C 91 % 1007,8 hPa 0,0 l/m 19,3 km/h (3 Bft) S-SW 202 0 min 0,0 UV-I 0 W/m 5,5 C -0,5 C 25,7 km/h (4 Bft)
08.01.2023 01:22 6,9 C 6,1 C 91 % 1007,8 hPa 0,0 l/m 16,1 km/h (3 Bft) S 180 0 min 0,0 UV-I 0 W/m 5,5 C 0,9 C 24,1 km/h (4 Bft)
08.01.2023 01:23 6,9 C 6,1 C 91 % 1007,7 hPa 0,0 l/m 16,1 km/h (3 Bft) S-SW 202 0 min 0,0 UV-I 0 W/m 5,5 C 0,9 C 24,1 km/h (4 Bft)
08.01.2023 01:24 7,0 C 6,1 C 91 % 1007,7 hPa 0,0 l/m 19,3 km/h (3 Bft) S-SW 202 0 min 0,0 UV-I 0 W/m 5,6 C -0,3 C 24,1 km/h (4 Bft)
08.01.2023 01:25 7,0 C 6,1 C 91 % 1007,8 hPa 0,0 l/m 20,9 km/h (4 Bft) S-SW 202 0 min 0,0 UV-I 0 W/m 5,6 C -0,9 C 29,0 km/h (5 Bft)
08.01.2023 01:26 7,0 C 6,1 C 91 % 1007,6 hPa 0,0 l/m 20,9 km/h (4 Bft) S 180 0 min 0,0 UV-I 0 W/m 5,6 C -0,9 C 27,4 km/h (4 Bft)
08.01.2023 01:27 7,0 C 6,1 C 91 % 1007,6 hPa 0,0 l/m 17,7 km/h (3 Bft) S 180 0 min 0,0 UV-I 0 W/m 5,6 C 0,3 C 25,7 km/h (4 Bft)
08.01.2023 01:28 7,0 C 6,1 C 91 % 1007,6 hPa 0,0 l/m 19,3 km/h (3 Bft) S-SW 202 0 min 0,0 UV-I 0 W/m 5,6 C -0,3 C 29,0 km/h (5 Bft)
08.01.2023 01:29 7,0 C 6,1 C 91 % 1007,6 hPa 0,0 l/m 17,7 km/h (3 Bft) S-SW 202 0 min 0,0 UV-I 0 W/m 5,6 C 0,3 C 25,7 km/h (4 Bft)
08.01.2023 01:30 7,0 C 6,1 C 91 % 1007,6 hPa 0,0 l/m 16,1 km/h (3 Bft) S 180 0 min 0,0 UV-I 0 W/m 5,6 C 1,0 C 20,9 km/h (4 Bft)
08.01.2023 01:31 7,0 C 6,1 C 91 % 1007,7 hPa 0,0 l/m 16,1 km/h (3 Bft) S 180 0 min 0,0 UV-I 0 W/m 5,6 C 1,0 C 24,1 km/h (4 Bft)
08.01.2023 01:32 7,0 C 6,1 C 91 % 1007,6 hPa 0,0 l/m 12,9 km/h (3 Bft) S 180 0 min 0,0 UV-I 0 W/m 5,6 C 2,6 C 16,1 km/h (3 Bft)
08.01.2023 01:33 7,0 C 6,1 C 91 % 1007,6 hPa 0,0 l/m 17,7 km/h (3 Bft) S 180 0 min 0,0 UV-I 0 W/m 5,6 C 0,3 C 24,1 km/h (4 Bft)
08.01.2023 01:34 7,0 C 6,1 C 91 % 1007,7 hPa 0,0 l/m 16,1 km/h (3 Bft) S 180 0 min 0,0 UV-I 0 W/m 5,6 C 1,0 C 22,5 km/h (4 Bft)
08.01.2023 01:35 7,0 C 6,1 C 91 % 1007,6 hPa 0,0 l/m 22,5 km/h (4 Bft) S-SW 202 0 min 0,0 UV-I 0 W/m 5,6 C -1,5 C 30,6 km/h (5 Bft)
08.01.2023 01:36 7,0 C 6,1 C 91 % 1007,6 hPa 0,0 l/m 19,3 km/h (3 Bft) S-SW 202 0 min 0,0 UV-I 0 W/m 5,6 C -0,3 C 25,7 km/h (4 Bft)
08.01.2023 01:37 7,0 C 6,1 C 91 % 1007,6 hPa 0,0 l/m 16,1 km/h (3 Bft) S 180 0 min 0,0 UV-I 0 W/m 5,6 C 1,0 C 24,1 km/h (4 Bft)
08.01.2023 01:38 7,1 C 6,1 C 91 % 1007,6 hPa 0,0 l/m 16,1 km/h (3 Bft) S-SW 202 0 min 0,0 UV-I 0 W/m 5,7 C 1,1 C 20,9 km/h (4 Bft)
08.01.2023 01:39 7,1 C 6,1 C 91 % 1007,6 hPa 0,0 l/m 16,1 km/h (3 Bft) S-SW 202 0 min 0,0 UV-I 0 W/m 5,7 C 1,1 C 20,9 km/h (4 Bft)
08.01.2023 01:40 7,0 C 6,1 C 91 % 1007,5 hPa 0,0 l/m 14,5 km/h (3 Bft) S-SW 202 0 min 0,0 UV-I 0 W/m 5,6 C 1,7 C 19,3 km/h (3 Bft)
08.01.2023 01:41 7,1 C 6,1 C 91 % 1007,5 hPa 0,0 l/m 16,1 km/h (3 Bft) S 180 0 min 0,0 UV-I 0 W/m 5,7 C 1,1 C 22,5 km/h (4 Bft)
08.01.2023 01:42 7,1 C 6,1 C 91 % 1007,5 hPa 0,0 l/m 17,7 km/h (3 Bft) S 180 0 min 0,0 UV-I 0 W/m 5,7 C 0,4 C 33,8 km/h (5 Bft)
08.01.2023 01:43 7,1 C 6,1 C 91 % 1007,5 hPa 0,0 l/m 19,3 km/h (3 Bft) S 180 0 min 0,0 UV-I 0 W/m 5,7 C -0,2 C 25,7 km/h (4 Bft)
08.01.2023 01:44 7,1 C 6,1 C 91 % 1007,6 hPa 0,0 l/m 16,1 km/h (3 Bft) S 180 0 min 0,0 UV-I 0 W/m 5,7 C 1,1 C 22,5 km/h (4 Bft)
08.01.2023 01:45 7,0 C 6,1 C 91 % 1007,5 hPa 0,0 l/m 19,3 km/h (3 Bft) S 180 0 min 0,0 UV-I 0 W/m 5,6 C -0,3 C 37,0 km/h (5 Bft)
08.01.2023 01:46 7,0 C 6,1 C 91 % 1007,6 hPa 0,2 l/m 24,1 km/h (4 Bft) S 180 0 min 0,0 UV-I 0 W/m 5,6 C -2,0 C 35,4 km/h (5 Bft)
08.01.2023 01:47 7,0 C 6,1 C 91 % 1007,4 hPa 0,0 l/m 22,5 km/h (4 Bft) S 180 0 min 0,0 UV-I 0 W/m 5,6 C -1,5 C 29,0 km/h (5 Bft)
08.01.2023 01:48 7,1 C 6,1 C 91 % 1007,5 hPa 0,0 l/m 16,1 km/h (3 Bft) S 180 0 min 0,0 UV-I 0 W/m 5,7 C 1,1 C 25,7 km/h (4 Bft)
08.01.2023 01:49 7,1 C 6,1 C 91 % 1007,5 hPa 0,0 l/m 17,7 km/h (3 Bft) S 180 0 min 0,0 UV-I 0 W/m 5,7 C 0,4 C 22,5 km/h (4 Bft)
08.01.2023 01:50 7,1 C 6,1 C 91 % 1007,5 hPa 0,0 l/m 19,3 km/h (3 Bft) S 180 0 min 0,0 UV-I 0 W/m 5,7 C -0,2 C 30,6 km/h (5 Bft)
08.01.2023 01:51 7,1 C 6,1 C 91 % 1007,4 hPa 0,0 l/m 22,5 km/h (4 Bft) S-SW 202 0 min 0,0 UV-I 0 W/m 5,7 C -1,3 C 35,4 km/h (5 Bft)
08.01.2023 01:52 7,0 C 6,1 C 91 % 1007,4 hPa 0,0 l/m 24,1 km/h (4 Bft) S 180 0 min 0,0 UV-I 0 W/m 5,6 C -2,0 C 37,0 km/h (5 Bft)
08.01.2023 01:53 7,1 C 6,1 C 91 % 1007,3 hPa 0,0 l/m 20,9 km/h (4 Bft) S 180 0 min 0,0 UV-I 0 W/m 5,7 C -0,8 C 32,2 km/h (5 Bft)
08.01.2023 01:54 7,1 C 6,1 C 91 % 1007,4 hPa 0,0 l/m 17,7 km/h (3 Bft) S 180 0 min 0,0 UV-I 0 W/m 5,7 C 0,4 C 22,5 km/h (4 Bft)
08.01.2023 01:55 7,1 C 6,1 C 91 % 1007,4 hPa 0,0 l/m 20,9 km/h (4 Bft) S 180 0 min 0,0 UV-I 0 W/m 5,7 C -0,8 C 30,6 km/h (5 Bft)
08.01.2023 01:56 7,1 C 6,1 C 91 % 1007,5 hPa 0,0 l/m 19,3 km/h (3 Bft) S 180 0 min 0,0 UV-I 0 W/m 5,7 C -0,2 C 32,2 km/h (5 Bft)
08.01.2023 01:57 7,1 C 6,1 C 91 % 1007,5 hPa 0,2 l/m 22,5 km/h (4 Bft) S 180 0 min 0,0 UV-I 0 W/m 5,7 C -1,3 C 33,8 km/h (5 Bft)
08.01.2023 01:58 7,1 C 6,1 C 91 % 1007,4 hPa 0,0 l/m 20,9 km/h (4 Bft) S 180 0 min 0,0 UV-I 0 W/m 5,7 C -0,8 C 29,0 km/h (5 Bft)
08.01.2023 01:59 7,1 C 6,1 C 91 % 1007,3 hPa 0,0 l/m 17,7 km/h (3 Bft) S 180 0 min 0,0 UV-I 0 W/m 5,7 C 0,4 C 24,1 km/h (4 Bft)
08.01.2023 02:00 7,1 C 6,1 C 91 % 1007,3 hPa 0,0 l/m 14,5 km/h (3 Bft) S 180 0 min 0,0 UV-I 0 W/m 5,7 C 1,9 C 25,7 km/h (4 Bft)
08.01.2023 02:01 7,0 C 6,1 C 91 % 1007,4 hPa 0,0 l/m 17,7 km/h (3 Bft) S 180 0 min 0,0 UV-I 0 W/m 5,6 C 0,3 C 25,7 km/h (4 Bft)
08.01.2023 02:02 7,0 C 6,1 C 91 % 1007,3 hPa 0,0 l/m 17,7 km/h (3 Bft) S 180 0 min 0,0 UV-I 0 W/m 5,6 C 0,3 C 27,4 km/h (4 Bft)
08.01.2023 02:03 7,0 C 6,1 C 91 % 1007,5 hPa 0,0 l/m 24,1 km/h (4 Bft) S 180 0 min 0,0 UV-I 0 W/m 5,6 C -2,0 C 33,8 km/h (5 Bft)
08.01.2023 02:04 7,0 C 6,1 C 91 % 1007,4 hPa 0,0 l/m 22,5 km/h (4 Bft) S-SW 202 0 min 0,0 UV-I 0 W/m 5,6 C -1,5 C 30,6 km/h (5 Bft)
08.01.2023 02:05 7,1 C 6,1 C 91 % 1007,3 hPa 0,0 l/m 19,3 km/h (3 Bft) S-SW 202 0 min 0,0 UV-I 0 W/m 5,7 C -0,2 C 24,1 km/h (4 Bft)
08.01.2023 02:06 7,0 C 6,1 C 91 % 1007,3 hPa 0,0 l/m 14,5 km/h (3 Bft) S 180 0 min 0,0 UV-I 0 W/m 5,6 C 1,7 C 19,3 km/h (3 Bft)
08.01.2023 02:07 7,0 C 6,1 C 91 % 1007,5 hPa 0,2 l/m 17,7 km/h (3 Bft) S 180 0 min 0,0 UV-I 0 W/m 5,6 C 0,3 C 25,7 km/h (4 Bft)
08.01.2023 02:08 7,1 C 6,1 C 91 % 1007,4 hPa 0,0 l/m 12,9 km/h (3 Bft) S 180 0 min 0,0 UV-I 0 W/m 5,7 C 2,7 C 19,3 km/h (3 Bft)
08.01.2023 02:09 7,1 C 6,1 C 91 % 1007,5 hPa 0,0 l/m 16,1 km/h (3 Bft) S 180 0 min 0,0 UV-I 0 W/m 5,7 C 1,1 C 22,5 km/h (4 Bft)
08.01.2023 02:10 7,0 C 6,1 C 91 % 1007,5 hPa 0,0 l/m 20,9 km/h (4 Bft) S 180 0 min 0,0 UV-I 0 W/m 5,6 C -0,9 C 29,0 km/h (5 Bft)
08.01.2023 02:11 7,0 C 6,1 C 91 % 1007,5 hPa 0,0 l/m 16,1 km/h (3 Bft) S 180 0 min 0,0 UV-I 0 W/m 5,6 C 1,0 C 22,5 km/h (4 Bft)
08.01.2023 02:12 7,0 C 6,1 C 91 % 1007,5 hPa 0,0 l/m 17,7 km/h (3 Bft) S 180 0 min 0,0 UV-I 0 W/m 5,6 C 0,3 C 25,7 km/h (4 Bft)
08.01.2023 02:13 7,0 C 6,1 C 91 % 1007,5 hPa 0,0 l/m 16,1 km/h (3 Bft) S 180 0 min 0,0 UV-I 0 W/m 5,6 C 1,0 C 29,0 km/h (5 Bft)
08.01.2023 02:14 7,0 C 6,1 C 91 % 1007,4 hPa 0,0 l/m 17,7 km/h (3 Bft) S 180 0 min 0,0 UV-I 0 W/m 5,6 C 0,3 C 25,7 km/h (4 Bft)
08.01.2023 02:15 7,0 C 6,1 C 91 % 1007,5 hPa 0,0 l/m 20,9 km/h (4 Bft) S 180 0 min 0,0 UV-I 0 W/m 5,6 C -0,9 C 30,6 km/h (5 Bft)
08.01.2023 02:16 7,0 C 6,1 C 91 % 1007,5 hPa 0,0 l/m 22,5 km/h (4 Bft) S 180 0 min 0,0 UV-I 0 W/m 5,6 C -1,5 C 33,8 km/h (5 Bft)
08.01.2023 02:17 7,0 C 6,1 C 91 % 1007,4 hPa 0,0 l/m 17,7 km/h (3 Bft) S 180 0 min 0,0 UV-I 0 W/m 5,6 C 0,3 C 24,1 km/h (4 Bft)
08.01.2023 02:18 7,1 C 6,1 C 91 % 1007,5 hPa 0,0 l/m 19,3 km/h (3 Bft) S 180 0 min 0,0 UV-I 0 W/m 5,7 C -0,2 C 27,4 km/h (4 Bft)
08.01.2023 02:19 7,0 C 6,1 C 91 % 1007,6 hPa 0,2 l/m 22,5 km/h (4 Bft) S 180 0 min 0,0 UV-I 0 W/m 5,6 C -1,5 C 48,3 km/h (6 Bft)
08.01.2023 02:20 7,0 C 6,1 C 91 % 1007,5 hPa 0,0 l/m 24,1 km/h (4 Bft) S 180 0 min 0,0 UV-I 0 W/m 5,6 C -2,0 C 33,8 km/h (5 Bft)
08.01.2023 02:21 7,1 C 6,1 C 91 % 1007,5 hPa 0,0 l/m 19,3 km/h (3 Bft) S 180 0 min 0,0 UV-I 0 W/m 5,7 C -0,2 C 29,0 km/h (5 Bft)
08.01.2023 02:22 7,0 C 6,1 C 91 % 1007,3 hPa 0,0 l/m 17,7 km/h (3 Bft) S 180 0 min 0,0 UV-I 0 W/m 5,6 C 0,3 C 27,4 km/h (4 Bft)
08.01.2023 02:23 7,1 C 6,1 C 91 % 1007,5 hPa 0,0 l/m 19,3 km/h (3 Bft) S-SW 202 0 min 0,0 UV-I 0 W/m 5,7 C -0,2 C 25,7 km/h (4 Bft)
08.01.2023 02:24 7,1 C 6,1 C 91 % 1007,5 hPa 0,0 l/m 16,1 km/h (3 Bft) S 180 0 min 0,0 UV-I 0 W/m 5,7 C 1,1 C 30,6 km/h (5 Bft)
08.01.2023 02:25 7,1 C 6,1 C 91 % 1007,4 hPa 0,0 l/m 20,9 km/h (4 Bft) S 180 0 min 0,0 UV-I 0 W/m 5,7 C -0,8 C 33,8 km/h (5 Bft)
08.01.2023 02:26 7,1 C 6,1 C 91 % 1007,3 hPa 0,0 l/m 19,3 km/h (3 Bft) S 180 0 min 0,0 UV-I 0 W/m 5,7 C -0,2 C 29,0 km/h (5 Bft)
08.01.2023 02:27 7,1 C 6,1 C 91 % 1007,4 hPa 0,0 l/m 14,5 km/h (3 Bft) S 180 0 min 0,0 UV-I 0 W/m 5,7 C 1,9 C 19,3 km/h (3 Bft)
08.01.2023 02:28 7,1 C 6,1 C 91 % 1007,4 hPa 0,0 l/m 16,1 km/h (3 Bft) S 180 0 min 0,0 UV-I 0 W/m 5,7 C 1,1 C 29,0 km/h (5 Bft)
08.01.2023 02:29 7,0 C 6,1 C 91 % 1007,4 hPa 0,2 l/m 17,7 km/h (3 Bft) S 180 0 min 0,0 UV-I 0 W/m 5,6 C 0,3 C 27,4 km/h (4 Bft)
08.01.2023 02:30 7,1 C 6,1 C 91 % 1007,3 hPa 0,0 l/m 16,1 km/h (3 Bft) S 180 0 min 0,0 UV-I 0 W/m 5,7 C 1,1 C 22,5 km/h (4 Bft)
08.01.2023 02:31 7,1 C 6,1 C 91 % 1007,3 hPa 0,0 l/m 14,5 km/h (3 Bft) S-SW 202 0 min 0,0 UV-I 0 W/m 5,7 C 1,9 C 22,5 km/h (4 Bft)
08.01.2023 02:32 7,0 C 6,1 C 91 % 1007,4 hPa 0,0 l/m 16,1 km/h (3 Bft) S 180 0 min 0,0 UV-I 0 W/m 5,6 C 1,0 C 20,9 km/h (4 Bft)
08.01.2023 02:33 7,1 C 6,1 C 91 % 1007,4 hPa 0,0 l/m 17,7 km/h (3 Bft) S 180 0 min 0,0 UV-I 0 W/m 5,7 C 0,4 C 29,0 km/h (5 Bft)
08.01.2023 02:34 7,1 C 6,1 C 91 % 1007,3 hPa 0,0 l/m 17,7 km/h (3 Bft) S 180 0 min 0,0 UV-I 0 W/m 5,7 C 0,4 C 24,1 km/h (4 Bft)
08.01.2023 02:35 7,1 C 6,1 C 91 % 1007,4 hPa 0,0 l/m 20,9 km/h (4 Bft) S 180 0 min 0,0 UV-I 0 W/m 5,7 C -0,8 C 29,0 km/h (5 Bft)
08.01.2023 02:36 7,1 C 6,1 C 91 % 1007,3 hPa 0,0 l/m 17,7 km/h (3 Bft) S 180 0 min 0,0 UV-I 0 W/m 5,7 C 0,4 C 20,9 km/h (4 Bft)
08.01.2023 02:37 7,1 C 6,1 C 91 % 1007,3 hPa 0,0 l/m 19,3 km/h (3 Bft) S 180 0 min 0,0 UV-I 0 W/m 5,7 C -0,2 C 25,7 km/h (4 Bft)
08.01.2023 02:38 7,1 C 6,1 C 91 % 1007,4 hPa 0,0 l/m 19,3 km/h (3 Bft) S 180 0 min 0,0 UV-I 0 W/m 5,7 C -0,2 C 33,8 km/h (5 Bft)
08.01.2023 02:39 7,1 C 6,1 C 91 % 1007,3 hPa 0,0 l/m 24,1 km/h (4 Bft) S 180 0 min 0,0 UV-I 0 W/m 5,7 C -1,8 C 37,0 km/h (5 Bft)
08.01.2023 02:40 7,1 C 6,1 C 91 % 1007,4 hPa 0,0 l/m 17,7 km/h (3 Bft) S 180 0 min 0,0 UV-I 0 W/m 5,7 C 0,4 C 37,0 km/h (5 Bft)
08.01.2023 02:41 7,1 C 6,1 C 91 % 1007,5 hPa 0,0 l/m 12,9 km/h (3 Bft) S 180 0 min 0,0 UV-I 0 W/m 5,7 C 2,7 C 20,9 km/h (4 Bft)
08.01.2023 02:42 7,1 C 6,1 C 91 % 1007,3 hPa 0,0 l/m 12,9 km/h (3 Bft) S 180 0 min 0,0 UV-I 0 W/m 5,7 C 2,7 C 20,9 km/h (4 Bft)
08.01.2023 02:43 7,1 C 6,1 C 91 % 1007,4 hPa 0,0 l/m 12,9 km/h (3 Bft) S 180 0 min 0,0 UV-I 0 W/m 5,7 C 2,7 C 17,7 km/h (3 Bft)
08.01.2023 02:44 7,1 C 6,1 C 91 % 1007,3 hPa 0,0 l/m 14,5 km/h (3 Bft) S 180 0 min 0,0 UV-I 0 W/m 5,7 C 1,9 C 24,1 km/h (4 Bft)
08.01.2023 02:45 7,0 C 6,1 C 91 % 1007,3 hPa 0,0 l/m 14,5 km/h (3 Bft) S 180 0 min 0,0 UV-I 0 W/m 5,6 C 1,7 C 20,9 km/h (4 Bft)
08.01.2023 02:46 7,0 C 6,1 C 91 % 1007,3 hPa 0,0 l/m 19,3 km/h (3 Bft) S 180 0 min 0,0 UV-I 0 W/m 5,6 C -0,3 C 25,7 km/h (4 Bft)
08.01.2023 02:47 7,0 C 6,1 C 91 % 1007,3 hPa 0,0 l/m 16,1 km/h (3 Bft) S 180 0 min 0,0 UV-I 0 W/m 5,6 C 1,0 C 22,5 km/h (4 Bft)
08.01.2023 02:48 7,0 C 6,1 C 91 % 1007,3 hPa 0,2 l/m 20,9 km/h (4 Bft) S 180 0 min 0,0 UV-I 0 W/m 5,6 C -0,9 C 33,8 km/h (5 Bft)
08.01.2023 02:49 7,0 C 6,1 C 91 % 1007,4 hPa 0,0 l/m 20,9 km/h (4 Bft) S-SW 202 0 min 0,0 UV-I 0 W/m 5,6 C -0,9 C 35,4 km/h (5 Bft)
08.01.2023 02:50 7,0 C 6,1 C 91 % 1007,3 hPa 0,0 l/m 14,5 km/h (3 Bft) S 180 0 min 0,0 UV-I 0 W/m 5,6 C 1,7 C 20,9 km/h (4 Bft)
08.01.2023 02:51 7,0 C 6,1 C 91 % 1007,4 hPa 0,0 l/m 11,3 km/h (2 Bft) S 180 0 min 0,0 UV-I 0 W/m 5,6 C 3,5 C 17,7 km/h (3 Bft)
08.01.2023 02:52 7,0 C 6,1 C 91 % 1007,5 hPa 0,0 l/m 17,7 km/h (3 Bft) S 180 0 min 0,0 UV-I 0 W/m 5,6 C 0,3 C 29,0 km/h (5 Bft)
08.01.2023 02:53 7,0 C 6,1 C 91 % 1007,4 hPa 0,0 l/m 17,7 km/h (3 Bft) S 180 0 min 0,0 UV-I 0 W/m 5,6 C 0,3 C 27,4 km/h (4 Bft)
08.01.2023 02:54 7,1 C 6,1 C 91 % 1007,4 hPa 0,0 l/m 17,7 km/h (3 Bft) S 180 0 min 0,0 UV-I 0 W/m 5,7 C 0,4 C 24,1 km/h (4 Bft)
08.01.2023 02:55 7,0 C 6,1 C 91 % 1007,3 hPa 0,0 l/m 17,7 km/h (3 Bft) S 180 0 min 0,0 UV-I 0 W/m 5,6 C 0,3 C 27,4 km/h (4 Bft)
08.01.2023 02:56 7,0 C 6,1 C 91 % 1007,3 hPa 0,0 l/m 17,7 km/h (3 Bft) S 180 0 min 0,0 UV-I 0 W/m 5,6 C 0,3 C 22,5 km/h (4 Bft)
08.01.2023 02:57 7,0 C 6,1 C 91 % 1007,3 hPa 0,0 l/m 9,7 km/h (2 Bft) S 180 0 min 0,0 UV-I 0 W/m 5,6 C 4,5 C 14,5 km/h (3 Bft)
08.01.2023 02:58 7,0 C 6,1 C 91 % 1007,3 hPa 0,0 l/m 14,5 km/h (3 Bft) S 180 0 min 0,0 UV-I 0 W/m 5,6 C 1,7 C 20,9 km/h (4 Bft)
08.01.2023 02:59 7,0 C 6,1 C 91 % 1007,3 hPa 0,0 l/m 12,9 km/h (3 Bft) S 180 0 min 0,0 UV-I 0 W/m 5,6 C 2,6 C 17,7 km/h (3 Bft)
08.01.2023 03:00 6,9 C 6,1 C 91 % 1007,3 hPa 0,0 l/m 12,9 km/h (3 Bft) S 180 0 min 0,0 UV-I 0 W/m 5,5 C 2,4 C 14,5 km/h (3 Bft)
08.01.2023 03:01 6,9 C 6,1 C 91 % 1007,3 hPa 0,0 l/m 20,9 km/h (4 Bft) S 180 0 min 0,0 UV-I 0 W/m 5,5 C -1,0 C 27,4 km/h (4 Bft)
08.01.2023 03:02 6,9 C 6,1 C 91 % 1007,3 hPa 0,0 l/m 17,7 km/h (3 Bft) S 180 0 min 0,0 UV-I 0 W/m 5,5 C 0,2 C 29,0 km/h (5 Bft)
08.01.2023 03:03 6,9 C 6,1 C 91 % 1007,3 hPa 0,0 l/m 19,3 km/h (3 Bft) S 180 0 min 0,0 UV-I 0 W/m 5,5 C -0,5 C 27,4 km/h (4 Bft)
08.01.2023 03:04 6,9 C 6,1 C 91 % 1007,2 hPa 0,0 l/m 17,7 km/h (3 Bft) S 180 0 min 0,0 UV-I 0 W/m 5,5 C 0,2 C 32,2 km/h (5 Bft)
08.01.2023 03:05 6,9 C 6,1 C 91 % 1007,3 hPa 0,2 l/m 16,1 km/h (3 Bft) S 180 0 min 0,0 UV-I 0 W/m 5,5 C 0,9 C 25,7 km/h (4 Bft)
08.01.2023 03:06 6,9 C 6,1 C 91 % 1007,2 hPa 0,0 l/m 16,1 km/h (3 Bft) S 180 0 min 0,0 UV-I 0 W/m 5,5 C 0,9 C 25,7 km/h (4 Bft)
08.01.2023 03:07 6,9 C 6,1 C 91 % 1007,2 hPa 0,0 l/m 20,9 km/h (4 Bft) S 180 0 min 0,0 UV-I 0 W/m 5,5 C -1,0 C 33,8 km/h (5 Bft)
08.01.2023 03:08 6,9 C 6,1 C 91 % 1007,3 hPa 0,0 l/m 16,1 km/h (3 Bft) S 180 0 min 0,0 UV-I 0 W/m 5,5 C 0,9 C 22,5 km/h (4 Bft)
08.01.2023 03:09 6,9 C 6,1 C 91 % 1007,3 hPa 0,0 l/m 14,5 km/h (3 Bft) S 180 0 min 0,0 UV-I 0 W/m 5,5 C 1,6 C 22,5 km/h (4 Bft)
08.01.2023 03:10 6,9 C 6,1 C 91 % 1007,2 hPa 0,0 l/m 11,3 km/h (2 Bft) S 180 0 min 0,0 UV-I 0 W/m 5,5 C 3,4 C 16,1 km/h (3 Bft)
08.01.2023 03:11 6,9 C 6,1 C 91 % 1007,2 hPa 0,0 l/m 14,5 km/h (3 Bft) S 180 0 min 0,0 UV-I 0 W/m 5,5 C 1,6 C 19,3 km/h (3 Bft)
08.01.2023 03:12 6,9 C 6,1 C 91 % 1007,2 hPa 0,0 l/m 14,5 km/h (3 Bft) S-SO 157 0 min 0,0 UV-I 0 W/m 5,5 C 1,6 C 22,5 km/h (4 Bft)
08.01.2023 03:13 6,8 C 6,1 C 91 % 1007,2 hPa 0,0 l/m 12,9 km/h (3 Bft) S 180 0 min 0,0 UV-I 0 W/m 5,4 C 2,3 C 19,3 km/h (3 Bft)
08.01.2023 03:14 6,8 C 6,1 C 91 % 1007,3 hPa 0,0 l/m 12,9 km/h (3 Bft) S 180 0 min 0,0 UV-I 0 W/m 5,4 C 2,3 C 20,9 km/h (4 Bft)
08.01.2023 03:15 6,8 C 6,1 C 91 % 1007,2 hPa 0,0 l/m 9,7 km/h (2 Bft) S 180 0 min 0,0 UV-I 0 W/m 5,4 C 4,3 C 16,1 km/h (3 Bft)
08.01.2023 03:16 6,8 C 6,1 C 91 % 1007,2 hPa 0,0 l/m 14,5 km/h (3 Bft) S 180 0 min 0,0 UV-I 0 W/m 5,4 C 1,5 C 20,9 km/h (4 Bft)
08.01.2023 03:17 6,8 C 6,1 C 91 % 1007,2 hPa 0,0 l/m 12,9 km/h (3 Bft) S 180 0 min 0,0 UV-I 0 W/m 5,4 C 2,3 C 17,7 km/h (3 Bft)
08.01.2023 03:18 6,8 C 6,1 C 91 % 1007,2 hPa 0,0 l/m 17,7 km/h (3 Bft) S 180 0 min 0,0 UV-I 0 W/m 5,4 C 0,1 C 25,7 km/h (4 Bft)
08.01.2023 03:19 6,8 C 6,1 C 91 % 1007,2 hPa 0,0 l/m 16,1 km/h (3 Bft) S 180 0 min 0,0 UV-I 0 W/m 5,4 C 0,7 C 22,5 km/h (4 Bft)
08.01.2023 03:20 6,8 C 6,1 C 91 % 1007,2 hPa 0,0 l/m 14,5 km/h (3 Bft) S-SW 202 0 min 0,0 UV-I 0 W/m 5,4 C 1,5 C 19,3 km/h (3 Bft)
08.01.2023 03:21 6,8 C 6,1 C 91 % 1007,1 hPa 0,0 l/m 12,9 km/h (3 Bft) S-SW 202 0 min 0,0 UV-I 0 W/m 5,4 C 2,3 C 19,3 km/h (3 Bft)
08.01.2023 03:22 6,8 C 6,1 C 91 % 1007,1 hPa 0,0 l/m 14,5 km/h (3 Bft) S 180 0 min 0,0 UV-I 0 W/m 5,4 C 1,5 C 22,5 km/h (4 Bft)
08.01.2023 03:23 6,8 C 6,1 C 91 % 1007,0 hPa 0,0 l/m 14,5 km/h (3 Bft) S 180 0 min 0,0 UV-I 0 W/m 5,4 C 1,5 C 19,3 km/h (3 Bft)
08.01.2023 03:24 6,8 C 6,1 C 91 % 1007,1 hPa 0,0 l/m 17,7 km/h (3 Bft) S 180 0 min 0,0 UV-I 0 W/m 5,4 C 0,1 C 25,7 km/h (4 Bft)
08.01.2023 03:25 6,8 C 6,1 C 91 % 1007,1 hPa 0,0 l/m 17,7 km/h (3 Bft) S-SW 202 0 min 0,0 UV-I 0 W/m 5,4 C 0,1 C 24,1 km/h (4 Bft)
08.01.2023 03:26 6,8 C 6,1 C 91 % 1007,1 hPa 0,0 l/m 14,5 km/h (3 Bft) S 180 0 min 0,0 UV-I 0 W/m 5,4 C 1,5 C 17,7 km/h (3 Bft)
08.01.2023 03:27 6,8 C 6,1 C 91 % 1007,1 hPa 0,0 l/m 14,5 km/h (3 Bft) S-SW 202 0 min 0,0 UV-I 0 W/m 5,4 C 1,5 C 20,9 km/h (4 Bft)
08.01.2023 03:28 6,8 C 6,1 C 91 % 1007,0 hPa 0,0 l/m 17,7 km/h (3 Bft) S-SW 202 0 min 0,0 UV-I 0 W/m 5,4 C 0,1 C 29,0 km/h (5 Bft)
08.01.2023 03:29 6,8 C 6,1 C 91 % 1007,0 hPa 0,0 l/m 20,9 km/h (4 Bft) S 180 0 min 0,0 UV-I 0 W/m 5,4 C -1,2 C 29,0 km/h (5 Bft)
08.01.2023 03:30 6,8 C 5,6 C 91 % 1007,1 hPa 0,0 l/m 16,1 km/h (3 Bft) S 180 0 min 0,0 UV-I 0 W/m 5,4 C 0,7 C 27,4 km/h (4 Bft)
08.01.2023 03:31 6,8 C 5,6 C 90 % 1007,0 hPa 0,0 l/m 12,9 km/h (3 Bft) S 180 0 min 0,0 UV-I 0 W/m 5,3 C 2,3 C 17,7 km/h (3 Bft)
08.01.2023 03:32 6,8 C 5,6 C 90 % 1007,0 hPa 0,0 l/m 14,5 km/h (3 Bft) S 180 0 min 0,0 UV-I 0 W/m 5,3 C 1,5 C 27,4 km/h (4 Bft)
08.01.2023 03:33 6,8 C 5,6 C 90 % 1006,9 hPa 0,0 l/m 14,5 km/h (3 Bft) S 180 0 min 0,0 UV-I 0 W/m 5,3 C 1,5 C 22,5 km/h (4 Bft)
08.01.2023 03:34 6,8 C 5,6 C 90 % 1007,0 hPa 0,0 l/m 14,5 km/h (3 Bft) S-SW 202 0 min 0,0 UV-I 0 W/m 5,3 C 1,5 C 17,7 km/h (3 Bft)
08.01.2023 03:35 6,8 C 5,6 C 90 % 1006,9 hPa 0,0 l/m 17,7 km/h (3 Bft) S 180 0 min 0,0 UV-I 0 W/m 5,3 C 0,1 C 24,1 km/h (4 Bft)
08.01.2023 03:36 6,8 C 5,6 C 90 % 1006,9 hPa 0,2 l/m 14,5 km/h (3 Bft) S 180 0 min 0,0 UV-I 0 W/m 5,3 C 1,5 C 24,1 km/h (4 Bft)
08.01.2023 03:37 6,8 C 5,6 C 90 % 1007,0 hPa 0,0 l/m 14,5 km/h (3 Bft) S 180 0 min 0,0 UV-I 0 W/m 5,3 C 1,5 C 19,3 km/h (3 Bft)
08.01.2023 03:38 6,8 C 5,6 C 90 % 1007,0 hPa 0,0 l/m 16,1 km/h (3 Bft) S 180 0 min 0,0 UV-I 0 W/m 5,3 C 0,7 C 20,9 km/h (4 Bft)
08.01.2023 03:39 6,8 C 5,6 C 90 % 1006,9 hPa 0,0 l/m 16,1 km/h (3 Bft) S 180 0 min 0,0 UV-I 0 W/m 5,3 C 0,7 C 22,5 km/h (4 Bft)
08.01.2023 03:40 6,8 C 5,6 C 90 % 1007,0 hPa 0,0 l/m 19,3 km/h (3 Bft) S 180 0 min 0,0 UV-I 0 W/m 5,3 C -0,6 C 24,1 km/h (4 Bft)
08.01.2023 03:41 6,8 C 5,6 C 90 % 1006,9 hPa 0,0 l/m 19,3 km/h (3 Bft) S-SW 202 0 min 0,0 UV-I 0 W/m 5,3 C -0,6 C 29,0 km/h (5 Bft)
08.01.2023 03:42 6,8 C 5,6 C 90 % 1007,0 hPa 0,0 l/m 19,3 km/h (3 Bft) S 180 0 min 0,0 UV-I 0 W/m 5,3 C -0,6 C 32,2 km/h (5 Bft)
08.01.2023 03:43 6,8 C 5,6 C 90 % 1007,0 hPa 0,0 l/m 14,5 km/h (3 Bft) S 180 0 min 0,0 UV-I 0 W/m 5,3 C 1,5 C 24,1 km/h (4 Bft)
08.01.2023 03:44 6,8 C 5,6 C 90 % 1006,9 hPa 0,0 l/m 14,5 km/h (3 Bft) S-SO 157 0 min 0,0 UV-I 0 W/m 5,3 C 1,5 C 19,3 km/h (3 Bft)
08.01.2023 03:45 6,8 C 5,6 C 90 % 1006,9 hPa 0,0 l/m 11,3 km/h (2 Bft) S 180 0 min 0,0 UV-I 0 W/m 5,3 C 3,2 C 16,1 km/h (3 Bft)
08.01.2023 03:46 6,8 C 5,6 C 90 % 1006,9 hPa 0,0 l/m 11,3 km/h (2 Bft) S 180 0 min 0,0 UV-I 0 W/m 5,3 C 3,2 C 17,7 km/h (3 Bft)
08.01.2023 03:47 6,8 C 5,6 C 90 % 1006,9 hPa 0,0 l/m 12,9 km/h (3 Bft) S 180 0 min 0,0 UV-I 0 W/m 5,3 C 2,3 C 19,3 km/h (3 Bft)
08.01.2023 03:48 6,7 C 5,6 C 90 % 1006,9 hPa 0,0 l/m 16,1 km/h (3 Bft) S 180 0 min 0,0 UV-I 0 W/m 5,2 C 0,6 C 20,9 km/h (4 Bft)
08.01.2023 03:49 6,7 C 5,6 C 90 % 1006,9 hPa 0,0 l/m 14,5 km/h (3 Bft) S-SW 202 0 min 0,0 UV-I 0 W/m 5,2 C 1,4 C 24,1 km/h (4 Bft)
08.01.2023 03:50 6,7 C 5,6 C 90 % 1006,9 hPa 0,0 l/m 16,1 km/h (3 Bft) S 180 0 min 0,0 UV-I 0 W/m 5,2 C 0,6 C 20,9 km/h (4 Bft)
08.01.2023 03:51 6,7 C 5,6 C 90 % 1006,9 hPa 0,0 l/m 14,5 km/h (3 Bft) S 180 0 min 0,0 UV-I 0 W/m 5,2 C 1,4 C 24,1 km/h (4 Bft)
08.01.2023 03:52 6,7 C 5,6 C 90 % 1006,8 hPa 0,0 l/m 17,7 km/h (3 Bft) S 180 0 min 0,0 UV-I 0 W/m 5,2 C -0,1 C 29,0 km/h (5 Bft)
08.01.2023 03:53 6,7 C 5,6 C 90 % 1006,8 hPa 0,0 l/m 19,3 km/h (3 Bft) S 180 0 min 0,0 UV-I 0 W/m 5,2 C -0,7 C 25,7 km/h (4 Bft)
08.01.2023 03:54 6,7 C 5,6 C 90 % 1006,8 hPa 0,0 l/m 19,3 km/h (3 Bft) S 180 0 min 0,0 UV-I 0 W/m 5,2 C -0,7 C 35,4 km/h (5 Bft)
08.01.2023 03:55 6,7 C 5,6 C 90 % 1006,8 hPa 0,0 l/m 19,3 km/h (3 Bft) S 180 0 min 0,0 UV-I 0 W/m 5,2 C -0,7 C 33,8 km/h (5 Bft)
08.01.2023 03:56 6,7 C 5,6 C 90 % 1006,8 hPa 0,0 l/m 16,1 km/h (3 Bft) S 180 0 min 0,0 UV-I 0 W/m 5,2 C 0,6 C 30,6 km/h (5 Bft)
08.01.2023 03:57 6,7 C 5,6 C 90 % 1006,8 hPa 0,0 l/m 14,5 km/h (3 Bft) S 180 0 min 0,0 UV-I 0 W/m 5,2 C 1,4 C 22,5 km/h (4 Bft)
08.01.2023 03:58 6,7 C 5,6 C 90 % 1006,7 hPa 0,0 l/m 20,9 km/h (4 Bft) S 180 0 min 0,0 UV-I 0 W/m 5,2 C -1,3 C 30,6 km/h (5 Bft)
08.01.2023 03:59 6,7 C 5,6 C 90 % 1006,7 hPa 0,0 l/m 20,9 km/h (4 Bft) S 180 0 min 0,0 UV-I 0 W/m 5,2 C -1,3 C 29,0 km/h (5 Bft)
08.01.2023 04:00 6,7 C 5,6 C 90 % 1006,7 hPa 0,0 l/m 16,1 km/h (3 Bft) S 180 0 min 0,0 UV-I 0 W/m 5,2 C 0,6 C 32,2 km/h (5 Bft)
08.01.2023 04:01 6,7 C 5,6 C 90 % 1006,7 hPa 0,0 l/m 19,3 km/h (3 Bft) S-SW 202 0 min 0,0 UV-I 0 W/m 5,2 C -0,7 C 27,4 km/h (4 Bft)
08.01.2023 04:02 6,7 C 5,6 C 90 % 1006,7 hPa 0,0 l/m 19,3 km/h (3 Bft) S 180 0 min 0,0 UV-I 0 W/m 5,2 C -0,7 C 27,4 km/h (4 Bft)
08.01.2023 04:03 6,7 C 5,6 C 90 % 1006,7 hPa 0,0 l/m 20,9 km/h (4 Bft) S 180 0 min 0,0 UV-I 0 W/m 5,2 C -1,3 C 29,0 km/h (5 Bft)
08.01.2023 04:04 6,7 C 5,6 C 90 % 1006,6 hPa 0,0 l/m 19,3 km/h (3 Bft) S 180 0 min 0,0 UV-I 0 W/m 5,2 C -0,7 C 25,7 km/h (4 Bft)
08.01.2023 04:05 6,7 C 5,6 C 90 % 1006,6 hPa 0,0 l/m 19,3 km/h (3 Bft) S-SW 202 0 min 0,0 UV-I 0 W/m 5,2 C -0,7 C 33,8 km/h (5 Bft)
08.01.2023 04:06 6,7 C 5,6 C 90 % 1006,6 hPa 0,0 l/m 17,7 km/h (3 Bft) S-SW 202 0 min 0,0 UV-I 0 W/m 5,2 C -0,1 C 22,5 km/h (4 Bft)
08.01.2023 04:07 6,7 C 5,6 C 90 % 1006,5 hPa 0,0 l/m 16,1 km/h (3 Bft) S 180 0 min 0,0 UV-I 0 W/m 5,2 C 0,6 C 19,3 km/h (3 Bft)
08.01.2023 04:08 6,7 C 5,6 C 90 % 1006,6 hPa 0,0 l/m 11,3 km/h (2 Bft) S 180 0 min 0,0 UV-I 0 W/m 5,2 C 3,1 C 19,3 km/h (3 Bft)
08.01.2023 04:09 6,7 C 5,6 C 90 % 1006,6 hPa 0,0 l/m 16,1 km/h (3 Bft) S 180 0 min 0,0 UV-I 0 W/m 5,2 C 0,6 C 25,7 km/h (4 Bft)
08.01.2023 04:10 6,7 C 5,6 C 90 % 1006,6 hPa 0,0 l/m 14,5 km/h (3 Bft) S 180 0 min 0,0 UV-I 0 W/m 5,2 C 1,4 C 24,1 km/h (4 Bft)
08.01.2023 04:11 6,7 C 5,6 C 90 % 1006,6 hPa 0,0 l/m 12,9 km/h (3 Bft) S-SO 157 0 min 0,0 UV-I 0 W/m 5,2 C 2,2 C 20,9 km/h (4 Bft)
08.01.2023 04:12 6,7 C 5,6 C 90 % 1006,6 hPa 0,0 l/m 20,9 km/h (4 Bft) S 180 0 min 0,0 UV-I 0 W/m 5,2 C -1,3 C 27,4 km/h (4 Bft)
08.01.2023 04:13 6,7 C 5,6 C 90 % 1006,6 hPa 0,0 l/m 14,5 km/h (3 Bft) S 180 0 min 0,0 UV-I 0 W/m 5,2 C 1,4 C 25,7 km/h (4 Bft)
08.01.2023 04:14 6,7 C 5,6 C 90 % 1006,6 hPa 0,0 l/m 20,9 km/h (4 Bft) S 180 0 min 0,0 UV-I 0 W/m 5,2 C -1,3 C 27,4 km/h (4 Bft)
08.01.2023 04:15 6,7 C 5,6 C 90 % 1006,6 hPa 0,0 l/m 22,5 km/h (4 Bft) S 180 0 min 0,0 UV-I 0 W/m 5,2 C -1,9 C 29,0 km/h (5 Bft)
08.01.2023 04:16 6,7 C 5,6 C 90 % 1006,6 hPa 0,0 l/m 17,7 km/h (3 Bft) S 180 0 min 0,0 UV-I 0 W/m 5,2 C -0,1 C 22,5 km/h (4 Bft)
08.01.2023 04:17 6,7 C 5,6 C 90 % 1006,5 hPa 0,0 l/m 17,7 km/h (3 Bft) S-SW 202 0 min 0,0 UV-I 0 W/m 5,2 C -0,1 C 33,8 km/h (5 Bft)
08.01.2023 04:18 6,7 C 5,6 C 90 % 1006,5 hPa 0,0 l/m 22,5 km/h (4 Bft) S 180 0 min 0,0 UV-I 0 W/m 5,2 C -1,9 C 29,0 km/h (5 Bft)
08.01.2023 04:19 6,7 C 5,6 C 90 % 1006,6 hPa 0,0 l/m 14,5 km/h (3 Bft) S 180 0 min 0,0 UV-I 0 W/m 5,2 C 1,4 C 27,4 km/h (4 Bft)
08.01.2023 04:20 6,7 C 5,6 C 90 % 1006,5 hPa 0,0 l/m 12,9 km/h (3 Bft) S 180 0 min 0,0 UV-I 0 W/m 5,2 C 2,2 C 20,9 km/h (4 Bft)
08.01.2023 04:21 6,7 C 5,6 C 90 % 1006,6 hPa 0,0 l/m 14,5 km/h (3 Bft) S 180 0 min 0,0 UV-I 0 W/m 5,2 C 1,4 C 24,1 km/h (4 Bft)
08.01.2023 04:22 6,7 C 5,6 C 90 % 1006,6 hPa 0,0 l/m 16,1 km/h (3 Bft) S-SW 202 0 min 0,0 UV-I 0 W/m 5,2 C 0,6 C 22,5 km/h (4 Bft)
08.01.2023 04:23 6,7 C 5,6 C 90 % 1006,7 hPa 0,0 l/m 16,1 km/h (3 Bft) S 180 0 min 0,0 UV-I 0 W/m 5,2 C 0,6 C 24,1 km/h (4 Bft)
08.01.2023 04:24 6,7 C 5,6 C 90 % 1006,6 hPa 0,0 l/m 12,9 km/h (3 Bft) S 180 0 min 0,0 UV-I 0 W/m 5,2 C 2,2 C 19,3 km/h (3 Bft)
08.01.2023 04:25 6,7 C 5,6 C 90 % 1006,6 hPa 0,0 l/m 14,5 km/h (3 Bft) S 180 0 min 0,0 UV-I 0 W/m 5,2 C 1,4 C 25,7 km/h (4 Bft)
08.01.2023 04:26 6,7 C 5,6 C 90 % 1006,6 hPa 0,0 l/m 12,9 km/h (3 Bft) S 180 0 min 0,0 UV-I 0 W/m 5,2 C 2,2 C 24,1 km/h (4 Bft)
08.01.2023 04:27 6,7 C 5,6 C 90 % 1006,6 hPa 0,0 l/m 16,1 km/h (3 Bft) S 180 0 min 0,0 UV-I 0 W/m 5,2 C 0,6 C 22,5 km/h (4 Bft)
08.01.2023 04:28 6,7 C 5,6 C 90 % 1006,7 hPa 0,0 l/m 12,9 km/h (3 Bft) S 180 0 min 0,0 UV-I 0 W/m 5,2 C 2,2 C 20,9 km/h (4 Bft)
08.01.2023 04:29 6,7 C 5,6 C 90 % 1006,7 hPa 0,0 l/m 16,1 km/h (3 Bft) S-SW 202 0 min 0,0 UV-I 0 W/m 5,2 C 0,6 C 22,5 km/h (4 Bft)
08.01.2023 04:30 6,7 C 5,6 C 90 % 1006,7 hPa 0,0 l/m 17,7 km/h (3 Bft) S-SO 157 0 min 0,0 UV-I 0 W/m 5,2 C -0,1 C 30,6 km/h (5 Bft)
08.01.2023 04:31 6,7 C 5,6 C 90 % 1006,7 hPa 0,0 l/m 20,9 km/h (4 Bft) S-SW 202 0 min 0,0 UV-I 0 W/m 5,2 C -1,3 C 27,4 km/h (4 Bft)
08.01.2023 04:32 6,7 C 5,6 C 90 % 1006,7 hPa 0,0 l/m 17,7 km/h (3 Bft) S 180 0 min 0,0 UV-I 0 W/m 5,2 C -0,1 C 25,7 km/h (4 Bft)
08.01.2023 04:33 6,7 C 5,6 C 90 % 1006,7 hPa 0,0 l/m 17,7 km/h (3 Bft) S 180 0 min 0,0 UV-I 0 W/m 5,2 C -0,1 C 27,4 km/h (4 Bft)
08.01.2023 04:34 6,7 C 5,6 C 90 % 1006,7 hPa 0,0 l/m 12,9 km/h (3 Bft) S-SW 202 0 min 0,0 UV-I 0 W/m 5,2 C 2,2 C 17,7 km/h (3 Bft)
08.01.2023 04:35 6,7 C 5,6 C 90 % 1006,7 hPa 0,0 l/m 17,7 km/h (3 Bft) S 180 0 min 0,0 UV-I 0 W/m 5,2 C -0,1 C 24,1 km/h (4 Bft)
08.01.2023 04:36 6,6 C 5,6 C 90 % 1006,6 hPa 0,0 l/m 22,5 km/h (4 Bft) S 180 0 min 0,0 UV-I 0 W/m 5,1 C -2,0 C 29,0 km/h (5 Bft)
08.01.2023 04:37 6,6 C 5,6 C 90 % 1006,6 hPa 0,0 l/m 16,1 km/h (3 Bft) S-SW 202 0 min 0,0 UV-I 0 W/m 5,1 C 0,5 C 22,5 km/h (4 Bft)
08.01.2023 04:38 6,6 C 5,6 C 90 % 1006,7 hPa 0,0 l/m 16,1 km/h (3 Bft) S 180 0 min 0,0 UV-I 0 W/m 5,1 C 0,5 C 19,3 km/h (3 Bft)
08.01.2023 04:39 6,6 C 5,6 C 90 % 1006,7 hPa 0,0 l/m 17,7 km/h (3 Bft) S 180 0 min 0,0 UV-I 0 W/m 5,1 C -0,2 C 27,4 km/h (4 Bft)
08.01.2023 04:40 6,6 C 5,6 C 90 % 1006,6 hPa 0,0 l/m 17,7 km/h (3 Bft) S 180 0 min 0,0 UV-I 0 W/m 5,1 C -0,2 C 24,1 km/h (4 Bft)
08.01.2023 04:41 6,6 C 5,6 C 90 % 1006,6 hPa 0,0 l/m 19,3 km/h (3 Bft) S 180 0 min 0,0 UV-I 0 W/m 5,1 C -0,8 C 35,4 km/h (5 Bft)
08.01.2023 04:42 6,6 C 5,6 C 90 % 1006,6 hPa 0,2 l/m 16,1 km/h (3 Bft) S 180 0 min 0,0 UV-I 0 W/m 5,1 C 0,5 C 22,5 km/h (4 Bft)
08.01.2023 04:43 6,6 C 5,6 C 90 % 1006,6 hPa 0,0 l/m 12,9 km/h (3 Bft) S-SW 202 0 min 0,0 UV-I 0 W/m 5,1 C 2,1 C 20,9 km/h (4 Bft)
08.01.2023 04:44 6,6 C 5,6 C 90 % 1006,5 hPa 0,0 l/m 14,5 km/h (3 Bft) S 180 0 min 0,0 UV-I 0 W/m 5,1 C 1,3 C 20,9 km/h (4 Bft)
08.01.2023 04:45 6,6 C 5,6 C 90 % 1006,6 hPa 0,0 l/m 11,3 km/h (2 Bft) S 180 0 min 0,0 UV-I 0 W/m 5,1 C 3,0 C 17,7 km/h (3 Bft)
08.01.2023 04:46 6,6 C 5,6 C 90 % 1006,5 hPa 0,0 l/m 14,5 km/h (3 Bft) S 180 0 min 0,0 UV-I 0 W/m 5,1 C 1,3 C 20,9 km/h (4 Bft)
08.01.2023 04:47 6,6 C 5,6 C 90 % 1006,6 hPa 0,0 l/m 17,7 km/h (3 Bft) S 180 0 min 0,0 UV-I 0 W/m 5,1 C -0,2 C 22,5 km/h (4 Bft)
08.01.2023 04:48 6,6 C 5,6 C 90 % 1006,5 hPa 0,0 l/m 12,9 km/h (3 Bft) S 180 0 min 0,0 UV-I 0 W/m 5,1 C 2,1 C 16,1 km/h (3 Bft)
08.01.2023 04:49 6,5 C 5,6 C 90 % 1006,5 hPa 0,0 l/m 14,5 km/h (3 Bft) S 180 0 min 0,0 UV-I 0 W/m 5,0 C 1,1 C 19,3 km/h (3 Bft)
08.01.2023 04:50 6,5 C 5,6 C 90 % 1006,5 hPa 0,0 l/m 14,5 km/h (3 Bft) S 180 0 min 0,0 UV-I 0 W/m 5,0 C 1,1 C 19,3 km/h (3 Bft)
08.01.2023 04:51 6,5 C 5,6 C 90 % 1006,4 hPa 0,0 l/m 12,9 km/h (3 Bft) S 180 0 min 0,0 UV-I 0 W/m 5,0 C 2,0 C 20,9 km/h (4 Bft)
08.01.2023 04:52 6,5 C 5,6 C 90 % 1006,4 hPa 0,0 l/m 9,7 km/h (2 Bft) S 180 0 min 0,0 UV-I 0 W/m 5,0 C 3,9 C 17,7 km/h (3 Bft)
08.01.2023 04:53 6,5 C 5,6 C 90 % 1006,4 hPa 0,0 l/m 16,1 km/h (3 Bft) S 180 0 min 0,0 UV-I 0 W/m 5,0 C 0,4 C 20,9 km/h (4 Bft)
08.01.2023 04:54 6,5 C 5,6 C 90 % 1006,4 hPa 0,0 l/m 14,5 km/h (3 Bft) S-SW 202 0 min 0,0 UV-I 0 W/m 5,0 C 1,1 C 20,9 km/h (4 Bft)
08.01.2023 04:55 6,5 C 5,6 C 90 % 1006,5 hPa 0,0 l/m 11,3 km/h (2 Bft) S 180 0 min 0,0 UV-I 0 W/m 5,0 C 2,9 C 17,7 km/h (3 Bft)
08.01.2023 04:56 6,4 C 5,6 C 90 % 1006,4 hPa 0,0 l/m 14,5 km/h (3 Bft) S 180 0 min 0,0 UV-I 0 W/m 4,9 C 1,0 C 17,7 km/h (3 Bft)
08.01.2023 04:57 6,4 C 5,6 C 90 % 1006,4 hPa 0,0 l/m 11,3 km/h (2 Bft) S 180 0 min 0,0 UV-I 0 W/m 4,9 C 2,8 C 16,1 km/h (3 Bft)
08.01.2023 04:58 6,4 C 5,6 C 90 % 1006,3 hPa 0,0 l/m 11,3 km/h (2 Bft) S 180 0 min 0,0 UV-I 0 W/m 4,9 C 2,8 C 14,5 km/h (3 Bft)
08.01.2023 04:59 6,4 C 5,6 C 90 % 1006,4 hPa 0,0 l/m 12,9 km/h (3 Bft) S 180 0 min 0,0 UV-I 0 W/m 4,9 C 1,9 C 17,7 km/h (3 Bft)
08.01.2023 05:00 6,4 C 5,6 C 90 % 1006,4 hPa 0,0 l/m 17,7 km/h (3 Bft) S 180 0 min 0,0 UV-I 0 W/m 4,9 C -0,4 C 29,0 km/h (5 Bft)
08.01.2023 05:01 6,4 C 5,6 C 90 % 1006,5 hPa 0,0 l/m 14,5 km/h (3 Bft) S-SW 202 0 min 0,0 UV-I 0 W/m 4,9 C 1,0 C 20,9 km/h (4 Bft)
08.01.2023 05:02 6,4 C 5,6 C 90 % 1006,4 hPa 0,0 l/m 16,1 km/h (3 Bft) S-SW 202 0 min 0,0 UV-I 0 W/m 4,9 C 0,3 C 19,3 km/h (3 Bft)
08.01.2023 05:03 6,4 C 5,6 C 90 % 1006,5 hPa 0,0 l/m 14,5 km/h (3 Bft) S 180 0 min 0,0 UV-I 0 W/m 4,9 C 1,0 C 17,7 km/h (3 Bft)
08.01.2023 05:04 6,4 C 5,6 C 90 % 1006,5 hPa 0,0 l/m 16,1 km/h (3 Bft) S 180 0 min 0,0 UV-I 0 W/m 4,9 C 0,3 C 19,3 km/h (3 Bft)
08.01.2023 05:05 6,4 C 5,6 C 90 % 1006,5 hPa 0,0 l/m 12,9 km/h (3 Bft) S 180 0 min 0,0 UV-I 0 W/m 4,9 C 1,9 C 16,1 km/h (3 Bft)
08.01.2023 05:06 6,4 C 5,6 C 90 % 1006,5 hPa 0,0 l/m 11,3 km/h (2 Bft) S-SW 202 0 min 0,0 UV-I 0 W/m 4,9 C 2,8 C 24,1 km/h (4 Bft)
08.01.2023 05:07 6,3 C 5,6 C 90 % 1006,5 hPa 0,2 l/m 19,3 km/h (3 Bft) S 180 0 min 0,0 UV-I 0 W/m 4,8 C -1,2 C 25,7 km/h (4 Bft)
08.01.2023 05:08 6,4 C 5,6 C 90 % 1006,5 hPa 0,0 l/m 17,7 km/h (3 Bft) S-SW 202 0 min 0,0 UV-I 0 W/m 4,9 C -0,4 C 29,0 km/h (5 Bft)
08.01.2023 05:09 6,3 C 5,6 C 90 % 1006,4 hPa 0,0 l/m 16,1 km/h (3 Bft) S 180 0 min 0,0 UV-I 0 W/m 4,8 C 0,1 C 19,3 km/h (3 Bft)
08.01.2023 05:10 6,3 C 5,6 C 90 % 1006,4 hPa 0,0 l/m 14,5 km/h (3 Bft) S 180 0 min 0,0 UV-I 0 W/m 4,8 C 0,9 C 19,3 km/h (3 Bft)
08.01.2023 05:11 6,4 C 5,6 C 90 % 1006,3 hPa 0,0 l/m 12,9 km/h (3 Bft) S-SW 202 0 min 0,0 UV-I 0 W/m 4,9 C 1,9 C 17,7 km/h (3 Bft)
08.01.2023 05:12 6,4 C 5,6 C 90 % 1006,4 hPa 0,0 l/m 14,5 km/h (3 Bft) S-SW 202 0 min 0,0 UV-I 0 W/m 4,9 C 1,0 C 20,9 km/h (4 Bft)
08.01.2023 05:13 6,4 C 5,6 C 90 % 1006,4 hPa 0,0 l/m 16,1 km/h (3 Bft) S-SW 202 0 min 0,0 UV-I 0 W/m 4,9 C 0,3 C 25,7 km/h (4 Bft)
08.01.2023 05:14 6,3 C 5,6 C 90 % 1006,4 hPa 0,0 l/m 16,1 km/h (3 Bft) S-SW 202 0 min 0,0 UV-I 0 W/m 4,8 C 0,1 C 20,9 km/h (4 Bft)
08.01.2023 05:15 6,3 C 5,6 C 90 % 1006,4 hPa 0,0 l/m 16,1 km/h (3 Bft) S 180 0 min 0,0 UV-I 0 W/m 4,8 C 0,1 C 20,9 km/h (4 Bft)
08.01.2023 05:16 6,3 C 5,6 C 90 % 1006,5 hPa 0,0 l/m 14,5 km/h (3 Bft) S 180 0 min 0,0 UV-I 0 W/m 4,8 C 0,9 C 22,5 km/h (4 Bft)
08.01.2023 05:17 6,3 C 5,6 C 90 % 1006,4 hPa 0,0 l/m 12,9 km/h (3 Bft) S 180 0 min 0,0 UV-I 0 W/m 4,8 C 1,7 C 16,1 km/h (3 Bft)
08.01.2023 05:18 6,3 C 5,6 C 90 % 1006,5 hPa 0,0 l/m 11,3 km/h (2 Bft) S 180 0 min 0,0 UV-I 0 W/m 4,8 C 2,7 C 14,5 km/h (3 Bft)
08.01.2023 05:19 6,3 C 5,6 C 90 % 1006,5 hPa 0,0 l/m 17,7 km/h (3 Bft) S 180 0 min 0,0 UV-I 0 W/m 4,8 C -0,6 C 24,1 km/h (4 Bft)
08.01.2023 05:20 6,3 C 5,6 C 90 % 1006,4 hPa 0,0 l/m 12,9 km/h (3 Bft) S 180 0 min 0,0 UV-I 0 W/m 4,8 C 1,7 C 17,7 km/h (3 Bft)
08.01.2023 05:21 6,4 C 5,6 C 90 % 1006,5 hPa 0,0 l/m 9,7 km/h (2 Bft) S 180 0 min 0,0 UV-I 0 W/m 4,9 C 3,8 C 19,3 km/h (3 Bft)
08.01.2023 05:22 6,4 C 5,6 C 90 % 1006,5 hPa 0,0 l/m 12,9 km/h (3 Bft) S 180 0 min 0,0 UV-I 0 W/m 4,9 C 1,9 C 19,3 km/h (3 Bft)
08.01.2023 05:23 6,3 C 5,6 C 90 % 1006,4 hPa 0,0 l/m 14,5 km/h (3 Bft) S 180 0 min 0,0 UV-I 0 W/m 4,8 C 0,9 C 22,5 km/h (4 Bft)
08.01.2023 05:24 6,3 C 5,6 C 90 % 1006,4 hPa 0,0 l/m 11,3 km/h (2 Bft) S 180 0 min 0,0 UV-I 0 W/m 4,8 C 2,7 C 16,1 km/h (3 Bft)
08.01.2023 05:25 6,4 C 5,6 C 90 % 1006,4 hPa 0,0 l/m 17,7 km/h (3 Bft) S 180 0 min 0,0 UV-I 0 W/m 4,9 C -0,4 C 24,1 km/h (4 Bft)
08.01.2023 05:26 6,3 C 5,6 C 90 % 1006,3 hPa 0,0 l/m 16,1 km/h (3 Bft) S 180 0 min 0,0 UV-I 0 W/m 4,8 C 0,1 C 20,9 km/h (4 Bft)
08.01.2023 05:27 6,3 C 5,6 C 90 % 1006,3 hPa 0,0 l/m 14,5 km/h (3 Bft) S 180 0 min 0,0 UV-I 0 W/m 4,8 C 0,9 C 20,9 km/h (4 Bft)
08.01.2023 05:28 6,4 C 5,6 C 90 % 1006,2 hPa 0,0 l/m 16,1 km/h (3 Bft) S 180 0 min 0,0 UV-I 0 W/m 4,9 C 0,3 C 22,5 km/h (4 Bft)
08.01.2023 05:29 6,4 C 5,6 C 90 % 1006,1 hPa 0,0 l/m 14,5 km/h (3 Bft) S 180 0 min 0,0 UV-I 0 W/m 4,9 C 1,0 C 20,9 km/h (4 Bft)
08.01.2023 05:30 6,4 C 5,6 C 90 % 1006,2 hPa 0,0 l/m 12,9 km/h (3 Bft) S 180 0 min 0,0 UV-I 0 W/m 4,9 C 1,9 C 19,3 km/h (3 Bft)
08.01.2023 05:31 6,4 C 5,6 C 90 % 1006,1 hPa 0,0 l/m 14,5 km/h (3 Bft) S 180 0 min 0,0 UV-I 0 W/m 4,9 C 1,0 C 22,5 km/h (4 Bft)
08.01.2023 05:32 6,4 C 5,6 C 90 % 1006,3 hPa 0,0 l/m 20,9 km/h (4 Bft) S 180 0 min 0,0 UV-I 0 W/m 4,9 C -1,7 C 29,0 km/h (5 Bft)
08.01.2023 05:33 6,4 C 5,6 C 90 % 1006,3 hPa 0,0 l/m 16,1 km/h (3 Bft) S 180 0 min 0,0 UV-I 0 W/m 4,9 C 0,3 C 19,3 km/h (3 Bft)
08.01.2023 05:34 6,4 C 5,6 C 90 % 1006,3 hPa 0,0 l/m 12,9 km/h (3 Bft) S 180 0 min 0,0 UV-I 0 W/m 4,9 C 1,9 C 20,9 km/h (4 Bft)
08.01.2023 05:35 6,4 C 5,6 C 90 % 1006,3 hPa 0,0 l/m 14,5 km/h (3 Bft) S 180 0 min 0,0 UV-I 0 W/m 4,9 C 1,0 C 20,9 km/h (4 Bft)
08.01.2023 05:36 6,4 C 5,6 C 90 % 1006,3 hPa 0,0 l/m 19,3 km/h (3 Bft) S 180 0 min 0,0 UV-I 0 W/m 4,9 C -1,1 C 27,4 km/h (4 Bft)
08.01.2023 05:37 6,4 C 5,6 C 90 % 1006,4 hPa 0,0 l/m 16,1 km/h (3 Bft) S 180 0 min 0,0 UV-I 0 W/m 4,9 C 0,3 C 24,1 km/h (4 Bft)
08.01.2023 05:38 6,4 C 5,6 C 90 % 1006,3 hPa 0,0 l/m 17,7 km/h (3 Bft) S 180 0 min 0,0 UV-I 0 W/m 4,9 C -0,4 C 29,0 km/h (5 Bft)
08.01.2023 05:39 6,4 C 5,6 C 90 % 1006,1 hPa 0,0 l/m 16,1 km/h (3 Bft) S-SW 202 0 min 0,0 UV-I 0 W/m 4,9 C 0,3 C 19,3 km/h (3 Bft)
08.01.2023 05:40 6,4 C 5,6 C 90 % 1006,2 hPa 0,0 l/m 14,5 km/h (3 Bft) S 180 0 min 0,0 UV-I 0 W/m 4,9 C 1,0 C 20,9 km/h (4 Bft)
08.01.2023 05:41 6,5 C 5,6 C 90 % 1006,3 hPa 0,0 l/m 19,3 km/h (3 Bft) S 180 0 min 0,0 UV-I 0 W/m 5,0 C -1,0 C 30,6 km/h (5 Bft)
08.01.2023 05:42 6,5 C 5,6 C 90 % 1006,2 hPa 0,0 l/m 20,9 km/h (4 Bft) S 180 0 min 0,0 UV-I 0 W/m 5,0 C -1,6 C 30,6 km/h (5 Bft)
08.01.2023 05:43 6,6 C 5,6 C 90 % 1006,2 hPa 0,0 l/m 14,5 km/h (3 Bft) S-SW 202 0 min 0,0 UV-I 0 W/m 5,1 C 1,3 C 20,9 km/h (4 Bft)
08.01.2023 05:44 6,5 C 5,6 C 90 % 1006,3 hPa 0,0 l/m 14,5 km/h (3 Bft) S-SW 202 0 min 0,0 UV-I 0 W/m 5,0 C 1,1 C 16,1 km/h (3 Bft)
08.01.2023 05:45 6,6 C 5,6 C 90 % 1006,3 hPa 0,0 l/m 12,9 km/h (3 Bft) S-SW 202 0 min 0,0 UV-I 0 W/m 5,1 C 2,1 C 17,7 km/h (3 Bft)
08.01.2023 05:46 6,5 C 5,6 C 90 % 1006,3 hPa 0,0 l/m 12,9 km/h (3 Bft) S-SW 202 0 min 0,0 UV-I 0 W/m 5,0 C 2,0 C 16,1 km/h (3 Bft)
08.01.2023 05:47 6,6 C 5,6 C 90 % 1006,2 hPa 0,0 l/m 12,9 km/h (3 Bft) S-SW 202 0 min 0,0 UV-I 0 W/m 5,1 C 2,1 C 16,1 km/h (3 Bft)
08.01.2023 05:48 6,6 C 5,6 C 90 % 1006,1 hPa 0,0 l/m 14,5 km/h (3 Bft) S-SW 202 0 min 0,0 UV-I 0 W/m 5,1 C 1,3 C 20,9 km/h (4 Bft)
08.01.2023 05:49 6,6 C 5,6 C 90 % 1006,1 hPa 0,0 l/m 11,3 km/h (2 Bft) SW 225 0 min 0,0 UV-I 0 W/m 5,1 C 3,0 C 17,7 km/h (3 Bft)
08.01.2023 05:50 6,6 C 5,6 C 90 % 1006,1 hPa 0,0 l/m 14,5 km/h (3 Bft) SW 225 0 min 0,0 UV-I 0 W/m 5,1 C 1,3 C 20,9 km/h (4 Bft)
08.01.2023 05:51 6,6 C 5,6 C 90 % 1006,0 hPa 0,0 l/m 14,5 km/h (3 Bft) S-SW 202 0 min 0,0 UV-I 0 W/m 5,1 C 1,3 C 19,3 km/h (3 Bft)
08.01.2023 05:52 6,6 C 5,6 C 90 % 1006,0 hPa 0,0 l/m 12,9 km/h (3 Bft) S-SW 202 0 min 0,0 UV-I 0 W/m 5,1 C 2,1 C 19,3 km/h (3 Bft)
08.01.2023 05:53 6,6 C 5,6 C 90 % 1005,9 hPa 0,0 l/m 9,7 km/h (2 Bft) S-SW 202 0 min 0,0 UV-I 0 W/m 5,1 C 4,0 C 16,1 km/h (3 Bft)
08.01.2023 05:54 6,6 C 5,6 C 90 % 1005,9 hPa 0,0 l/m 11,3 km/h (2 Bft) SW 225 0 min 0,0 UV-I 0 W/m 5,1 C 3,0 C 16,1 km/h (3 Bft)
08.01.2023 05:55 6,6 C 5,6 C 90 % 1005,9 hPa 0,0 l/m 11,3 km/h (2 Bft) S-SW 202 0 min 0,0 UV-I 0 W/m 5,1 C 3,0 C 19,3 km/h (3 Bft)
08.01.2023 05:56 6,6 C 5,6 C 90 % 1005,8 hPa 0,0 l/m 12,9 km/h (3 Bft) S-SW 202 0 min 0,0 UV-I 0 W/m 5,1 C 2,1 C 17,7 km/h (3 Bft)
08.01.2023 05:57 6,6 C 5,6 C 90 % 1005,9 hPa 0,0 l/m 12,9 km/h (3 Bft) S-SW 202 0 min 0,0 UV-I 0 W/m 5,1 C 2,1 C 17,7 km/h (3 Bft)
08.01.2023 05:58 6,6 C 5,6 C 90 % 1005,9 hPa 0,0 l/m 11,3 km/h (2 Bft) S-SW 202 0 min 0,0 UV-I 0 W/m 5,1 C 3,0 C 17,7 km/h (3 Bft)
08.01.2023 05:59 6,6 C 5,6 C 90 % 1005,9 hPa 0,0 l/m 14,5 km/h (3 Bft) S-SW 202 0 min 0,0 UV-I 0 W/m 5,1 C 1,3 C 17,7 km/h (3 Bft)
08.01.2023 06:00 6,6 C 5,6 C 90 % 1005,9 hPa 0,0 l/m 11,3 km/h (2 Bft) S-SW 202 0 min 0,0 UV-I 0 W/m 5,1 C 3,0 C 16,1 km/h (3 Bft)
08.01.2023 06:01 6,6 C 5,6 C 90 % 1005,8 hPa 0,0 l/m 12,9 km/h (3 Bft) S 180 0 min 0,0 UV-I 0 W/m 5,1 C 2,1 C 17,7 km/h (3 Bft)
08.01.2023 06:02 6,6 C 5,6 C 90 % 1005,8 hPa 0,0 l/m 14,5 km/h (3 Bft) S-SW 202 0 min 0,0 UV-I 0 W/m 5,1 C 1,3 C 22,5 km/h (4 Bft)
08.01.2023 06:03 6,6 C 5,6 C 90 % 1005,8 hPa 0,0 l/m 17,7 km/h (3 Bft) S 180 0 min 0,0 UV-I 0 W/m 5,1 C -0,2 C 24,1 km/h (4 Bft)
08.01.2023 06:04 6,6 C 5,6 C 90 % 1005,9 hPa 0,0 l/m 11,3 km/h (2 Bft) S 180 0 min 0,0 UV-I 0 W/m 5,1 C 3,0 C 16,1 km/h (3 Bft)
08.01.2023 06:05 6,6 C 5,6 C 90 % 1005,7 hPa 0,0 l/m 9,7 km/h (2 Bft) S 180 0 min 0,0 UV-I 0 W/m 5,1 C 4,0 C 17,7 km/h (3 Bft)
08.01.2023 06:06 6,5 C 5,6 C 90 % 1005,8 hPa 0,0 l/m 14,5 km/h (3 Bft) S 180 0 min 0,0 UV-I 0 W/m 5,0 C 1,1 C 20,9 km/h (4 Bft)
08.01.2023 06:07 6,5 C 5,6 C 90 % 1005,8 hPa 0,0 l/m 12,9 km/h (3 Bft) S-SO 157 0 min 0,0 UV-I 0 W/m 5,0 C 2,0 C 17,7 km/h (3 Bft)
08.01.2023 06:08 6,6 C 5,6 C 91 % 1005,7 hPa 0,0 l/m 14,5 km/h (3 Bft) S 180 0 min 0,0 UV-I 0 W/m 5,2 C 1,3 C 24,1 km/h (4 Bft)
08.01.2023 06:09 6,5 C 5,6 C 90 % 1005,8 hPa 0,0 l/m 24,1 km/h (4 Bft) S 180 0 min 0,0 UV-I 0 W/m 5,0 C -2,6 C 33,8 km/h (5 Bft)
08.01.2023 06:10 6,6 C 5,6 C 90 % 1005,7 hPa 0,0 l/m 20,9 km/h (4 Bft) S 180 0 min 0,0 UV-I 0 W/m 5,1 C -1,4 C 25,7 km/h (4 Bft)
08.01.2023 06:11 6,5 C 5,6 C 90 % 1005,8 hPa 0,2 l/m 19,3 km/h (3 Bft) S 180 0 min 0,0 UV-I 0 W/m 5,0 C -1,0 C 24,1 km/h (4 Bft)
08.01.2023 06:12 6,6 C 5,6 C 90 % 1005,8 hPa 0,0 l/m 14,5 km/h (3 Bft) S 180 0 min 0,0 UV-I 0 W/m 5,1 C 1,3 C 17,7 km/h (3 Bft)
08.01.2023 06:13 6,6 C 5,6 C 91 % 1005,8 hPa 0,0 l/m 20,9 km/h (4 Bft) S 180 0 min 0,0 UV-I 0 W/m 5,2 C -1,4 C 37,0 km/h (5 Bft)
08.01.2023 06:14 6,6 C 5,6 C 91 % 1005,8 hPa 0,0 l/m 17,7 km/h (3 Bft) S 180 0 min 0,0 UV-I 0 W/m 5,2 C -0,2 C 24,1 km/h (4 Bft)
08.01.2023 06:15 6,6 C 5,6 C 91 % 1005,8 hPa 0,0 l/m 16,1 km/h (3 Bft) S 180 0 min 0,0 UV-I 0 W/m 5,2 C 0,5 C 25,7 km/h (4 Bft)
08.01.2023 06:16 6,6 C 5,6 C 91 % 1005,6 hPa 0,0 l/m 14,5 km/h (3 Bft) S 180 0 min 0,0 UV-I 0 W/m 5,2 C 1,3 C 24,1 km/h (4 Bft)
08.01.2023 06:17 6,6 C 5,6 C 90 % 1005,8 hPa 0,0 l/m 19,3 km/h (3 Bft) S 180 0 min 0,0 UV-I 0 W/m 5,1 C -0,8 C 25,7 km/h (4 Bft)
08.01.2023 06:18 6,6 C 5,6 C 91 % 1005,7 hPa 0,2 l/m 20,9 km/h (4 Bft) S-SW 202 0 min 0,0 UV-I 0 W/m 5,2 C -1,4 C 27,4 km/h (4 Bft)
08.01.2023 06:19 6,6 C 5,6 C 91 % 1005,8 hPa 0,0 l/m 19,3 km/h (3 Bft) S-SW 202 0 min 0,0 UV-I 0 W/m 5,2 C -0,8 C 25,7 km/h (4 Bft)
08.01.2023 06:20 6,6 C 5,6 C 91 % 1005,6 hPa 0,0 l/m 16,1 km/h (3 Bft) S-SW 202 0 min 0,0 UV-I 0 W/m 5,2 C 0,5 C 19,3 km/h (3 Bft)
08.01.2023 06:21 6,6 C 5,6 C 91 % 1005,6 hPa 0,0 l/m 17,7 km/h (3 Bft) S 180 0 min 0,0 UV-I 0 W/m 5,2 C -0,2 C 25,7 km/h (4 Bft)
08.01.2023 06:22 6,6 C 5,6 C 91 % 1005,6 hPa 0,2 l/m 20,9 km/h (4 Bft) S-SW 202 0 min 0,0 UV-I 0 W/m 5,2 C -1,4 C 27,4 km/h (4 Bft)
08.01.2023 06:23 6,6 C 5,6 C 91 % 1005,7 hPa 0,0 l/m 14,5 km/h (3 Bft) S-SW 202 0 min 0,0 UV-I 0 W/m 5,2 C 1,3 C 20,9 km/h (4 Bft)
08.01.2023 06:24 6,6 C 5,6 C 91 % 1005,8 hPa 0,0 l/m 20,9 km/h (4 Bft) S 180 0 min 0,0 UV-I 0 W/m 5,2 C -1,4 C 33,8 km/h (5 Bft)
08.01.2023 06:25 6,6 C 5,6 C 91 % 1005,7 hPa 0,0 l/m 17,7 km/h (3 Bft) S 180 0 min 0,0 UV-I 0 W/m 5,2 C -0,2 C 22,5 km/h (4 Bft)
08.01.2023 06:26 6,5 C 5,6 C 91 % 1005,6 hPa 0,0 l/m 16,1 km/h (3 Bft) S-SW 202 0 min 0,0 UV-I 0 W/m 5,1 C 0,4 C 20,9 km/h (4 Bft)
08.01.2023 06:27 6,6 C 5,6 C 91 % 1005,8 hPa 0,0 l/m 12,9 km/h (3 Bft) S-SW 202 0 min 0,0 UV-I 0 W/m 5,2 C 2,1 C 20,9 km/h (4 Bft)
08.01.2023 06:28 6,5 C 5,6 C 91 % 1005,8 hPa 0,0 l/m 16,1 km/h (3 Bft) S-SW 202 0 min 0,0 UV-I 0 W/m 5,1 C 0,4 C 24,1 km/h (4 Bft)
08.01.2023 06:29 6,6 C 5,6 C 91 % 1005,8 hPa 0,0 l/m 14,5 km/h (3 Bft) S-SW 202 0 min 0,0 UV-I 0 W/m 5,2 C 1,3 C 20,9 km/h (4 Bft)
08.01.2023 06:30 6,5 C 5,6 C 91 % 1005,8 hPa 0,0 l/m 14,5 km/h (3 Bft) S-SW 202 0 min 0,0 UV-I 0 W/m 5,1 C 1,1 C 19,3 km/h (3 Bft)
08.01.2023 06:31 6,5 C 5,6 C 91 % 1005,8 hPa 0,0 l/m 16,1 km/h (3 Bft) S-SW 202 0 min 0,0 UV-I 0 W/m 5,1 C 0,4 C 20,9 km/h (4 Bft)
08.01.2023 06:32 6,5 C 5,6 C 91 % 1005,7 hPa 0,0 l/m 16,1 km/h (3 Bft) S-SW 202 0 min 0,0 UV-I 0 W/m 5,1 C 0,4 C 20,9 km/h (4 Bft)
08.01.2023 06:33 6,4 C 5,6 C 91 % 1005,8 hPa 0,0 l/m 19,3 km/h (3 Bft) S-SW 202 0 min 0,0 UV-I 0 W/m 5,0 C -1,1 C 25,7 km/h (4 Bft)
08.01.2023 06:34 6,4 C 5,6 C 91 % 1005,8 hPa 0,0 l/m 14,5 km/h (3 Bft) S-SW 202 0 min 0,0 UV-I 0 W/m 5,0 C 1,0 C 22,5 km/h (4 Bft)
08.01.2023 06:35 6,5 C 5,6 C 91 % 1005,6 hPa 0,0 l/m 12,9 km/h (3 Bft) S-SW 202 0 min 0,0 UV-I 0 W/m 5,1 C 2,0 C 17,7 km/h (3 Bft)
08.01.2023 06:36 6,4 C 5,6 C 91 % 1005,8 hPa 0,2 l/m 16,1 km/h (3 Bft) S-SW 202 0 min 0,0 UV-I 0 W/m 5,0 C 0,3 C 25,7 km/h (4 Bft)
08.01.2023 06:37 6,5 C 5,6 C 91 % 1005,9 hPa 0,0 l/m 16,1 km/h (3 Bft) S 180 0 min 0,0 UV-I 0 W/m 5,1 C 0,4 C 22,5 km/h (4 Bft)
08.01.2023 06:38 6,5 C 5,6 C 91 % 1005,7 hPa 0,0 l/m 14,5 km/h (3 Bft) S-SW 202 0 min 0,0 UV-I 0 W/m 5,1 C 1,1 C 22,5 km/h (4 Bft)
08.01.2023 06:39 6,5 C 5,6 C 91 % 1005,8 hPa 0,0 l/m 19,3 km/h (3 Bft) S-SW 202 0 min 0,0 UV-I 0 W/m 5,1 C -1,0 C 22,5 km/h (4 Bft)
08.01.2023 06:40 6,5 C 5,6 C 91 % 1005,8 hPa 0,0 l/m 16,1 km/h (3 Bft) S-SW 202 0 min 0,0 UV-I 0 W/m 5,1 C 0,4 C 19,3 km/h (3 Bft)
08.01.2023 06:41 6,5 C 5,6 C 91 % 1005,8 hPa 0,0 l/m 14,5 km/h (3 Bft) S-SW 202 0 min 0,0 UV-I 0 W/m 5,1 C 1,1 C 19,3 km/h (3 Bft)
08.01.2023 06:42 6,5 C 5,6 C 91 % 1005,7 hPa 0,0 l/m 11,3 km/h (2 Bft) S-SW 202 0 min 0,0 UV-I 0 W/m 5,1 C 2,9 C 16,1 km/h (3 Bft)
08.01.2023 06:43 6,5 C 5,6 C 91 % 1005,8 hPa 0,0 l/m 14,5 km/h (3 Bft) S-SW 202 0 min 0,0 UV-I 0 W/m 5,1 C 1,1 C 19,3 km/h (3 Bft)
08.01.2023 06:44 6,5 C 5,6 C 91 % 1005,8 hPa 0,0 l/m 12,9 km/h (3 Bft) S 180 0 min 0,0 UV-I 0 W/m 5,1 C 2,0 C 19,3 km/h (3 Bft)
08.01.2023 06:45 6,5 C 5,6 C 91 % 1005,8 hPa 0,0 l/m 12,9 km/h (3 Bft) S-SW 202 0 min 0,0 UV-I 0 W/m 5,1 C 2,0 C 20,9 km/h (4 Bft)
08.01.2023 06:46 6,5 C 5,6 C 91 % 1005,9 hPa 0,0 l/m 12,9 km/h (3 Bft) S 180 0 min 0,0 UV-I 0 W/m 5,1 C 2,0 C 19,3 km/h (3 Bft)
08.01.2023 06:47 6,6 C 5,6 C 91 % 1005,8 hPa 0,0 l/m 14,5 km/h (3 Bft) S-SW 202 0 min 0,0 UV-I 0 W/m 5,2 C 1,3 C 16,1 km/h (3 Bft)
08.01.2023 06:48 6,5 C 5,6 C 91 % 1005,8 hPa 0,0 l/m 12,9 km/h (3 Bft) S 180 0 min 0,0 UV-I 0 W/m 5,1 C 2,0 C 16,1 km/h (3 Bft)
08.01.2023 06:49 6,5 C 5,6 C 91 % 1005,8 hPa 0,2 l/m 17,7 km/h (3 Bft) S 180 0 min 0,0 UV-I 0 W/m 5,1 C -0,3 C 27,4 km/h (4 Bft)
08.01.2023 06:50 6,5 C 5,6 C 91 % 1005,7 hPa 0,0 l/m 24,1 km/h (4 Bft) S-SW 202 0 min 0,0 UV-I 0 W/m 5,1 C -2,6 C 30,6 km/h (5 Bft)
08.01.2023 06:51 6,5 C 5,6 C 91 % 1005,6 hPa 0,0 l/m 16,1 km/h (3 Bft) S-SW 202 0 min 0,0 UV-I 0 W/m 5,1 C 0,4 C 22,5 km/h (4 Bft)
08.01.2023 06:52 6,5 C 5,6 C 91 % 1005,7 hPa 0,0 l/m 20,9 km/h (4 Bft) S-SW 202 0 min 0,0 UV-I 0 W/m 5,1 C -1,6 C 27,4 km/h (4 Bft)
08.01.2023 06:53 6,5 C 5,6 C 91 % 1005,8 hPa 0,0 l/m 12,9 km/h (3 Bft) S 180 0 min 0,0 UV-I 0 W/m 5,1 C 2,0 C 17,7 km/h (3 Bft)
08.01.2023 06:54 6,5 C 5,6 C 91 % 1005,8 hPa 0,0 l/m 14,5 km/h (3 Bft) S 180 0 min 0,0 UV-I 0 W/m 5,1 C 1,1 C 27,4 km/h (4 Bft)
08.01.2023 06:55 6,4 C 5,6 C 91 % 1005,8 hPa 0,0 l/m 14,5 km/h (3 Bft) S 180 0 min 0,0 UV-I 0 W/m 5,0 C 1,0 C 24,1 km/h (4 Bft)
08.01.2023 06:56 6,4 C 5,6 C 91 % 1005,7 hPa 0,0 l/m 19,3 km/h (3 Bft) S 180 0 min 0,0 UV-I 0 W/m 5,0 C -1,1 C 25,7 km/h (4 Bft)
08.01.2023 06:57 6,4 C 5,6 C 91 % 1005,7 hPa 0,0 l/m 16,1 km/h (3 Bft) S-SW 202 0 min 0,0 UV-I 0 W/m 5,0 C 0,3 C 22,5 km/h (4 Bft)
08.01.2023 06:58 6,4 C 5,6 C 91 % 1005,7 hPa 0,0 l/m 14,5 km/h (3 Bft) S-SW 202 0 min 0,0 UV-I 0 W/m 5,0 C 1,0 C 22,5 km/h (4 Bft)
08.01.2023 06:59 6,4 C 5,6 C 91 % 1005,8 hPa 0,0 l/m 19,3 km/h (3 Bft) S 180 0 min 0,0 UV-I 0 W/m 5,0 C -1,1 C 33,8 km/h (5 Bft)
08.01.2023 07:00 6,4 C 5,6 C 91 % 1005,7 hPa 0,0 l/m 12,9 km/h (3 Bft) S 180 0 min 0,0 UV-I 0 W/m 5,0 C 1,9 C 16,1 km/h (3 Bft)
08.01.2023 07:01 6,4 C 5,6 C 91 % 1005,8 hPa 0,0 l/m 14,5 km/h (3 Bft) S-SW 202 0 min 0,0 UV-I 0 W/m 5,0 C 1,0 C 22,5 km/h (4 Bft)
08.01.2023 07:02 6,4 C 5,6 C 91 % 1005,7 hPa 0,0 l/m 19,3 km/h (3 Bft) S-SW 202 0 min 0,0 UV-I 0 W/m 5,0 C -1,1 C 27,4 km/h (4 Bft)
08.01.2023 07:03 6,4 C 5,6 C 91 % 1005,7 hPa 0,0 l/m 17,7 km/h (3 Bft) S-SW 202 0 min 0,0 UV-I 0 W/m 5,0 C -0,4 C 24,1 km/h (4 Bft)
08.01.2023 07:04 6,4 C 5,6 C 91 % 1005,7 hPa 0,0 l/m 16,1 km/h (3 Bft) S 180 0 min 0,0 UV-I 0 W/m 5,0 C 0,3 C 19,3 km/h (3 Bft)
08.01.2023 07:05 6,3 C 5,6 C 91 % 1005,8 hPa 0,0 l/m 14,5 km/h (3 Bft) S-SW 202 0 min 0,0 UV-I 0 W/m 4,9 C 0,9 C 22,5 km/h (4 Bft)
08.01.2023 07:06 6,3 C 5,6 C 91 % 1005,8 hPa 0,2 l/m 24,1 km/h (4 Bft) S 180 0 min 0,0 UV-I 0 W/m 4,9 C -2,9 C 30,6 km/h (5 Bft)
08.01.2023 07:07 6,3 C 5,6 C 91 % 1005,7 hPa 0,0 l/m 20,9 km/h (4 Bft) S-SW 202 0 min 0,0 UV-I 0 W/m 4,9 C -1,8 C 25,7 km/h (4 Bft)
08.01.2023 07:08 6,3 C 5,6 C 91 % 1005,6 hPa 0,0 l/m 16,1 km/h (3 Bft) S 180 0 min 0,0 UV-I 0 W/m 4,9 C 0,1 C 20,9 km/h (4 Bft)
08.01.2023 07:09 6,3 C 5,6 C 91 % 1005,8 hPa 0,0 l/m 16,1 km/h (3 Bft) S 180 0 min 0,0 UV-I 0 W/m 4,9 C 0,1 C 19,3 km/h (3 Bft)
08.01.2023 07:10 6,3 C 5,6 C 91 % 1005,8 hPa 0,0 l/m 17,7 km/h (3 Bft) S-SW 202 0 min 0,0 UV-I 0 W/m 4,9 C -0,6 C 20,9 km/h (4 Bft)
08.01.2023 07:11 6,3 C 5,6 C 91 % 1005,8 hPa 0,0 l/m 12,9 km/h (3 Bft) S-SW 202 0 min 0,0 UV-I 0 W/m 4,9 C 1,7 C 16,1 km/h (3 Bft)
08.01.2023 07:12 6,3 C 5,6 C 91 % 1005,7 hPa 0,0 l/m 11,3 km/h (2 Bft) S 180 0 min 0,0 UV-I 0 W/m 4,9 C 2,7 C 12,9 km/h (3 Bft)
08.01.2023 07:13 6,3 C 5,6 C 91 % 1005,8 hPa 0,0 l/m 14,5 km/h (3 Bft) S 180 0 min 0,0 UV-I 0 W/m 4,9 C 0,9 C 24,1 km/h (4 Bft)
08.01.2023 07:14 6,3 C 5,6 C 91 % 1005,8 hPa 0,0 l/m 16,1 km/h (3 Bft) S-SW 202 0 min 0,0 UV-I 0 W/m 4,9 C 0,1 C 24,1 km/h (4 Bft)
08.01.2023 07:15 6,3 C 5,6 C 91 % 1005,8 hPa 0,0 l/m 12,9 km/h (3 Bft) S-SW 202 0 min 0,0 UV-I 0 W/m 4,9 C 1,7 C 19,3 km/h (3 Bft)
08.01.2023 07:16 6,3 C 5,6 C 91 % 1005,8 hPa 0,0 l/m 12,9 km/h (3 Bft) S 180 0 min 0,0 UV-I 0 W/m 4,9 C 1,7 C 19,3 km/h (3 Bft)
08.01.2023 07:17 6,3 C 5,6 C 91 % 1005,8 hPa 0,0 l/m 16,1 km/h (3 Bft) S 180 0 min 0,0 UV-I 0 W/m 4,9 C 0,1 C 22,5 km/h (4 Bft)
08.01.2023 07:18 6,3 C 5,6 C 91 % 1005,7 hPa 0,0 l/m 16,1 km/h (3 Bft) S-SW 202 0 min 0,0 UV-I 0 W/m 4,9 C 0,1 C 20,9 km/h (4 Bft)
08.01.2023 07:19 6,3 C 5,6 C 91 % 1005,8 hPa 0,0 l/m 14,5 km/h (3 Bft) S 180 0 min 0,0 UV-I 0 W/m 4,9 C 0,9 C 20,9 km/h (4 Bft)
08.01.2023 07:20 6,3 C 5,6 C 91 % 1005,8 hPa 0,0 l/m 16,1 km/h (3 Bft) S-SW 202 0 min 0,0 UV-I 0 W/m 4,9 C 0,1 C 25,7 km/h (4 Bft)
08.01.2023 07:21 6,3 C 5,6 C 91 % 1005,8 hPa 0,0 l/m 19,3 km/h (3 Bft) S-SW 202 0 min 0,0 UV-I 0 W/m 4,9 C -1,2 C 24,1 km/h (4 Bft)
08.01.2023 07:22 6,3 C 5,6 C 91 % 1005,9 hPa 0,0 l/m 20,9 km/h (4 Bft) S-SW 202 0 min 0,0 UV-I 0 W/m 4,9 C -1,8 C 25,7 km/h (4 Bft)
08.01.2023 07:23 6,3 C 5,6 C 91 % 1005,7 hPa 0,0 l/m 19,3 km/h (3 Bft) S 180 0 min 0,0 UV-I 0 W/m 4,9 C -1,2 C 27,4 km/h (4 Bft)
08.01.2023 07:24 6,3 C 5,6 C 91 % 1005,7 hPa 0,0 l/m 20,9 km/h (4 Bft) S-SW 202 0 min 0,0 UV-I 0 W/m 4,9 C -1,8 C 29,0 km/h (5 Bft)
08.01.2023 07:25 6,3 C 5,6 C 91 % 1005,8 hPa 0,0 l/m 17,7 km/h (3 Bft) S 180 0 min 0,0 UV-I 0 W/m 4,9 C -0,6 C 25,7 km/h (4 Bft)
08.01.2023 07:26 6,3 C 5,6 C 91 % 1005,8 hPa 0,0 l/m 17,7 km/h (3 Bft) S-SW 202 0 min 0,0 UV-I 0 W/m 4,9 C -0,6 C 25,7 km/h (4 Bft)
08.01.2023 07:27 6,3 C 5,6 C 91 % 1005,8 hPa 0,0 l/m 19,3 km/h (3 Bft) S-SW 202 0 min 0,0 UV-I 0 W/m 4,9 C -1,2 C 32,2 km/h (5 Bft)
08.01.2023 07:28 6,3 C 5,6 C 91 % 1005,8 hPa 0,0 l/m 17,7 km/h (3 Bft) S 180 0 min 0,0 UV-I 0 W/m 4,9 C -0,6 C 27,4 km/h (4 Bft)
08.01.2023 07:29 6,3 C 5,6 C 90 % 1005,8 hPa 0,0 l/m 16,1 km/h (3 Bft) S-SW 202 0 min 0,0 UV-I 0 W/m 4,8 C 0,1 C 22,5 km/h (4 Bft)
08.01.2023 07:30 6,3 C 5,6 C 91 % 1005,9 hPa 0,2 l/m 20,9 km/h (4 Bft) S-SW 202 0 min 0,0 UV-I 0 W/m 4,9 C -1,8 C 33,8 km/h (5 Bft)
08.01.2023 07:31 6,3 C 5,6 C 91 % 1005,8 hPa 0,0 l/m 17,7 km/h (3 Bft) S-SW 202 0 min 0,0 UV-I 0 W/m 4,9 C -0,6 C 22,5 km/h (4 Bft)
08.01.2023 07:32 6,3 C 5,6 C 91 % 1005,8 hPa 0,0 l/m 20,9 km/h (4 Bft) S 180 0 min 0,0 UV-I 0 W/m 4,9 C -1,8 C 25,7 km/h (4 Bft)
08.01.2023 07:33 6,2 C 5,6 C 91 % 1005,9 hPa 0,0 l/m 20,9 km/h (4 Bft) S-SW 202 0 min 0,0 UV-I 0 W/m 4,8 C -2,0 C 30,6 km/h (5 Bft)
08.01.2023 07:34 6,2 C 5,6 C 91 % 1005,8 hPa 0,0 l/m 19,3 km/h (3 Bft) S 180 0 min 0,0 UV-I 0 W/m 4,8 C -1,4 C 27,4 km/h (4 Bft)
08.01.2023 07:35 6,2 C 5,6 C 91 % 1005,8 hPa 0,0 l/m 19,3 km/h (3 Bft) S-SW 202 0 min 0,0 UV-I 0 W/m 4,8 C -1,4 C 27,4 km/h (4 Bft)
08.01.2023 07:36 6,2 C 5,6 C 91 % 1005,7 hPa 0,0 l/m 17,7 km/h (3 Bft) S 180 0 min 0,0 UV-I 0 W/m 4,8 C -0,7 C 29,0 km/h (5 Bft)
08.01.2023 07:37 6,3 C 5,6 C 91 % 1005,8 hPa 0,0 l/m 17,7 km/h (3 Bft) S-SW 202 0 min 0,0 UV-I 0 W/m 4,9 C -0,6 C 25,7 km/h (4 Bft)
08.01.2023 07:38 6,2 C 5,6 C 91 % 1005,8 hPa 0,0 l/m 17,7 km/h (3 Bft) S 180 0 min 0,0 UV-I 0 W/m 4,8 C -0,7 C 25,7 km/h (4 Bft)
08.01.2023 07:39 6,2 C 5,6 C 91 % 1005,8 hPa 0,2 l/m 19,3 km/h (3 Bft) S-SW 202 0 min 0,0 UV-I 0 W/m 4,8 C -1,4 C 38,6 km/h (5 Bft)
08.01.2023 07:40 6,2 C 5,6 C 90 % 1005,8 hPa 0,0 l/m 19,3 km/h (3 Bft) S 180 0 min 0,0 UV-I 0 W/m 4,7 C -1,4 C 29,0 km/h (5 Bft)
08.01.2023 07:41 6,3 C 5,6 C 91 % 1005,9 hPa 0,0 l/m 19,3 km/h (3 Bft) S-SW 202 0 min 0,0 UV-I 0 W/m 4,9 C -1,2 C 24,1 km/h (4 Bft)
08.01.2023 07:42 6,2 C 5,6 C 91 % 1006,0 hPa 0,0 l/m 20,9 km/h (4 Bft) S-SW 202 0 min 0,0 UV-I 0 W/m 4,8 C -2,0 C 30,6 km/h (5 Bft)
08.01.2023 07:43 6,3 C 5,6 C 91 % 1005,9 hPa 0,0 l/m 20,9 km/h (4 Bft) S 180 0 min 0,0 UV-I 0 W/m 4,9 C -1,8 C 30,6 km/h (5 Bft)
08.01.2023 07:44 6,2 C 5,6 C 91 % 1005,9 hPa 0,0 l/m 17,7 km/h (3 Bft) S-SW 202 0 min 0,0 UV-I 0 W/m 4,8 C -0,7 C 20,9 km/h (4 Bft)
08.01.2023 07:45 6,3 C 5,6 C 91 % 1005,9 hPa 0,0 l/m 19,3 km/h (3 Bft) S 180 0 min 0,0 UV-I 0 W/m 4,9 C -1,2 C 27,4 km/h (4 Bft)
08.01.2023 07:46 6,3 C 5,6 C 91 % 1005,9 hPa 0,0 l/m 19,3 km/h (3 Bft) S 180 0 min 0,0 UV-I 0 W/m 4,9 C -1,2 C 25,7 km/h (4 Bft)
08.01.2023 07:47 6,2 C 5,6 C 91 % 1005,9 hPa 0,0 l/m 20,9 km/h (4 Bft) S 180 0 min 0,0 UV-I 0 W/m 4,8 C -2,0 C 30,6 km/h (5 Bft)
08.01.2023 07:48 6,2 C 5,0 C 91 % 1005,8 hPa 0,0 l/m 19,3 km/h (3 Bft) S-SW 202 0 min 0,0 UV-I 0 W/m 4,8 C -1,4 C 24,1 km/h (4 Bft)
08.01.2023 07:49 6,3 C 5,0 C 91 % 1005,9 hPa 0,0 l/m 19,3 km/h (3 Bft) S-SW 202 0 min 0,0 UV-I 0 W/m 4,9 C -1,2 C 24,1 km/h (4 Bft)
08.01.2023 07:50 6,2 C 5,0 C 91 % 1005,9 hPa 0,0 l/m 29,0 km/h (5 Bft) S 180 0 min 0,0 UV-I 0 W/m 4,8 C -4,4 C 40,2 km/h (6 Bft)
08.01.2023 07:51 6,2 C 5,0 C 91 % 1005,8 hPa 0,0 l/m 24,1 km/h (4 Bft) S-SW 202 0 min 0,0 UV-I 0 W/m 4,8 C -3,0 C 27,4 km/h (4 Bft)
08.01.2023 07:52 6,2 C 5,0 C 90 % 1005,9 hPa 0,0 l/m 24,1 km/h (4 Bft) S-SW 202 0 min 0,0 UV-I 0 W/m 4,7 C -3,0 C 35,4 km/h (5 Bft)
08.01.2023 07:53 6,2 C 5,0 C 90 % 1005,9 hPa 0,0 l/m 24,1 km/h (4 Bft) S-SW 202 0 min 0,0 UV-I 0 W/m 4,7 C -3,0 C 32,2 km/h (5 Bft)
08.01.2023 07:54 6,2 C 5,0 C 90 % 1005,9 hPa 0,0 l/m 20,9 km/h (4 Bft) S-SW 202 0 min 0,0 UV-I 0 W/m 4,7 C -2,0 C 32,2 km/h (5 Bft)
08.01.2023 07:55 6,2 C 5,0 C 91 % 1005,9 hPa 0,0 l/m 17,7 km/h (3 Bft) S 180 0 min 0,0 UV-I 0 W/m 4,8 C -0,7 C 20,9 km/h (4 Bft)
08.01.2023 07:56 6,2 C 5,0 C 91 % 1005,8 hPa 0,0 l/m 24,1 km/h (4 Bft) S-SW 202 0 min 0,0 UV-I 0 W/m 4,8 C -3,0 C 35,4 km/h (5 Bft)
08.01.2023 07:57 6,2 C 5,0 C 90 % 1005,9 hPa 0,0 l/m 19,3 km/h (3 Bft) S-SW 202 0 min 0,0 UV-I 0 W/m 4,7 C -1,4 C 25,7 km/h (4 Bft)
08.01.2023 07:58 6,2 C 5,0 C 90 % 1005,9 hPa 0,0 l/m 17,7 km/h (3 Bft) S 180 0 min 0,0 UV-I 0 W/m 4,7 C -0,7 C 27,4 km/h (4 Bft)
08.01.2023 07:59 6,1 C 5,0 C 90 % 1005,9 hPa 0,0 l/m 17,7 km/h (3 Bft) S-SW 202 0 min 0,0 UV-I 0 W/m 4,6 C -0,8 C 27,4 km/h (4 Bft)
08.01.2023 08:00 6,2 C 5,0 C 90 % 1005,9 hPa 0,0 l/m 17,7 km/h (3 Bft) S 180 0 min 0,0 UV-I 0 W/m 4,7 C -0,7 C 24,1 km/h (4 Bft)
08.01.2023 08:01 6,1 C 5,0 C 90 % 1005,9 hPa 0,0 l/m 17,7 km/h (3 Bft) S-SW 202 0 min 0,0 UV-I 0 W/m 4,6 C -0,8 C 27,4 km/h (4 Bft)
08.01.2023 08:02 6,2 C 5,0 C 90 % 1005,9 hPa 0,0 l/m 19,3 km/h (3 Bft) S-SW 202 0 min 0,0 UV-I 0 W/m 4,7 C -1,4 C 29,0 km/h (5 Bft)
08.01.2023 08:03 6,2 C 5,0 C 90 % 1005,9 hPa 0,0 l/m 17,7 km/h (3 Bft) S 180 0 min 0,0 UV-I 0 W/m 4,7 C -0,7 C 30,6 km/h (5 Bft)
08.01.2023 08:04 6,1 C 5,0 C 90 % 1005,9 hPa 0,0 l/m 16,1 km/h (3 Bft) S-SW 202 0 min 0,0 UV-I 0 W/m 4,6 C -0,1 C 25,7 km/h (4 Bft)
08.01.2023 08:05 6,1 C 5,0 C 90 % 1005,8 hPa 0,0 l/m 17,7 km/h (3 Bft) S-SW 202 0 min 0,0 UV-I 0 W/m 4,6 C -0,8 C 22,5 km/h (4 Bft)
08.01.2023 08:06 6,1 C 5,0 C 90 % 1005,8 hPa 0,0 l/m 17,7 km/h (3 Bft) S 180 0 min 0,0 UV-I 0 W/m 4,6 C -0,8 C 25,7 km/h (4 Bft)
08.01.2023 08:07 6,1 C 5,0 C 90 % 1005,8 hPa 0,0 l/m 19,3 km/h (3 Bft) S-SW 202 0 min 0,0 UV-I 0 W/m 4,6 C -1,5 C 27,4 km/h (4 Bft)
08.01.2023 08:08 6,1 C 5,0 C 90 % 1005,8 hPa 0,0 l/m 14,5 km/h (3 Bft) S 180 0 min 0,0 UV-I 0 W/m 4,6 C 0,7 C 22,5 km/h (4 Bft)
08.01.2023 08:09 6,1 C 5,0 C 90 % 1005,9 hPa 0,0 l/m 14,5 km/h (3 Bft) S-SW 202 0 min 0,0 UV-I 0 W/m 4,6 C 0,7 C 27,4 km/h (4 Bft)
08.01.2023 08:10 6,1 C 5,0 C 90 % 1005,9 hPa 0,0 l/m 16,1 km/h (3 Bft) S-SW 202 0 min 0,0 UV-I 0 W/m 4,6 C -0,1 C 20,9 km/h (4 Bft)
08.01.2023 08:11 6,1 C 5,0 C 90 % 1005,9 hPa 0,0 l/m 16,1 km/h (3 Bft) S-SW 202 0 min 0,0 UV-I 0 W/m 4,6 C -0,1 C 20,9 km/h (4 Bft)
08.01.2023 08:12 6,1 C 5,0 C 90 % 1005,9 hPa 0,0 l/m 17,7 km/h (3 Bft) S-SW 202 0 min 0,0 UV-I 0 W/m 4,6 C -0,8 C 25,7 km/h (4 Bft)
08.01.2023 08:13 6,1 C 5,0 C 90 % 1005,9 hPa 0,0 l/m 22,5 km/h (4 Bft) S-SW 202 0 min 0,0 UV-I 0 W/m 4,6 C -2,6 C 29,0 km/h (5 Bft)
08.01.2023 08:14 6,1 C 5,0 C 90 % 1005,9 hPa 0,0 l/m 20,9 km/h (4 Bft) S-SW 202 0 min 0,0 UV-I 0 W/m 4,6 C -2,1 C 27,4 km/h (4 Bft)
08.01.2023 08:15 6,1 C 5,0 C 90 % 1005,9 hPa 0,0 l/m 16,1 km/h (3 Bft) S 180 0 min 0,0 UV-I 0 W/m 4,6 C -0,1 C 24,1 km/h (4 Bft)
08.01.2023 08:16 6,1 C 5,0 C 90 % 1006,0 hPa 0,0 l/m 14,5 km/h (3 Bft) S-SW 202 0 min 0,0 UV-I 0 W/m 4,6 C 0,7 C 19,3 km/h (3 Bft)
08.01.2023 08:17 6,1 C 5,0 C 90 % 1005,9 hPa 0,0 l/m 16,1 km/h (3 Bft) S 180 0 min 0,0 UV-I 0 W/m 4,6 C -0,1 C 20,9 km/h (4 Bft)
08.01.2023 08:18 6,1 C 5,0 C 90 % 1005,9 hPa 0,0 l/m 22,5 km/h (4 Bft) S-SW 202 0 min 0,0 UV-I 0 W/m 4,6 C -2,6 C 29,0 km/h (5 Bft)
08.01.2023 08:19 6,1 C 5,0 C 90 % 1005,9 hPa 0,0 l/m 19,3 km/h (3 Bft) S 180 0 min 0,0 UV-I 0 W/m 4,6 C -1,5 C 25,7 km/h (4 Bft)
08.01.2023 08:20 6,1 C 5,0 C 90 % 1005,9 hPa 0,0 l/m 12,9 km/h (3 Bft) S 180 0 min 0,0 UV-I 0 W/m 4,6 C 1,5 C 16,1 km/h (3 Bft)
08.01.2023 08:21 6,1 C 5,0 C 90 % 1005,9 hPa 0,0 l/m 14,5 km/h (3 Bft) S 180 0 min 0,0 UV-I 0 W/m 4,6 C 0,7 C 17,7 km/h (3 Bft)
08.01.2023 08:22 6,1 C 5,0 C 90 % 1005,9 hPa 0,0 l/m 14,5 km/h (3 Bft) S-SW 202 0 min 0,0 UV-I 0 W/m 4,6 C 0,7 C 19,3 km/h (3 Bft)
08.01.2023 08:23 6,0 C 5,0 C 90 % 1006,0 hPa 0,0 l/m 11,3 km/h (2 Bft) S 180 0 min 0,0 UV-I 0 W/m 4,5 C 2,3 C 14,5 km/h (3 Bft)
08.01.2023 08:24 6,0 C 5,0 C 90 % 1005,9 hPa 0,0 l/m 14,5 km/h (3 Bft) S-SW 202 0 min 0,0 UV-I 0 W/m 4,5 C 0,5 C 22,5 km/h (4 Bft)
08.01.2023 08:25 6,0 C 5,0 C 90 % 1005,9 hPa 0,0 l/m 11,3 km/h (2 Bft) S-SW 202 0 min 0,0 UV-I 0 W/m 4,5 C 2,3 C 14,5 km/h (3 Bft)
08.01.2023 08:26 6,0 C 5,0 C 90 % 1005,8 hPa 0,0 l/m 17,7 km/h (3 Bft) S 180 0 min 0,0 UV-I 0 W/m 4,5 C -1,0 C 22,5 km/h (4 Bft)
08.01.2023 08:27 6,0 C 5,0 C 90 % 1005,9 hPa 0,0 l/m 17,7 km/h (3 Bft) S 180 0 min 0,0 UV-I 0 W/m 4,5 C -1,0 C 27,4 km/h (4 Bft)
08.01.2023 08:28 6,0 C 5,0 C 90 % 1005,8 hPa 0,0 l/m 12,9 km/h (3 Bft) S 180 0 min 0,0 UV-I 0 W/m 4,5 C 1,4 C 17,7 km/h (3 Bft)
08.01.2023 08:29 5,9 C 5,0 C 90 % 1005,9 hPa 0,0 l/m 14,5 km/h (3 Bft) S 180 0 min 0,0 UV-I 0 W/m 4,4 C 0,4 C 19,3 km/h (3 Bft)
08.01.2023 08:30 5,9 C 5,0 C 90 % 1005,8 hPa 0,0 l/m 17,7 km/h (3 Bft) S 180 0 min 0,0 UV-I 0 W/m 4,4 C -1,1 C 29,0 km/h (5 Bft)
08.01.2023 08:31 5,9 C 5,0 C 90 % 1005,9 hPa 0,0 l/m 12,9 km/h (3 Bft) S-SW 202 0 min 0,0 UV-I 0 W/m 4,4 C 1,3 C 17,7 km/h (3 Bft)
08.01.2023 08:32 5,9 C 5,0 C 90 % 1005,9 hPa 0,0 l/m 19,3 km/h (3 Bft) S 180 0 min 0,0 UV-I 0 W/m 4,4 C -1,7 C 25,7 km/h (4 Bft)
08.01.2023 08:33 5,9 C 5,0 C 90 % 1005,9 hPa 0,0 l/m 14,5 km/h (3 Bft) S-SW 202 0 min 0,0 UV-I 0 W/m 4,4 C 0,4 C 17,7 km/h (3 Bft)
08.01.2023 08:34 5,9 C 5,0 C 90 % 1005,9 hPa 0,0 l/m 11,3 km/h (2 Bft) S 180 0 min 0,0 UV-I 0 W/m 4,4 C 2,2 C 16,1 km/h (3 Bft)
08.01.2023 08:35 5,9 C 5,0 C 90 % 1005,9 hPa 0,0 l/m 11,3 km/h (2 Bft) S 180 0 min 0,0 UV-I 0 W/m 4,4 C 2,2 C 20,9 km/h (4 Bft)
08.01.2023 08:36 5,9 C 5,0 C 90 % 1005,9 hPa 0,0 l/m 14,5 km/h (3 Bft) S 180 0 min 0,0 UV-I 0 W/m 4,4 C 0,4 C 20,9 km/h (4 Bft)
08.01.2023 08:37 5,9 C 5,0 C 90 % 1005,9 hPa 0,0 l/m 14,5 km/h (3 Bft) S-SW 202 0 min 0,0 UV-I 0 W/m 4,4 C 0,4 C 22,5 km/h (4 Bft)
08.01.2023 08:38 5,9 C 5,0 C 90 % 1005,9 hPa 0,0 l/m 14,5 km/h (3 Bft) S 180 0 min 0,0 UV-I 0 W/m 4,4 C 0,4 C 22,5 km/h (4 Bft)
08.01.2023 08:39 5,9 C 5,0 C 90 % 1005,9 hPa 0,0 l/m 17,7 km/h (3 Bft) S-SW 202 0 min 0,0 UV-I 0 W/m 4,4 C -1,1 C 22,5 km/h (4 Bft)
08.01.2023 08:40 5,9 C 5,0 C 90 % 1005,9 hPa 0,0 l/m 12,9 km/h (3 Bft) S 180 0 min 0,0 UV-I 0 W/m 4,4 C 1,3 C 17,7 km/h (3 Bft)
08.01.2023 08:41 5,9 C 5,0 C 90 % 1005,9 hPa 0,0 l/m 11,3 km/h (2 Bft) S 180 0 min 0,0 UV-I 0 W/m 4,4 C 2,2 C 14,5 km/h (3 Bft)
08.01.2023 08:42 5,9 C 5,0 C 90 % 1005,9 hPa 0,0 l/m 14,5 km/h (3 Bft) S 180 0 min 0,0 UV-I 0 W/m 4,4 C 0,4 C 20,9 km/h (4 Bft)
08.01.2023 08:43 5,9 C 5,0 C 90 % 1005,9 hPa 0,0 l/m 12,9 km/h (3 Bft) S-SW 202 0 min 0,0 UV-I 0 W/m 4,4 C 1,3 C 17,7 km/h (3 Bft)
08.01.2023 08:44 5,9 C 5,0 C 90 % 1006,0 hPa 0,0 l/m 17,7 km/h (3 Bft) S 180 0 min 0,0 UV-I 3 W/m 4,4 C -1,1 C 24,1 km/h (4 Bft)
08.01.2023 08:45 5,9 C 5,0 C 90 % 1006,0 hPa 0,0 l/m 14,5 km/h (3 Bft) S-SW 202 0 min 0,0 UV-I 5 W/m 4,4 C 0,4 C 22,5 km/h (4 Bft)
08.01.2023 08:46 5,9 C 5,0 C 90 % 1006,0 hPa 0,0 l/m 12,9 km/h (3 Bft) S 180 0 min 0,0 UV-I 0 W/m 4,4 C 1,3 C 22,5 km/h (4 Bft)
08.01.2023 08:47 5,9 C 5,0 C 90 % 1005,9 hPa 0,0 l/m 17,7 km/h (3 Bft) S-SW 202 0 min 0,0 UV-I 5 W/m 4,4 C -1,1 C 24,1 km/h (4 Bft)
08.01.2023 08:48 5,9 C 5,0 C 90 % 1006,0 hPa 0,0 l/m 19,3 km/h (3 Bft) S-SW 202 0 min 0,0 UV-I 5 W/m 4,4 C -1,7 C 22,5 km/h (4 Bft)
08.01.2023 08:49 5,8 C 5,0 C 90 % 1006,0 hPa 0,0 l/m 14,5 km/h (3 Bft) S 180 0 min 0,0 UV-I 5 W/m 4,3 C 0,3 C 25,7 km/h (4 Bft)
08.01.2023 08:50 5,9 C 5,0 C 90 % 1006,0 hPa 0,0 l/m 24,1 km/h (4 Bft) S-SW 202 0 min 0,0 UV-I 5 W/m 4,4 C -3,4 C 29,0 km/h (5 Bft)
08.01.2023 08:51 5,9 C 5,0 C 90 % 1006,0 hPa 0,0 l/m 19,3 km/h (3 Bft) S-SW 202 0 min 0,0 UV-I 5 W/m 4,4 C -1,7 C 25,7 km/h (4 Bft)
08.01.2023 08:52 5,9 C 5,0 C 90 % 1006,1 hPa 0,0 l/m 14,5 km/h (3 Bft) S 180 0 min 0,0 UV-I 5 W/m 4,4 C 0,4 C 25,7 km/h (4 Bft)
08.01.2023 08:53 5,9 C 5,0 C 90 % 1006,1 hPa 0,0 l/m 16,1 km/h (3 Bft) S 180 0 min 0,0 UV-I 5 W/m 4,4 C -0,4 C 29,0 km/h (5 Bft)
08.01.2023 08:54 5,9 C 5,0 C 90 % 1006,1 hPa 0,0 l/m 24,1 km/h (4 Bft) S-SW 202 0 min 0,0 UV-I 5 W/m 4,4 C -3,4 C 29,0 km/h (5 Bft)
08.01.2023 08:55 6,0 C 5,0 C 90 % 1006,0 hPa 0,0 l/m 22,5 km/h (4 Bft) S 180 0 min 0,0 UV-I 5 W/m 4,5 C -2,8 C 25,7 km/h (4 Bft)
08.01.2023 08:56 6,0 C 5,0 C 90 % 1006,0 hPa 0,0 l/m 20,9 km/h (4 Bft) S-SW 202 0 min 0,0 UV-I 5 W/m 4,5 C -2,2 C 32,2 km/h (5 Bft)
08.01.2023 08:57 6,0 C 5,0 C 90 % 1006,0 hPa 0,0 l/m 19,3 km/h (3 Bft) S-SW 202 0 min 0,0 UV-I 7 W/m 4,5 C -1,6 C 24,1 km/h (4 Bft)
08.01.2023 08:58 6,0 C 5,0 C 90 % 1006,0 hPa 0,0 l/m 16,1 km/h (3 Bft) S 180 0 min 0,0 UV-I 7 W/m 4,5 C -0,2 C 19,3 km/h (3 Bft)
08.01.2023 08:59 6,0 C 5,0 C 90 % 1006,1 hPa 0,0 l/m 12,9 km/h (3 Bft) S 180 0 min 0,0 UV-I 9 W/m 4,5 C 1,4 C 17,7 km/h (3 Bft)
08.01.2023 09:00 6,0 C 5,0 C 90 % 1006,0 hPa 0,0 l/m 12,9 km/h (3 Bft) S 180 0 min 0,0 UV-I 9 W/m 4,5 C 1,4 C 17,7 km/h (3 Bft)
08.01.2023 09:01 6,0 C 5,0 C 90 % 1006,1 hPa 0,0 l/m 11,3 km/h (2 Bft) S-SW 202 0 min 0,0 UV-I 9 W/m 4,5 C 2,3 C 16,1 km/h (3 Bft)
08.01.2023 09:02 6,0 C 5,0 C 90 % 1006,1 hPa 0,0 l/m 14,5 km/h (3 Bft) S 180 0 min 0,0 UV-I 10 W/m 4,5 C 0,5 C 19,3 km/h (3 Bft)
08.01.2023 09:03 6,0 C 5,0 C 90 % 1006,0 hPa 0,0 l/m 14,5 km/h (3 Bft) S 180 0 min 0,0 UV-I 9 W/m 4,5 C 0,5 C 19,3 km/h (3 Bft)
08.01.2023 09:04 6,0 C 5,0 C 90 % 1006,0 hPa 0,0 l/m 20,9 km/h (4 Bft) S 180 0 min 0,0 UV-I 9 W/m 4,5 C -2,2 C 29,0 km/h (5 Bft)
08.01.2023 09:05 6,1 C 5,0 C 90 % 1005,9 hPa 0,0 l/m 17,7 km/h (3 Bft) S-SW 202 0 min 0,0 UV-I 11 W/m 4,6 C -0,8 C 22,5 km/h (4 Bft)
08.01.2023 09:06 6,0 C 5,0 C 90 % 1005,9 hPa 0,0 l/m 16,1 km/h (3 Bft) S-SW 202 0 min 0,0 UV-I 11 W/m 4,5 C -0,2 C 19,3 km/h (3 Bft)
08.01.2023 09:07 6,0 C 5,0 C 90 % 1006,0 hPa 0,0 l/m 14,5 km/h (3 Bft) S 180 0 min 0,0 UV-I 11 W/m 4,5 C 0,5 C 19,3 km/h (3 Bft)
08.01.2023 09:08 6,0 C 5,0 C 90 % 1006,0 hPa 0,0 l/m 14,5 km/h (3 Bft) S 180 0 min 0,0 UV-I 11 W/m 4,5 C 0,5 C 19,3 km/h (3 Bft)
08.01.2023 09:09 6,0 C 5,0 C 90 % 1006,0 hPa 0,0 l/m 16,1 km/h (3 Bft) S-SW 202 0 min 0,0 UV-I 11 W/m 4,5 C -0,2 C 19,3 km/h (3 Bft)
08.01.2023 09:10 5,9 C 5,0 C 90 % 1005,9 hPa 0,0 l/m 17,7 km/h (3 Bft) S-SW 202 0 min 0,0 UV-I 12 W/m 4,4 C -1,1 C 24,1 km/h (4 Bft)
08.01.2023 09:11 5,9 C 5,0 C 90 % 1005,9 hPa 0,0 l/m 19,3 km/h (3 Bft) S 180 0 min 0,0 UV-I 11 W/m 4,4 C -1,7 C 30,6 km/h (5 Bft)
08.01.2023 09:12 5,9 C 5,0 C 90 % 1006,0 hPa 0,0 l/m 12,9 km/h (3 Bft) S 180 0 min 0,0 UV-I 11 W/m 4,4 C 1,3 C 19,3 km/h (3 Bft)
08.01.2023 09:13 5,9 C 5,0 C 90 % 1005,9 hPa 0,0 l/m 14,5 km/h (3 Bft) S-SW 202 0 min 0,0 UV-I 11 W/m 4,4 C 0,4 C 19,3 km/h (3 Bft)
08.01.2023 09:14 5,9 C 5,0 C 90 % 1005,9 hPa 0,0 l/m 12,9 km/h (3 Bft) S-SW 202 0 min 0,0 UV-I 11 W/m 4,4 C 1,3 C 22,5 km/h (4 Bft)
08.01.2023 09:15 5,9 C 5,0 C 90 % 1005,8 hPa 0,0 l/m 12,9 km/h (3 Bft) S 180 0 min 0,0 UV-I 11 W/m 4,4 C 1,3 C 17,7 km/h (3 Bft)
08.01.2023 09:16 5,9 C 5,0 C 90 % 1005,9 hPa 0,0 l/m 14,5 km/h (3 Bft) S 180 0 min 0,0 UV-I 9 W/m 4,4 C 0,4 C 20,9 km/h (4 Bft)
08.01.2023 09:17 5,9 C 5,0 C 90 % 1005,9 hPa 0,0 l/m 16,1 km/h (3 Bft) S 180 0 min 0,0 UV-I 9 W/m 4,4 C -0,4 C 27,4 km/h (4 Bft)
08.01.2023 09:18 5,9 C 5,0 C 90 % 1006,0 hPa 0,0 l/m 12,9 km/h (3 Bft) S 180 0 min 0,0 UV-I 9 W/m 4,4 C 1,3 C 17,7 km/h (3 Bft)
08.01.2023 09:19 5,9 C 5,0 C 90 % 1006,0 hPa 0,0 l/m 12,9 km/h (3 Bft) S-SW 202 0 min 0,0 UV-I 9 W/m 4,4 C 1,3 C 16,1 km/h (3 Bft)
08.01.2023 09:20 5,9 C 5,0 C 90 % 1005,9 hPa 0,0 l/m 9,7 km/h (2 Bft) S 180 0 min 0,0 UV-I 11 W/m 4,4 C 3,3 C 12,9 km/h (3 Bft)
08.01.2023 09:21 5,9 C 5,0 C 90 % 1005,9 hPa 0,0 l/m 12,9 km/h (3 Bft) S 180 0 min 0,0 UV-I 11 W/m 4,4 C 1,3 C 19,3 km/h (3 Bft)
08.01.2023 09:22 5,9 C 5,0 C 90 % 1005,9 hPa 0,0 l/m 11,3 km/h (2 Bft) S-SO 157 0 min 0,0 UV-I 11 W/m 4,4 C 2,2 C 17,7 km/h (3 Bft)
08.01.2023 09:23 5,9 C 5,0 C 90 % 1005,8 hPa 0,0 l/m 16,1 km/h (3 Bft) S 180 0 min 0,0 UV-I 11 W/m 4,4 C -0,4 C 22,5 km/h (4 Bft)
08.01.2023 09:24 5,9 C 5,0 C 90 % 1005,8 hPa 0,0 l/m 11,3 km/h (2 Bft) S 180 0 min 0,0 UV-I 12 W/m 4,4 C 2,2 C 27,4 km/h (4 Bft)
08.01.2023 09:25 5,9 C 5,0 C 90 % 1005,8 hPa 0,0 l/m 9,7 km/h (2 Bft) S 180 0 min 0,0 UV-I 12 W/m 4,4 C 3,3 C 16,1 km/h (3 Bft)
08.01.2023 09:26 5,9 C 5,0 C 90 % 1005,8 hPa 0,0 l/m 14,5 km/h (3 Bft) S 180 0 min 0,0 UV-I 12 W/m 4,4 C 0,4 C 17,7 km/h (3 Bft)
08.01.2023 09:27 5,9 C 5,0 C 90 % 1005,8 hPa 0,0 l/m 14,5 km/h (3 Bft) S 180 0 min 0,0 UV-I 12 W/m 4,4 C 0,4 C 19,3 km/h (3 Bft)
08.01.2023 09:28 5,9 C 5,0 C 90 % 1005,8 hPa 0,0 l/m 12,9 km/h (3 Bft) S 180 0 min 0,0 UV-I 14 W/m 4,4 C 1,3 C 17,7 km/h (3 Bft)
08.01.2023 09:29 5,8 C 5,0 C 90 % 1005,8 hPa 0,0 l/m 16,1 km/h (3 Bft) S 180 0 min 0,0 UV-I 14 W/m 4,3 C -0,5 C 19,3 km/h (3 Bft)
08.01.2023 09:30 5,8 C 5,0 C 90 % 1005,9 hPa 0,0 l/m 16,1 km/h (3 Bft) S 180 0 min 0,0 UV-I 14 W/m 4,3 C -0,5 C 20,9 km/h (4 Bft)
08.01.2023 09:31 5,8 C 5,0 C 90 % 1005,8 hPa 0,0 l/m 16,1 km/h (3 Bft) S 180 0 min 0,0 UV-I 14 W/m 4,3 C -0,5 C 27,4 km/h (4 Bft)
08.01.2023 09:32 5,8 C 5,0 C 90 % 1005,8 hPa 0,0 l/m 12,9 km/h (3 Bft) S-SW 202 0 min 0,0 UV-I 14 W/m 4,3 C 1,2 C 17,7 km/h (3 Bft)
08.01.2023 09:33 5,8 C 5,0 C 90 % 1005,8 hPa 0,0 l/m 11,3 km/h (2 Bft) S 180 0 min 0,0 UV-I 14 W/m 4,3 C 2,1 C 16,1 km/h (3 Bft)
08.01.2023 09:34 5,8 C 5,0 C 90 % 1005,8 hPa 0,0 l/m 12,9 km/h (3 Bft) S 180 0 min 0,0 UV-I 14 W/m 4,3 C 1,2 C 17,7 km/h (3 Bft)
08.01.2023 09:35 5,7 C 5,0 C 90 % 1005,8 hPa 0,0 l/m 11,3 km/h (2 Bft) S 180 0 min 0,0 UV-I 16 W/m 4,2 C 2,0 C 17,7 km/h (3 Bft)
08.01.2023 09:36 5,8 C 5,0 C 90 % 1005,8 hPa 0,0 l/m 12,9 km/h (3 Bft) S 180 0 min 0,0 UV-I 16 W/m 4,3 C 1,2 C 19,3 km/h (3 Bft)
08.01.2023 09:37 5,8 C 5,0 C 90 % 1005,8 hPa 0,0 l/m 14,5 km/h (3 Bft) S 180 0 min 0,0 UV-I 16 W/m 4,3 C 0,3 C 17,7 km/h (3 Bft)
08.01.2023 09:38 5,7 C 5,0 C 90 % 1005,8 hPa 0,0 l/m 11,3 km/h (2 Bft) S 180 0 min 0,0 UV-I 16 W/m 4,2 C 2,0 C 14,5 km/h (3 Bft)
08.01.2023 09:39 5,7 C 5,0 C 90 % 1005,8 hPa 0,0 l/m 14,5 km/h (3 Bft) S 180 0 min 0,0 UV-I 16 W/m 4,2 C 0,2 C 19,3 km/h (3 Bft)
08.01.2023 09:40 5,7 C 5,0 C 90 % 1005,9 hPa 0,0 l/m 12,9 km/h (3 Bft) S 180 0 min 0,0 UV-I 18 W/m 4,2 C 1,0 C 19,3 km/h (3 Bft)
08.01.2023 09:41 5,7 C 5,0 C 90 % 1005,7 hPa 0,0 l/m 9,7 km/h (2 Bft) S 180 0 min 0,0 UV-I 18 W/m 4,2 C 3,1 C 16,1 km/h (3 Bft)
08.01.2023 09:42 5,7 C 5,0 C 90 % 1005,7 hPa 0,0 l/m 14,5 km/h (3 Bft) S 180 0 min 0,0 UV-I 19 W/m 4,2 C 0,2 C 20,9 km/h (4 Bft)
08.01.2023 09:43 5,7 C 5,0 C 90 % 1005,8 hPa 0,0 l/m 12,9 km/h (3 Bft) S-SO 157 0 min 0,0 UV-I 27 W/m 4,2 C 1,0 C 19,3 km/h (3 Bft)
08.01.2023 09:44 5,7 C 5,0 C 90 % 1005,8 hPa 0,0 l/m 9,7 km/h (2 Bft) S 180 0 min 0,0 UV-I 28 W/m 4,2 C 3,1 C 17,7 km/h (3 Bft)
08.01.2023 09:45 5,7 C 5,0 C 90 % 1005,7 hPa 0,0 l/m 16,1 km/h (3 Bft) S 180 0 min 0,0 UV-I 26 W/m 4,2 C -0,6 C 20,9 km/h (4 Bft)
08.01.2023 09:46 5,7 C 5,0 C 90 % 1005,7 hPa 0,0 l/m 12,9 km/h (3 Bft) S 180 0 min 0,0 UV-I 26 W/m 4,2 C 1,0 C 19,3 km/h (3 Bft)
08.01.2023 09:47 5,7 C 5,0 C 90 % 1005,6 hPa 0,0 l/m 12,9 km/h (3 Bft) S 180 0 min 0,0 UV-I 25 W/m 4,2 C 1,0 C 22,5 km/h (4 Bft)
08.01.2023 09:48 5,7 C 5,0 C 90 % 1005,7 hPa 0,0 l/m 8,0 km/h (2 Bft) S 180 0 min 0,0 UV-I 28 W/m 4,2 C 4,3 C 12,9 km/h (3 Bft)
08.01.2023 09:49 5,7 C 5,0 C 90 % 1005,6 hPa 0,0 l/m 12,9 km/h (3 Bft) S 180 0 min 0,0 UV-I 28 W/m 4,2 C 1,0 C 14,5 km/h (3 Bft)
08.01.2023 09:50 5,7 C 5,0 C 90 % 1005,6 hPa 0,0 l/m 14,5 km/h (3 Bft) S-SO 157 0 min 0,0 UV-I 28 W/m 4,2 C 0,2 C 22,5 km/h (4 Bft)
08.01.2023 09:51 5,7 C 5,0 C 90 % 1005,7 hPa 0,0 l/m 8,0 km/h (2 Bft) S 180 0 min 0,0 UV-I 35 W/m 4,2 C 4,3 C 12,9 km/h (3 Bft)
08.01.2023 09:52 5,7 C 5,0 C 90 % 1005,6 hPa 0,0 l/m 12,9 km/h (3 Bft) S 180 0 min 0,0 UV-I 44 W/m 4,2 C 1,0 C 20,9 km/h (4 Bft)
08.01.2023 09:53 5,7 C 5,0 C 90 % 1005,6 hPa 0,0 l/m 9,7 km/h (2 Bft) S 180 0 min 0,0 UV-I 51 W/m 4,2 C 3,1 C 16,1 km/h (3 Bft)
08.01.2023 09:54 5,7 C 5,0 C 90 % 1005,6 hPa 0,0 l/m 11,3 km/h (2 Bft) S 180 0 min 0,0 UV-I 49 W/m 4,2 C 2,0 C 19,3 km/h (3 Bft)
08.01.2023 09:55 5,8 C 5,0 C 90 % 1005,7 hPa 0,0 l/m 9,7 km/h (2 Bft) S 180 0 min 0,0 UV-I 42 W/m 4,3 C 3,2 C 14,5 km/h (3 Bft)
08.01.2023 09:56 5,8 C 5,0 C 90 % 1005,7 hPa 0,0 l/m 12,9 km/h (3 Bft) S 180 0 min 0,0 UV-I 46 W/m 4,3 C 1,2 C 19,3 km/h (3 Bft)
08.01.2023 09:57 5,8 C 5,6 C 90 % 1005,7 hPa 0,0 l/m 14,5 km/h (3 Bft) S 180 0 min 0,0 UV-I 56 W/m 4,3 C 0,3 C 20,9 km/h (4 Bft)
08.01.2023 09:58 5,8 C 5,6 C 90 % 1005,7 hPa 0,0 l/m 17,7 km/h (3 Bft) S-SO 157 0 min 0,0 UV-I 60 W/m 4,3 C -1,2 C 25,7 km/h (4 Bft)
08.01.2023 09:59 5,8 C 5,6 C 90 % 1005,7 hPa 0,0 l/m 12,9 km/h (3 Bft) S 180 0 min 0,0 UV-I 53 W/m 4,3 C 1,2 C 20,9 km/h (4 Bft)
08.01.2023 10:00 5,8 C 5,6 C 90 % 1005,7 hPa 0,0 l/m 14,5 km/h (3 Bft) S 180 0 min 0,0 UV-I 38 W/m 4,3 C 0,3 C 24,1 km/h (4 Bft)
08.01.2023 10:01 5,8 C 5,6 C 90 % 1005,7 hPa 0,0 l/m 19,3 km/h (3 Bft) S 180 0 min 0,0 UV-I 28 W/m 4,3 C -1,9 C 27,4 km/h (4 Bft)
08.01.2023 10:02 5,9 C 5,6 C 90 % 1005,6 hPa 0,0 l/m 11,3 km/h (2 Bft) S 180 0 min 0,0 UV-I 23 W/m 4,4 C 2,2 C 16,1 km/h (3 Bft)
08.01.2023 10:03 5,9 C 5,6 C 90 % 1005,5 hPa 0,0 l/m 14,5 km/h (3 Bft) S 180 0 min 0,0 UV-I 18 W/m 4,4 C 0,4 C 24,1 km/h (4 Bft)
08.01.2023 10:04 5,9 C 5,6 C 90 % 1005,6 hPa 0,0 l/m 14,5 km/h (3 Bft) S 180 0 min 0,0 UV-I 18 W/m 4,4 C 0,4 C 22,5 km/h (4 Bft)
08.01.2023 10:05 5,9 C 5,6 C 90 % 1005,5 hPa 0,0 l/m 12,9 km/h (3 Bft) S 180 0 min 0,0 UV-I 25 W/m 4,4 C 1,3 C 19,3 km/h (3 Bft)
08.01.2023 10:06 5,9 C 5,6 C 90 % 1005,5 hPa 0,0 l/m 16,1 km/h (3 Bft) S 180 0 min 0,0 UV-I 40 W/m 4,4 C -0,4 C 22,5 km/h (4 Bft)
08.01.2023 10:07 5,9 C 5,6 C 89 % 1005,5 hPa 0,0 l/m 19,3 km/h (3 Bft) S-SO 157 0 min 0,0 UV-I 42 W/m 4,2 C -1,7 C 24,1 km/h (4 Bft)
08.01.2023 10:08 5,9 C 5,6 C 89 % 1005,4 hPa 0,0 l/m 12,9 km/h (3 Bft) S 180 0 min 0,0 UV-I 49 W/m 4,2 C 1,3 C 17,7 km/h (3 Bft)
08.01.2023 10:09 5,9 C 5,6 C 89 % 1005,4 hPa 0,0 l/m 11,3 km/h (2 Bft) S 180 0 min 0,0 UV-I 58 W/m 4,2 C 2,2 C 16,1 km/h (3 Bft)
08.01.2023 10:10 5,9 C 5,6 C 89 % 1005,4 hPa 0,0 l/m 9,7 km/h (2 Bft) S 180 0 min 0,0 UV-I 72 W/m 4,2 C 3,3 C 14,5 km/h (3 Bft)
08.01.2023 10:11 6,0 C 5,6 C 89 % 1005,4 hPa 0,0 l/m 11,3 km/h (2 Bft) S 180 0 min 0,0 UV-I 79 W/m 4,3 C 2,3 C 14,5 km/h (3 Bft)
08.01.2023 10:12 6,0 C 5,6 C 90 % 1005,4 hPa 0,0 l/m 11,3 km/h (2 Bft) S 180 0 min 0,0 UV-I 66 W/m 4,5 C 2,3 C 22,5 km/h (4 Bft)
08.01.2023 10:13 6,1 C 5,6 C 90 % 1005,2 hPa 0,0 l/m 11,3 km/h (2 Bft) S 180 0 min 0,0 UV-I 58 W/m 4,6 C 2,4 C 20,9 km/h (4 Bft)
08.01.2023 10:14 6,0 C 5,6 C 90 % 1005,2 hPa 0,0 l/m 14,5 km/h (3 Bft) S 180 0 min 0,0 UV-I 53 W/m 4,5 C 0,5 C 24,1 km/h (4 Bft)
08.01.2023 10:15 6,1 C 5,6 C 90 % 1005,2 hPa 0,0 l/m 12,9 km/h (3 Bft) S 180 0 min 0,0 UV-I 47 W/m 4,6 C 1,5 C 20,9 km/h (4 Bft)
08.01.2023 10:16 6,1 C 5,6 C 90 % 1005,2 hPa 0,0 l/m 17,7 km/h (3 Bft) S 180 0 min 0,0 UV-I 42 W/m 4,6 C -0,8 C 30,6 km/h (5 Bft)
08.01.2023 10:17 6,1 C 5,6 C 90 % 1005,2 hPa 0,0 l/m 12,9 km/h (3 Bft) S 180 0 min 0,0 UV-I 33 W/m 4,6 C 1,5 C 17,7 km/h (3 Bft)
08.01.2023 10:18 6,1 C 5,6 C 89 % 1005,4 hPa 0,0 l/m 14,5 km/h (3 Bft) S 180 0 min 0,0 UV-I 26 W/m 4,4 C 0,7 C 20,9 km/h (4 Bft)
08.01.2023 10:19 6,1 C 5,6 C 89 % 1005,3 hPa 0,0 l/m 12,9 km/h (3 Bft) S 180 0 min 0,0 UV-I 28 W/m 4,4 C 1,5 C 22,5 km/h (4 Bft)
08.01.2023 10:20 6,1 C 5,6 C 89 % 1005,2 hPa 0,0 l/m 12,9 km/h (3 Bft) S-SW 202 0 min 0,0 UV-I 30 W/m 4,4 C 1,5 C 17,7 km/h (3 Bft)
08.01.2023 10:21 6,1 C 5,6 C 89 % 1005,2 hPa 0,0 l/m 14,5 km/h (3 Bft) S 180 0 min 0,0 UV-I 35 W/m 4,4 C 0,7 C 20,9 km/h (4 Bft)
08.01.2023 10:22 6,1 C 5,6 C 89 % 1005,2 hPa 0,0 l/m 11,3 km/h (2 Bft) S-SO 157 0 min 0,0 UV-I 39 W/m 4,4 C 2,4 C 22,5 km/h (4 Bft)
08.01.2023 10:23 6,1 C 5,6 C 89 % 1005,2 hPa 0,0 l/m 17,7 km/h (3 Bft) S 180 0 min 0,0 UV-I 44 W/m 4,4 C -0,8 C 24,1 km/h (4 Bft)
08.01.2023 10:24 6,1 C 5,6 C 89 % 1005,2 hPa 0,0 l/m 20,9 km/h (4 Bft) S 180 0 min 0,0 UV-I 54 W/m 4,4 C -2,1 C 27,4 km/h (4 Bft)
08.01.2023 10:25 6,1 C 5,6 C 89 % 1005,2 hPa 0,0 l/m 12,9 km/h (3 Bft) S-SO 157 0 min 0,0 UV-I 98 W/m 4,4 C 1,5 C 19,3 km/h (3 Bft)
08.01.2023 10:26 6,2 C 6,1 C 89 % 1005,2 hPa 0,0 l/m 12,9 km/h (3 Bft) S-SO 157 0 min 0,0 UV-I 137 W/m 4,5 C 1,6 C 24,1 km/h (4 Bft)
08.01.2023 10:27 6,2 C 6,1 C 89 % 1005,1 hPa 0,0 l/m 14,5 km/h (3 Bft) S 180 0 min 0,0 UV-I 130 W/m 4,5 C 0,8 C 19,3 km/h (3 Bft)
08.01.2023 10:28 6,2 C 6,7 C 89 % 1005,2 hPa 0,0 l/m 24,1 km/h (4 Bft) S 180 0 min 0,0 UV-I 132 W/m 4,5 C -3,0 C 32,2 km/h (5 Bft)
08.01.2023 10:29 6,3 C 6,1 C 89 % 1005,2 hPa 0,0 l/m 16,1 km/h (3 Bft) S 180 0 min 0,0 UV-I 63 W/m 4,6 C 0,1 C 22,5 km/h (4 Bft)
08.01.2023 10:30 6,3 C 6,1 C 89 % 1005,3 hPa 0,0 l/m 16,1 km/h (3 Bft) S-SO 157 0 min 0,0 UV-I 73 W/m 4,6 C 0,1 C 24,1 km/h (4 Bft)
08.01.2023 10:31 6,3 C 6,1 C 89 % 1005,2 hPa 0,0 l/m 19,3 km/h (3 Bft) S 180 0 min 0,0 UV-I 84 W/m 4,6 C -1,2 C 24,1 km/h (4 Bft)
08.01.2023 10:32 6,3 C 6,1 C 89 % 1005,2 hPa 0,0 l/m 16,1 km/h (3 Bft) S 180 0 min 0,0 UV-I 74 W/m 4,6 C 0,1 C 19,3 km/h (3 Bft)
08.01.2023 10:33 6,3 C 6,1 C 89 % 1005,4 hPa 0,0 l/m 20,9 km/h (4 Bft) S-SO 157 0 min 0,0 UV-I 98 W/m 4,6 C -1,8 C 33,8 km/h (5 Bft)
08.01.2023 10:34 6,3 C 6,1 C 89 % 1005,2 hPa 0,0 l/m 12,9 km/h (3 Bft) S-SO 157 0 min 0,0 UV-I 111 W/m 4,6 C 1,7 C 19,3 km/h (3 Bft)
08.01.2023 10:35 6,4 C 6,1 C 89 % 1005,1 hPa 0,0 l/m 19,3 km/h (3 Bft) S 180 0 min 0,0 UV-I 97 W/m 4,7 C -1,1 C 24,1 km/h (4 Bft)
08.01.2023 10:36 6,4 C 6,1 C 89 % 1005,2 hPa 0,0 l/m 16,1 km/h (3 Bft) S 180 0 min 0,0 UV-I 88 W/m 4,7 C 0,3 C 27,4 km/h (4 Bft)
08.01.2023 10:37 6,4 C 6,1 C 89 % 1005,4 hPa 0,0 l/m 16,1 km/h (3 Bft) S 180 0 min 0,0 UV-I 77 W/m 4,7 C 0,3 C 27,4 km/h (4 Bft)
08.01.2023 10:42 6,4 C 6,1 C 88 % 1005,2 hPa 0,0 l/m 20,4 km/h (4 Bft) S-SW 209 0 min 0,2 UV-I 81 W/m 4,6 C -1,5 C 35,4 km/h (5 Bft)
08.01.2023 10:45 6,4 C 5,6 C 88 % 1005,1 hPa 0,0 l/m 17,6 km/h (3 Bft) S 182 0 min 0,0 UV-I 48 W/m 4,6 C -0,4 C 33,8 km/h (5 Bft)
08.01.2023 10:48 6,3 C 5,6 C 88 % 1005,1 hPa 0,0 l/m 23,6 km/h (4 Bft) S 181 0 min 0,0 UV-I 54 W/m 4,5 C -2,7 C 33,8 km/h (5 Bft)
08.01.2023 10:51 6,3 C 5,6 C 88 % 1005,1 hPa 0,0 l/m 16,9 km/h (3 Bft) S 180 0 min 0,0 UV-I 64 W/m 4,5 C -0,2 C 27,4 km/h (4 Bft)
08.01.2023 10:54 6,4 C 6,1 C 88 % 1004,9 hPa 0,0 l/m 15,6 km/h (3 Bft) S-SO 162 0 min 0,3 UV-I 89 W/m 4,6 C 0,5 C 25,7 km/h (4 Bft)
08.01.2023 10:57 6,3 C 5,6 C 88 % 1005,0 hPa 0,0 l/m 18,2 km/h (3 Bft) S 183 0 min 0,4 UV-I 62 W/m 4,5 C -0,8 C 29,0 km/h (5 Bft)
08.01.2023 11:00 6,3 C 5,6 C 88 % 1005,0 hPa 0,0 l/m 17,5 km/h (3 Bft) S 184 0 min 0,0 UV-I 50 W/m 4,5 C -0,5 C 29,0 km/h (5 Bft)
08.01.2023 11:03 6,4 C 6,1 C 88 % 1005,0 hPa 0,0 l/m 14,0 km/h (3 Bft) S 191 0 min 0,0 UV-I 63 W/m 4,6 C 1,3 C 22,5 km/h (4 Bft)
08.01.2023 11:06 6,4 C 6,1 C 88 % 1005,0 hPa 0,0 l/m 13,9 km/h (3 Bft) S-SO 150 0 min 0,0 UV-I 69 W/m 4,6 C 1,3 C 27,4 km/h (4 Bft)
08.01.2023 11:09 6,4 C 6,1 C 89 % 1005,0 hPa 0,0 l/m 18,0 km/h (3 Bft) S 187 0 min 0,0 UV-I 79 W/m 4,7 C -0,6 C 38,6 km/h (5 Bft)
08.01.2023 11:12 6,5 C 6,1 C 89 % 1004,9 hPa 0,0 l/m 18,0 km/h (3 Bft) S 181 0 min 0,0 UV-I 64 W/m 4,8 C -0,4 C 27,4 km/h (4 Bft)
08.01.2023 11:15 6,5 C 6,1 C 88 % 1004,9 hPa 0,0 l/m 19,7 km/h (3 Bft) SO 133 0 min 0,1 UV-I 67 W/m 4,7 C -1,1 C 32,2 km/h (5 Bft)
08.01.2023 11:18 6,5 C 6,1 C 88 % 1004,9 hPa 0,0 l/m 16,1 km/h (3 Bft) S 180 0 min 0,2 UV-I 76 W/m 4,7 C 0,4 C 25,7 km/h (4 Bft)
08.01.2023 11:21 6,6 C 6,1 C 88 % 1004,7 hPa 0,0 l/m 18,5 km/h (3 Bft) S 173 0 min 0,0 UV-I 62 W/m 4,8 C -0,5 C 30,6 km/h (5 Bft)
08.01.2023 11:24 6,5 C 6,1 C 88 % 1004,8 hPa 0,0 l/m 21,5 km/h (4 Bft) S-SW 196 0 min 0,0 UV-I 67 W/m 4,7 C -1,8 C 54,7 km/h (7 Bft)
08.01.2023 11:27 6,6 C 6,1 C 88 % 1004,8 hPa 0,0 l/m 19,7 km/h (3 Bft) S 171 0 min 0,0 UV-I 59 W/m 4,8 C -1,0 C 32,2 km/h (5 Bft)
08.01.2023 11:30 6,6 C 6,1 C 88 % 1004,7 hPa 0,0 l/m 23,2 km/h (4 Bft) S-SW 198 0 min 0,0 UV-I 60 W/m 4,8 C -2,2 C 41,8 km/h (6 Bft)
08.01.2023 11:33 6,6 C 6,1 C 88 % 1004,5 hPa 0,0 l/m 18,0 km/h (3 Bft) S-SW 196 0 min 0,0 UV-I 85 W/m 4,8 C -0,3 C 30,6 km/h (5 Bft)
08.01.2023 11:36 6,7 C 6,1 C 88 % 1004,5 hPa 0,0 l/m 18,2 km/h (3 Bft) S 184 0 min 0,0 UV-I 89 W/m 4,9 C -0,3 C 27,4 km/h (4 Bft)
08.01.2023 11:39 6,7 C 6,1 C 88 % 1004,5 hPa 0,0 l/m 20,3 km/h (4 Bft) S-SW 195 0 min 0,1 UV-I 94 W/m 4,9 C -1,1 C 33,8 km/h (5 Bft)
08.01.2023 11:42 6,7 C 6,1 C 87 % 1004,5 hPa 0,0 l/m 24,4 km/h (4 Bft) S 180 0 min 0,5 UV-I 97 W/m 4,7 C -2,5 C 38,6 km/h (5 Bft)
08.01.2023 11:45 6,7 C 6,1 C 87 % 1004,5 hPa 0,0 l/m 21,7 km/h (4 Bft) S-SO 148 0 min 0,5 UV-I 91 W/m 4,7 C -1,6 C 40,2 km/h (6 Bft)
08.01.2023 11:48 6,8 C 6,1 C 87 % 1004,5 hPa 0,0 l/m 17,6 km/h (3 Bft) SO 137 0 min 0,0 UV-I 69 W/m 4,8 C 0,1 C 25,7 km/h (4 Bft)
08.01.2023 11:51 6,8 C 6,1 C 87 % 1004,5 hPa 0,0 l/m 14,7 km/h (3 Bft) S-SO 157 0 min 0,0 UV-I 71 W/m 4,8 C 1,4 C 25,7 km/h (4 Bft)
08.01.2023 11:54 6,6 C 6,1 C 88 % 1004,3 hPa 0,0 l/m 16,5 km/h (3 Bft) S-SO 155 0 min 0,0 UV-I 80 W/m 4,8 C 0,3 C 25,7 km/h (4 Bft)
08.01.2023 11:57 6,6 C 6,1 C 88 % 1004,2 hPa 0,0 l/m 20,5 km/h (4 Bft) S-SO 161 0 min 0,3 UV-I 117 W/m 4,8 C -1,3 C 35,4 km/h (5 Bft)
08.01.2023 12:00 6,6 C 6,1 C 88 % 1004,2 hPa 0,0 l/m 21,0 km/h (4 Bft) S-SW 197 0 min 0,6 UV-I 100 W/m 4,8 C -1,5 C 43,5 km/h (6 Bft)
08.01.2023 12:03 6,5 C 5,6 C 88 % 1004,2 hPa 0,0 l/m 18,8 km/h (3 Bft) S 190 0 min 0,7 UV-I 71 W/m 4,7 C -0,8 C 38,6 km/h (5 Bft)
08.01.2023 12:06 6,5 C 6,1 C 88 % 1004,2 hPa 0,0 l/m 20,0 km/h (4 Bft) S-SW 193 0 min 0,7 UV-I 113 W/m 4,7 C -1,2 C 38,6 km/h (5 Bft)
08.01.2023 12:09 6,6 C 6,7 C 88 % 1004,2 hPa 0,0 l/m 21,7 km/h (4 Bft) S 169 0 min 0,8 UV-I 158 W/m 4,8 C -1,7 C 37,0 km/h (5 Bft)
08.01.2023 12:12 6,9 C 8,9 C 88 % 1004,1 hPa 0,0 l/m 20,5 km/h (4 Bft) S 186 3 min 0,9 UV-I 283 W/m 5,1 C -0,9 C 40,2 km/h (6 Bft)
08.01.2023 12:15 7,0 C 7,8 C 87 % 1004,2 hPa 0,0 l/m 21,2 km/h (4 Bft) SW 225 0 min 0,6 UV-I 231 W/m 5,0 C -1,0 C 38,6 km/h (5 Bft)
08.01.2023 12:18 7,0 C 7,2 C 86 % 1004,1 hPa 0,0 l/m 20,0 km/h (4 Bft) S 184 0 min 0,6 UV-I 131 W/m 4,8 C -0,6 C 43,5 km/h (6 Bft)
08.01.2023 12:21 6,9 C 6,7 C 86 % 1004,1 hPa 0,0 l/m 19,3 km/h (3 Bft) SO 137 0 min 0,7 UV-I 128 W/m 4,7 C -0,5 C 32,2 km/h (5 Bft)
08.01.2023 12:24 6,8 C 6,7 C 86 % 1004,0 hPa 0,0 l/m 16,2 km/h (3 Bft) S 178 0 min 0,5 UV-I 88 W/m 4,6 C 0,7 C 25,7 km/h (4 Bft)
08.01.2023 12:27 6,7 C 6,1 C 86 % 1004,1 hPa 0,0 l/m 20,1 km/h (4 Bft) S-SW 194 0 min 0,0 UV-I 60 W/m 4,5 C -1,0 C 32,2 km/h (5 Bft)
08.01.2023 12:30 6,7 C 6,1 C 86 % 1004,0 hPa 0,0 l/m 21,2 km/h (4 Bft) S 184 0 min 0,3 UV-I 99 W/m 4,5 C -1,4 C 40,2 km/h (6 Bft)
08.01.2023 12:33 6,6 C 6,1 C 86 % 1004,2 hPa 0,0 l/m 22,9 km/h (4 Bft) S 186 0 min 0,5 UV-I 109 W/m 4,4 C -2,1 C 45,1 km/h (6 Bft)
08.01.2023 12:36 6,6 C 6,1 C 86 % 1004,0 hPa 0,0 l/m 23,3 km/h (4 Bft) S 169 0 min 0,3 UV-I 99 W/m 4,4 C -2,2 C 40,2 km/h (6 Bft)
08.01.2023 12:39 6,7 C 7,2 C 86 % 1004,0 hPa 0,0 l/m 22,8 km/h (4 Bft) S 190 0 min 0,4 UV-I 169 W/m 4,5 C -2,0 C 35,4 km/h (5 Bft)
08.01.2023 12:42 6,8 C 7,8 C 86 % 1003,9 hPa 0,0 l/m 22,6 km/h (4 Bft) SW 221 0 min 0,8 UV-I 214 W/m 4,6 C -1,8 C 37,0 km/h (5 Bft)
08.01.2023 12:45 6,8 C 7,2 C 85 % 1003,9 hPa 0,0 l/m 26,2 km/h (4 Bft) S 177 0 min 0,7 UV-I 128 W/m 4,5 C -2,9 C 38,6 km/h (5 Bft)
08.01.2023 12:48 6,8 C 6,7 C 86 % 1003,9 hPa 0,0 l/m 20,7 km/h (4 Bft) S-SW 198 0 min 0,7 UV-I 124 W/m 4,6 C -1,1 C 37,0 km/h (5 Bft)
08.01.2023 12:51 6,8 C 6,7 C 85 % 1004,1 hPa 0,0 l/m 22,2 km/h (4 Bft) S 184 0 min 0,7 UV-I 131 W/m 4,5 C -1,6 C 35,4 km/h (5 Bft)
08.01.2023 12:54 6,8 C 6,7 C 85 % 1003,9 hPa 0,0 l/m 23,2 km/h (4 Bft) S 177 0 min 0,7 UV-I 100 W/m 4,5 C -1,9 C 41,8 km/h (6 Bft)
08.01.2023 12:57 6,7 C 6,7 C 85 % 1003,9 hPa 0,0 l/m 18,8 km/h (3 Bft) S 184 0 min 0,6 UV-I 88 W/m 4,4 C -0,5 C 25,7 km/h (4 Bft)
08.01.2023 13:00 6,7 C 6,1 C 86 % 1003,9 hPa 0,0 l/m 17,2 km/h (3 Bft) S 177 0 min 0,6 UV-I 102 W/m 4,5 C 0,1 C 30,6 km/h (5 Bft)
08.01.2023 13:03 6,7 C 6,7 C 86 % 1003,8 hPa 0,0 l/m 21,7 km/h (4 Bft) S-SW 197 0 min 0,7 UV-I 173 W/m 4,5 C -1,6 C 35,4 km/h (5 Bft)
08.01.2023 13:06 6,8 C 7,2 C 86 % 1003,8 hPa 0,0 l/m 20,4 km/h (4 Bft) S 182 0 min 0,7 UV-I 187 W/m 4,6 C -1,0 C 38,6 km/h (5 Bft)
08.01.2023 13:09 6,9 C 7,8 C 86 % 1003,8 hPa 0,0 l/m 21,3 km/h (4 Bft) S 182 3 min 0,9 UV-I 284 W/m 4,7 C -1,2 C 35,4 km/h (5 Bft)
08.01.2023 13:12 6,9 C 6,7 C 85 % 1003,6 hPa 0,0 l/m 22,3 km/h (4 Bft) S-SO 155 0 min 0,7 UV-I 123 W/m 4,6 C -1,5 C 35,4 km/h (5 Bft)
08.01.2023 13:15 6,7 C 6,7 C 85 % 1003,7 hPa 0,0 l/m 18,4 km/h (3 Bft) S-SO 167 0 min 0,6 UV-I 93 W/m 4,4 C -0,4 C 32,2 km/h (5 Bft)
08.01.2023 13:18 6,7 C 6,1 C 84 % 1003,7 hPa 0,0 l/m 20,3 km/h (4 Bft) S 175 0 min 0,6 UV-I 103 W/m 4,2 C -1,1 C 32,2 km/h (5 Bft)
08.01.2023 13:21 6,7 C 6,7 C 85 % 1003,6 hPa 0,0 l/m 16,2 km/h (3 Bft) S 174 0 min 0,5 UV-I 115 W/m 4,4 C 0,6 C 24,1 km/h (4 Bft)
08.01.2023 13:24 6,7 C 6,7 C 85 % 1003,5 hPa 0,0 l/m 20,0 km/h (4 Bft) SW 216 0 min 0,5 UV-I 116 W/m 4,4 C -1,0 C 37,0 km/h (5 Bft)
08.01.2023 13:27 6,7 C 6,7 C 84 % 1003,4 hPa 0,0 l/m 25,5 km/h (4 Bft) S 173 0 min 0,3 UV-I 101 W/m 4,2 C -2,8 C 35,4 km/h (5 Bft)
08.01.2023 13:30 6,7 C 6,7 C 85 % 1003,4 hPa 0,0 l/m 18,4 km/h (3 Bft) S-SW 194 0 min 0,0 UV-I 78 W/m 4,4 C -0,4 C 29,0 km/h (5 Bft)
08.01.2023 13:33 6,7 C 6,7 C 85 % 1003,4 hPa 0,0 l/m 22,1 km/h (4 Bft) S-SW 202 0 min 0,0 UV-I 79 W/m 4,4 C -1,7 C 33,8 km/h (5 Bft)
08.01.2023 13:36 6,6 C 6,7 C 85 % 1003,3 hPa 0,0 l/m 20,3 km/h (4 Bft) S 190 0 min 0,0 UV-I 99 W/m 4,3 C -1,2 C 38,6 km/h (5 Bft)
08.01.2023 13:39 6,7 C 6,7 C 85 % 1003,3 hPa 0,0 l/m 22,1 km/h (4 Bft) S-SO 148 0 min 0,1 UV-I 91 W/m 4,4 C -1,7 C 32,2 km/h (5 Bft)
08.01.2023 13:42 6,6 C 6,7 C 85 % 1003,2 hPa 0,0 l/m 22,8 km/h (4 Bft) S-SW 193 0 min 0,0 UV-I 58 W/m 4,3 C -2,1 C 41,8 km/h (6 Bft)
08.01.2023 13:45 6,6 C 6,7 C 85 % 1003,3 hPa 0,0 l/m 19,8 km/h (3 Bft) S 175 0 min 0,0 UV-I 52 W/m 4,3 C -1,0 C 35,4 km/h (5 Bft)
08.01.2023 13:48 6,6 C 6,7 C 85 % 1003,1 hPa 0,0 l/m 22,2 km/h (4 Bft) SW 214 0 min 0,0 UV-I 68 W/m 4,3 C -1,9 C 37,0 km/h (5 Bft)
08.01.2023 13:51 6,6 C 6,7 C 85 % 1003,1 hPa 0,0 l/m 17,0 km/h (3 Bft) S 183 0 min 0,0 UV-I 75 W/m 4,3 C 0,1 C 30,6 km/h (5 Bft)
08.01.2023 13:54 6,7 C 6,1 C 84 % 1003,1 hPa 0,0 l/m 21,1 km/h (4 Bft) S 185 0 min 0,0 UV-I 49 W/m 4,2 C -1,4 C 29,0 km/h (5 Bft)
08.01.2023 13:57 6,7 C 6,1 C 84 % 1003,3 hPa 0,0 l/m 21,7 km/h (4 Bft) S-SW 198 0 min 0,0 UV-I 39 W/m 4,2 C -1,6 C 37,0 km/h (5 Bft)
08.01.2023 14:00 6,7 C 6,1 C 85 % 1003,2 hPa 0,0 l/m 17,0 km/h (3 Bft) S-SO 166 0 min 0,0 UV-I 27 W/m 4,4 C 0,2 C 38,6 km/h (5 Bft)
08.01.2023 14:03 6,6 C 6,1 C 84 % 1003,2 hPa 0,0 l/m 22,9 km/h (4 Bft) S-SO 168 0 min 0,0 UV-I 42 W/m 4,1 C -2,1 C 40,2 km/h (6 Bft)
08.01.2023 14:06 6,6 C 6,1 C 85 % 1003,2 hPa 0,0 l/m 19,4 km/h (3 Bft) S-SW 194 0 min 0,0 UV-I 45 W/m 4,3 C -0,9 C 38,6 km/h (5 Bft)
08.01.2023 14:09 6,6 C 6,1 C 85 % 1003,0 hPa 0,0 l/m 19,7 km/h (3 Bft) S-SO 159 0 min 0,0 UV-I 30 W/m 4,3 C -1,0 C 30,6 km/h (5 Bft)
08.01.2023 14:12 6,5 C 6,1 C 85 % 1003,1 hPa 0,0 l/m 21,0 km/h (4 Bft) S 175 0 min 0,0 UV-I 20 W/m 4,2 C -1,6 C 35,4 km/h (5 Bft)
08.01.2023 14:15 6,5 C 5,6 C 85 % 1003,1 hPa 0,0 l/m 17,0 km/h (3 Bft) S-SO 168 0 min 0,0 UV-I 25 W/m 4,2 C -0,0 C 25,7 km/h (4 Bft)
08.01.2023 14:18 6,3 C 5,6 C 86 % 1003,2 hPa 0,0 l/m 20,0 km/h (4 Bft) S-SO 159 0 min 0,0 UV-I 58 W/m 4,1 C -1,5 C 38,6 km/h (5 Bft)
08.01.2023 14:21 6,3 C 5,6 C 87 % 1002,9 hPa 0,0 l/m 15,8 km/h (3 Bft) S-SO 165 0 min 0,5 UV-I 80 W/m 4,3 C 0,3 C 27,4 km/h (4 Bft)
08.01.2023 14:24 6,3 C 5,6 C 87 % 1002,9 hPa 0,0 l/m 15,0 km/h (3 Bft) S 171 0 min 0,5 UV-I 76 W/m 4,3 C 0,7 C 24,1 km/h (4 Bft)
08.01.2023 14:27 6,2 C 5,6 C 87 % 1002,9 hPa 0,0 l/m 18,2 km/h (3 Bft) S 186 0 min 0,0 UV-I 62 W/m 4,2 C -0,9 C 37,0 km/h (5 Bft)
08.01.2023 14:30 6,2 C 5,6 C 87 % 1002,8 hPa 0,0 l/m 20,4 km/h (4 Bft) S-SO 153 0 min 0,0 UV-I 44 W/m 4,2 C -1,8 C 30,6 km/h (5 Bft)
08.01.2023 14:33 6,3 C 5,6 C 87 % 1002,8 hPa 0,0 l/m 19,3 km/h (3 Bft) SW 215 0 min 0,0 UV-I 21 W/m 4,3 C -1,2 C 43,5 km/h (6 Bft)
08.01.2023 14:36 6,2 C 5,6 C 86 % 1002,8 hPa 0,0 l/m 25,8 km/h (4 Bft) S-SW 195 0 min 0,0 UV-I 19 W/m 4,0 C -3,6 C 45,1 km/h (6 Bft)
08.01.2023 14:39 6,2 C 5,6 C 87 % 1002,8 hPa 0,0 l/m 19,0 km/h (3 Bft) S-SW 192 0 min 0,0 UV-I 44 W/m 4,2 C -1,2 C 30,6 km/h (5 Bft)
08.01.2023 14:42 6,2 C 5,6 C 87 % 1002,8 hPa 0,0 l/m 16,0 km/h (3 Bft) S-SW 195 0 min 0,0 UV-I 73 W/m 4,2 C 0,1 C 24,1 km/h (4 Bft)
08.01.2023 14:45 6,2 C 5,6 C 87 % 1002,7 hPa 0,0 l/m 19,1 km/h (3 Bft) S-SW 193 0 min 0,0 UV-I 49 W/m 4,2 C -1,3 C 35,4 km/h (5 Bft)
08.01.2023 14:48 6,2 C 5,0 C 87 % 1002,7 hPa 0,0 l/m 19,6 km/h (3 Bft) S 184 0 min 0,0 UV-I 35 W/m 4,2 C -1,5 C 29,0 km/h (5 Bft)
08.01.2023 14:51 6,2 C 5,6 C 88 % 1002,5 hPa 0,0 l/m 16,6 km/h (3 Bft) S 169 0 min 0,0 UV-I 46 W/m 4,4 C -0,2 C 32,2 km/h (5 Bft)
08.01.2023 14:54 6,1 C 5,6 C 87 % 1002,6 hPa 0,0 l/m 23,0 km/h (4 Bft) S-SW 192 0 min 0,0 UV-I 60 W/m 4,1 C -2,8 C 43,5 km/h (6 Bft)
08.01.2023 14:57 6,2 C 5,6 C 87 % 1002,5 hPa 0,0 l/m 21,1 km/h (4 Bft) S 178 0 min 0,0 UV-I 76 W/m 4,2 C -2,0 C 32,2 km/h (5 Bft)
08.01.2023 15:00 6,3 C 5,6 C 87 % 1002,3 hPa 0,0 l/m 23,5 km/h (4 Bft) SW 216 0 min 0,0 UV-I 95 W/m 4,3 C -2,7 C 45,1 km/h (6 Bft)
08.01.2023 15:03 6,2 C 5,6 C 87 % 1002,5 hPa 0,0 l/m 18,7 km/h (3 Bft) S 178 0 min 0,0 UV-I 82 W/m 4,2 C -1,1 C 30,6 km/h (5 Bft)
08.01.2023 15:06 6,2 C 5,6 C 87 % 1002,5 hPa 0,0 l/m 23,9 km/h (4 Bft) SW 215 0 min 0,0 UV-I 55 W/m 4,2 C -3,0 C 32,2 km/h (5 Bft)
08.01.2023 15:09 6,3 C 5,6 C 87 % 1002,4 hPa 0,0 l/m 23,9 km/h (4 Bft) S-SW 194 0 min 0,0 UV-I 68 W/m 4,3 C -2,8 C 38,6 km/h (5 Bft)
08.01.2023 15:12 6,3 C 5,6 C 87 % 1002,5 hPa 0,0 l/m 20,1 km/h (4 Bft) S 188 0 min 0,0 UV-I 62 W/m 4,3 C -1,5 C 37,0 km/h (5 Bft)
08.01.2023 15:15 6,2 C 5,6 C 87 % 1002,4 hPa 0,0 l/m 14,0 km/h (3 Bft) S-SW 213 0 min 0,0 UV-I 49 W/m 4,2 C 1,0 C 29,0 km/h (5 Bft)
08.01.2023 15:18 6,3 C 5,6 C 87 % 1002,4 hPa 0,0 l/m 18,2 km/h (3 Bft) S 184 0 min 0,0 UV-I 66 W/m 4,3 C -0,8 C 30,6 km/h (5 Bft)
08.01.2023 15:21 6,2 C 5,6 C 87 % 1002,4 hPa 0,0 l/m 18,6 km/h (3 Bft) S-SW 200 0 min 0,0 UV-I 39 W/m 4,2 C -1,1 C 32,2 km/h (5 Bft)
08.01.2023 15:24 6,2 C 5,6 C 87 % 1002,5 hPa 0,0 l/m 20,1 km/h (4 Bft) S 176 0 min 0,0 UV-I 29 W/m 4,2 C -1,7 C 35,4 km/h (5 Bft)
08.01.2023 15:27 6,2 C 5,0 C 87 % 1002,3 hPa 0,0 l/m 18,9 km/h (3 Bft) S 171 0 min 0,0 UV-I 28 W/m 4,2 C -1,2 C 33,8 km/h (5 Bft)
08.01.2023 15:30 6,1 C 5,0 C 87 % 1002,2 hPa 0,2 l/m 25,0 km/h (4 Bft) S-SW 192 0 min 0,0 UV-I 22 W/m 4,1 C -3,5 C 40,2 km/h (6 Bft)
08.01.2023 15:33 6,1 C 5,0 C 87 % 1002,2 hPa 0,0 l/m 21,1 km/h (4 Bft) S-SO 164 0 min 0,0 UV-I 23 W/m 4,1 C -2,2 C 30,6 km/h (5 Bft)
08.01.2023 15:36 6,1 C 5,0 C 87 % 1002,4 hPa 0,0 l/m 19,6 km/h (3 Bft) SW 221 0 min 0,0 UV-I 29 W/m 4,1 C -1,6 C 35,4 km/h (5 Bft)
08.01.2023 15:39 6,1 C 5,0 C 88 % 1002,2 hPa 0,0 l/m 18,1 km/h (3 Bft) S-SW 198 0 min 0,0 UV-I 35 W/m 4,3 C -1,0 C 33,8 km/h (5 Bft)
08.01.2023 15:42 6,1 C 5,0 C 88 % 1002,2 hPa 0,0 l/m 19,5 km/h (3 Bft) S-SO 157 0 min 0,0 UV-I 64 W/m 4,3 C -1,6 C 33,8 km/h (5 Bft)
08.01.2023 15:45 6,1 C 5,0 C 87 % 1002,2 hPa 0,0 l/m 16,7 km/h (3 Bft) S-SW 194 0 min 0,0 UV-I 62 W/m 4,1 C -0,4 C 27,4 km/h (4 Bft)
08.01.2023 15:48 6,0 C 5,0 C 87 % 1002,1 hPa 0,0 l/m 17,0 km/h (3 Bft) S 185 0 min 0,0 UV-I 56 W/m 4,0 C -0,6 C 33,8 km/h (5 Bft)
08.01.2023 15:51 6,0 C 5,0 C 87 % 1002,1 hPa 0,0 l/m 21,4 km/h (4 Bft) S 175 0 min 0,0 UV-I 56 W/m 4,0 C -2,4 C 41,8 km/h (6 Bft)
08.01.2023 15:54 5,9 C 5,0 C 87 % 1002,0 hPa 0,0 l/m 19,3 km/h (3 Bft) S-SO 166 0 min 0,0 UV-I 50 W/m 3,9 C -1,7 C 35,4 km/h (5 Bft)
08.01.2023 15:57 5,9 C 5,0 C 87 % 1002,1 hPa 0,0 l/m 15,8 km/h (3 Bft) S 190 0 min 0,0 UV-I 41 W/m 3,9 C -0,2 C 35,4 km/h (5 Bft)
08.01.2023 16:00 5,9 C 5,0 C 87 % 1002,1 hPa 0,0 l/m 15,8 km/h (3 Bft) S 169 0 min 0,0 UV-I 39 W/m 3,9 C -0,2 C 30,6 km/h (5 Bft)
08.01.2023 16:03 5,9 C 5,6 C 87 % 1002,0 hPa 0,0 l/m 20,1 km/h (4 Bft) S 182 0 min 0,0 UV-I 44 W/m 3,9 C -2,0 C 33,8 km/h (5 Bft)
08.01.2023 16:06 6,0 C 5,0 C 87 % 1002,0 hPa 0,0 l/m 15,0 km/h (3 Bft) S-SW 192 0 min 0,0 UV-I 41 W/m 4,0 C 0,3 C 22,5 km/h (4 Bft)
08.01.2023 16:09 6,0 C 5,0 C 87 % 1002,0 hPa 0,0 l/m 17,6 km/h (3 Bft) S 189 0 min 0,0 UV-I 34 W/m 4,0 C -0,9 C 30,6 km/h (5 Bft)
08.01.2023 16:12 6,0 C 5,0 C 87 % 1001,9 hPa 0,0 l/m 17,0 km/h (3 Bft) S 188 0 min 0,0 UV-I 29 W/m 4,0 C -0,6 C 27,4 km/h (4 Bft)
08.01.2023 16:15 5,9 C 5,0 C 87 % 1002,0 hPa 0,0 l/m 19,0 km/h (3 Bft) S-SO 150 0 min 0,0 UV-I 23 W/m 3,9 C -1,6 C 30,6 km/h (5 Bft)
08.01.2023 16:18 5,9 C 5,0 C 87 % 1001,9 hPa 0,0 l/m 17,6 km/h (3 Bft) S-SO 155 0 min 0,0 UV-I 20 W/m 3,9 C -1,0 C 32,2 km/h (5 Bft)
08.01.2023 16:21 5,9 C 5,0 C 86 % 1001,9 hPa 0,0 l/m 20,4 km/h (4 Bft) S 187 0 min 0,0 UV-I 20 W/m 3,7 C -2,2 C 38,6 km/h (5 Bft)
08.01.2023 16:24 5,9 C 5,0 C 86 % 1001,9 hPa 0,0 l/m 17,8 km/h (3 Bft) S 183 0 min 0,0 UV-I 18 W/m 3,7 C -1,1 C 29,0 km/h (5 Bft)
08.01.2023 16:27 5,8 C 5,0 C 86 % 1001,7 hPa 0,0 l/m 22,3 km/h (4 Bft) S 181 0 min 0,0 UV-I 15 W/m 3,6 C -3,0 C 37,0 km/h (5 Bft)
08.01.2023 16:30 5,8 C 5,0 C 86 % 1001,9 hPa 0,0 l/m 22,2 km/h (4 Bft) S 186 0 min 0,0 UV-I 12 W/m 3,6 C -2,9 C 35,4 km/h (5 Bft)
08.01.2023 16:33 5,8 C 5,0 C 86 % 1001,9 hPa 0,0 l/m 19,9 km/h (4 Bft) S 189 0 min 0,0 UV-I 9 W/m 3,6 C -2,1 C 27,4 km/h (4 Bft)
08.01.2023 16:36 5,8 C 5,0 C 86 % 1001,7 hPa 0,0 l/m 17,3 km/h (3 Bft) S-SW 207 0 min 0,0 UV-I 9 W/m 3,6 C -1,0 C 30,6 km/h (5 Bft)
08.01.2023 16:39 5,8 C 4,4 C 86 % 1001,7 hPa 0,0 l/m 20,6 km/h (4 Bft) S-SO 163 0 min 0,0 UV-I 7 W/m 3,6 C -2,4 C 30,6 km/h (5 Bft)
08.01.2023 16:42 5,7 C 4,4 C 86 % 1001,8 hPa 0,0 l/m 21,5 km/h (4 Bft) S 190 0 min 0,0 UV-I 5 W/m 3,5 C -2,8 C 38,6 km/h (5 Bft)
08.01.2023 16:45 5,7 C 4,4 C 86 % 1001,7 hPa 0,0 l/m 19,6 km/h (3 Bft) S 173 0 min 0,0 UV-I 5 W/m 3,5 C -2,1 C 32,2 km/h (5 Bft)
08.01.2023 16:48 5,7 C 4,4 C 86 % 1001,7 hPa 0,0 l/m 16,2 km/h (3 Bft) S 181 0 min 0,0 UV-I 2 W/m 3,5 C -0,7 C 33,8 km/h (5 Bft)
08.01.2023 16:51 5,7 C 4,4 C 86 % 1001,6 hPa 0,0 l/m 20,2 km/h (4 Bft) S 179 0 min 0,0 UV-I 0 W/m 3,5 C -2,3 C 30,6 km/h (5 Bft)
08.01.2023 16:54 5,7 C 4,4 C 87 % 1001,6 hPa 0,0 l/m 15,6 km/h (3 Bft) S-SO 154 0 min 0,0 UV-I 0 W/m 3,7 C -0,4 C 29,0 km/h (5 Bft)
08.01.2023 16:57 5,6 C 4,4 C 87 % 1001,5 hPa 0,0 l/m 17,8 km/h (3 Bft) SW 215 0 min 0,0 UV-I 0 W/m 3,6 C -1,5 C 30,6 km/h (5 Bft)
08.01.2023 17:00 5,7 C 5,0 C 87 % 1001,5 hPa 0,0 l/m 17,5 km/h (3 Bft) S 182 0 min 0,0 UV-I 0 W/m 3,7 C -1,2 C 29,0 km/h (5 Bft)
08.01.2023 17:03 5,7 C 5,0 C 87 % 1001,5 hPa 0,0 l/m 18,4 km/h (3 Bft) S-SO 162 0 min 0,0 UV-I 0 W/m 3,7 C -1,6 C 35,4 km/h (5 Bft)
08.01.2023 17:06 5,7 C 5,0 C 87 % 1001,6 hPa 0,0 l/m 20,5 km/h (4 Bft) SO 131 0 min 0,0 UV-I 0 W/m 3,7 C -2,5 C 38,6 km/h (5 Bft)
08.01.2023 17:09 5,8 C 5,0 C 87 % 1001,5 hPa 0,0 l/m 20,6 km/h (4 Bft) S 191 0 min 0,0 UV-I 0 W/m 3,8 C -2,4 C 32,2 km/h (5 Bft)
08.01.2023 17:12 5,8 C 5,0 C 87 % 1001,5 hPa 0,0 l/m 19,6 km/h (3 Bft) S 170 0 min 0,0 UV-I 0 W/m 3,8 C -2,0 C 33,8 km/h (5 Bft)
08.01.2023 17:15 5,8 C 5,0 C 87 % 1001,6 hPa 0,0 l/m 19,2 km/h (3 Bft) S 190 0 min 0,0 UV-I 0 W/m 3,8 C -1,8 C 33,8 km/h (5 Bft)
08.01.2023 17:18 5,8 C 5,0 C 87 % 1001,4 hPa 0,0 l/m 17,9 km/h (3 Bft) S 182 0 min 0,0 UV-I 0 W/m 3,8 C -1,3 C 32,2 km/h (5 Bft)
08.01.2023 17:21 5,7 C 4,4 C 87 % 1001,4 hPa 0,0 l/m 16,8 km/h (3 Bft) S-SO 161 0 min 0,0 UV-I 0 W/m 3,7 C -0,9 C 27,4 km/h (4 Bft)
08.01.2023 17:24 5,7 C 4,4 C 87 % 1001,3 hPa 0,0 l/m 17,9 km/h (3 Bft) S-SO 168 0 min 0,0 UV-I 0 W/m 3,7 C -1,4 C 32,2 km/h (5 Bft)
08.01.2023 17:27 5,7 C 4,4 C 87 % 1001,3 hPa 0,0 l/m 17,2 km/h (3 Bft) S 174 0 min 0,0 UV-I 0 W/m 3,7 C -1,1 C 24,1 km/h (4 Bft)
08.01.2023 17:30 5,6 C 4,4 C 87 % 1001,2 hPa 0,0 l/m 17,4 km/h (3 Bft) S 183 0 min 0,0 UV-I 0 W/m 3,6 C -1,3 C 27,4 km/h (4 Bft)
08.01.2023 17:33 5,6 C 4,4 C 87 % 1001,2 hPa 0,0 l/m 17,8 km/h (3 Bft) SW 217 0 min 0,0 UV-I 0 W/m 3,6 C -1,5 C 27,4 km/h (4 Bft)
08.01.2023 17:36 5,6 C 4,4 C 87 % 1001,1 hPa 0,0 l/m 15,8 km/h (3 Bft) S-SW 200 0 min 0,0 UV-I 0 W/m 3,6 C -0,6 C 27,4 km/h (4 Bft)
08.01.2023 17:39 5,6 C 4,4 C 87 % 1001,1 hPa 0,0 l/m 14,4 km/h (3 Bft) S-SO 148 0 min 0,0 UV-I 0 W/m 3,6 C 0,1 C 24,1 km/h (4 Bft)
08.01.2023 17:42 5,6 C 4,4 C 87 % 1001,2 hPa 0,0 l/m 14,2 km/h (3 Bft) S 182 0 min 0,0 UV-I 0 W/m 3,6 C 0,2 C 25,7 km/h (4 Bft)
08.01.2023 17:45 5,6 C 4,4 C 87 % 1001,2 hPa 0,0 l/m 15,4 km/h (3 Bft) S-SO 164 0 min 0,0 UV-I 0 W/m 3,6 C -0,4 C 25,7 km/h (4 Bft)
08.01.2023 17:48 5,6 C 5,0 C 87 % 1001,0 hPa 0,0 l/m 19,4 km/h (3 Bft) S 176 0 min 0,0 UV-I 0 W/m 3,6 C -2,2 C 32,2 km/h (5 Bft)
08.01.2023 17:51 5,7 C 5,0 C 87 % 1001,1 hPa 0,0 l/m 15,8 km/h (3 Bft) S-SO 167 0 min 0,0 UV-I 0 W/m 3,7 C -0,5 C 29,0 km/h (5 Bft)
08.01.2023 17:54 5,7 C 5,0 C 87 % 1001,1 hPa 0,0 l/m 17,1 km/h (3 Bft) S 180 0 min 0,0 UV-I 0 W/m 3,7 C -1,1 C 27,4 km/h (4 Bft)
08.01.2023 17:57 5,7 C 5,0 C 88 % 1001,0 hPa 0,0 l/m 16,0 km/h (3 Bft) S 188 0 min 0,0 UV-I 0 W/m 3,9 C -0,6 C 29,0 km/h (5 Bft)
08.01.2023 18:00 5,7 C 5,0 C 88 % 1001,0 hPa 0,0 l/m 15,0 km/h (3 Bft) S-SO 166 0 min 0,0 UV-I 0 W/m 3,9 C -0,1 C 20,9 km/h (4 Bft)
08.01.2023 18:03 5,7 C 5,0 C 88 % 1001,0 hPa 0,0 l/m 14,6 km/h (3 Bft) S 184 0 min 0,0 UV-I 0 W/m 3,9 C 0,1 C 24,1 km/h (4 Bft)
08.01.2023 18:06 5,8 C 5,0 C 88 % 1000,9 hPa 0,0 l/m 17,0 km/h (3 Bft) S 181 0 min 0,0 UV-I 0 W/m 4,0 C -0,9 C 29,0 km/h (5 Bft)
08.01.2023 18:09 5,8 C 5,0 C 88 % 1000,9 hPa 0,0 l/m 17,5 km/h (3 Bft) S 190 0 min 0,0 UV-I 0 W/m 4,0 C -1,1 C 29,0 km/h (5 Bft)
08.01.2023 18:12 5,8 C 5,0 C 88 % 1001,0 hPa 0,0 l/m 17,7 km/h (3 Bft) S-SO 158 0 min 0,0 UV-I 0 W/m 4,0 C -1,2 C 33,8 km/h (5 Bft)
08.01.2023 18:15 5,8 C 5,0 C 88 % 1000,9 hPa 0,0 l/m 18,1 km/h (3 Bft) S 175 0 min 0,0 UV-I 0 W/m 4,0 C -1,4 C 29,0 km/h (5 Bft)
08.01.2023 18:18 5,8 C 5,0 C 88 % 1000,9 hPa 0,0 l/m 19,8 km/h (3 Bft) S 171 0 min 0,0 UV-I 0 W/m 4,0 C -2,1 C 30,6 km/h (5 Bft)
08.01.2023 18:21 5,9 C 5,0 C 88 % 1000,8 hPa 0,0 l/m 14,7 km/h (3 Bft) S 169 0 min 0,0 UV-I 0 W/m 4,1 C 0,3 C 22,5 km/h (4 Bft)
08.01.2023 18:24 5,9 C 5,6 C 88 % 1000,8 hPa 0,0 l/m 16,8 km/h (3 Bft) S-SW 193 0 min 0,0 UV-I 0 W/m 4,1 C -0,7 C 30,6 km/h (5 Bft)
08.01.2023 18:27 5,9 C 5,6 C 88 % 1000,7 hPa 0,0 l/m 19,7 km/h (3 Bft) S 180 0 min 0,0 UV-I 0 W/m 4,1 C -1,9 C 30,6 km/h (5 Bft)
08.01.2023 18:30 5,9 C 5,6 C 88 % 1000,7 hPa 0,0 l/m 17,8 km/h (3 Bft) S 180 0 min 0,0 UV-I 0 W/m 4,1 C -1,1 C 29,0 km/h (5 Bft)
08.01.2023 18:33 5,9 C 5,6 C 88 % 1000,5 hPa 0,0 l/m 19,9 km/h (4 Bft) S-SW 203 0 min 0,0 UV-I 0 W/m 4,1 C -2,0 C 32,2 km/h (5 Bft)
08.01.2023 18:36 5,9 C 5,0 C 87 % 1000,6 hPa 0,0 l/m 16,4 km/h (3 Bft) S 170 0 min 0,0 UV-I 0 W/m 3,9 C -0,5 C 29,0 km/h (5 Bft)
08.01.2023 18:39 5,9 C 5,0 C 87 % 1000,5 hPa 0,0 l/m 16,1 km/h (3 Bft) S 173 0 min 0,0 UV-I 0 W/m 3,9 C -0,4 C 32,2 km/h (5 Bft)
08.01.2023 18:42 5,9 C 5,0 C 87 % 1000,5 hPa 0,0 l/m 12,9 km/h (3 Bft) S-SO 165 0 min 0,0 UV-I 0 W/m 3,9 C 1,3 C 24,1 km/h (4 Bft)
08.01.2023 18:45 5,9 C 5,0 C 87 % 1000,3 hPa 0,0 l/m 14,3 km/h (3 Bft) S-SO 155 0 min 0,0 UV-I 0 W/m 3,9 C 0,5 C 24,1 km/h (4 Bft)
08.01.2023 18:48 5,9 C 5,0 C 87 % 1000,5 hPa 0,0 l/m 17,5 km/h (3 Bft) S-SO 161 0 min 0,0 UV-I 0 W/m 3,9 C -1,0 C 27,4 km/h (4 Bft)
08.01.2023 18:51 5,9 C 5,0 C 88 % 1000,4 hPa 0,0 l/m 14,6 km/h (3 Bft) S-SO 152 0 min 0,0 UV-I 0 W/m 4,1 C 0,4 C 24,1 km/h (4 Bft)
08.01.2023 18:54 5,9 C 5,0 C 88 % 1000,3 hPa 0,0 l/m 14,8 km/h (3 Bft) SO 146 0 min 0,0 UV-I 0 W/m 4,1 C 0,3 C 24,1 km/h (4 Bft)
08.01.2023 18:57 5,9 C 5,0 C 88 % 1000,4 hPa 0,0 l/m 13,5 km/h (3 Bft) S-SO 168 0 min 0,0 UV-I 0 W/m 4,1 C 0,9 C 24,1 km/h (4 Bft)
08.01.2023 19:00 5,9 C 5,6 C 88 % 1000,4 hPa 0,0 l/m 15,7 km/h (3 Bft) S 170 0 min 0,0 UV-I 0 W/m 4,1 C -0,2 C 29,0 km/h (5 Bft)
08.01.2023 19:03 6,0 C 5,6 C 88 % 1000,4 hPa 0,0 l/m 16,5 km/h (3 Bft) S-SO 153 0 min 0,0 UV-I 0 W/m 4,2 C -0,4 C 25,7 km/h (4 Bft)
08.01.2023 19:06 6,0 C 5,6 C 88 % 1000,4 hPa 0,0 l/m 15,1 km/h (3 Bft) S 182 0 min 0,0 UV-I 0 W/m 4,2 C 0,2 C 27,4 km/h (4 Bft)
08.01.2023 19:09 6,0 C 5,6 C 88 % 1000,3 hPa 0,0 l/m 12,3 km/h (3 Bft) SO 140 0 min 0,0 UV-I 0 W/m 4,2 C 1,7 C 22,5 km/h (4 Bft)
08.01.2023 19:12 6,0 C 5,6 C 88 % 1000,3 hPa 0,0 l/m 10,7 km/h (2 Bft) S 170 0 min 0,0 UV-I 0 W/m 4,2 C 2,7 C 24,1 km/h (4 Bft)
08.01.2023 19:15 6,1 C 5,6 C 88 % 1000,3 hPa 0,0 l/m 14,6 km/h (3 Bft) S 190 0 min 0,0 UV-I 0 W/m 4,3 C 0,6 C 24,1 km/h (4 Bft)
08.01.2023 19:18 6,1 C 5,6 C 88 % 1000,2 hPa 0,0 l/m 11,6 km/h (2 Bft) SO 146 0 min 0,0 UV-I 0 W/m 4,3 C 2,3 C 19,3 km/h (3 Bft)
08.01.2023 19:21 6,1 C 5,6 C 88 % 1000,2 hPa 0,0 l/m 13,6 km/h (3 Bft) S 178 0 min 0,0 UV-I 0 W/m 4,3 C 1,1 C 22,5 km/h (4 Bft)
08.01.2023 19:24 6,1 C 5,6 C 88 % 1000,1 hPa 0,0 l/m 14,3 km/h (3 Bft) S 173 0 min 0,0 UV-I 0 W/m 4,3 C 0,8 C 22,5 km/h (4 Bft)
08.01.2023 19:27 6,1 C 5,6 C 88 % 1000,2 hPa 0,0 l/m 13,5 km/h (3 Bft) S-SO 147 0 min 0,0 UV-I 0 W/m 4,3 C 1,2 C 20,9 km/h (4 Bft)
08.01.2023 19:30 6,1 C 5,6 C 88 % 1000,0 hPa 0,0 l/m 14,2 km/h (3 Bft) S 172 0 min 0,0 UV-I 0 W/m 4,3 C 0,8 C 30,6 km/h (5 Bft)
08.01.2023 19:33 6,1 C 5,6 C 88 % 1000,1 hPa 0,0 l/m 13,3 km/h (3 Bft) S 181 0 min 0,0 UV-I 0 W/m 4,3 C 1,3 C 20,9 km/h (4 Bft)
08.01.2023 19:36 6,1 C 5,6 C 88 % 1000,1 hPa 0,0 l/m 16,1 km/h (3 Bft) S 183 0 min 0,0 UV-I 0 W/m 4,3 C -0,1 C 22,5 km/h (4 Bft)
08.01.2023 19:39 6,1 C 5,6 C 88 % 1000,1 hPa 0,0 l/m 13,8 km/h (3 Bft) S-SO 152 0 min 0,0 UV-I 0 W/m 4,3 C 1,0 C 20,9 km/h (4 Bft)
08.01.2023 19:42 6,1 C 5,6 C 88 % 1000,1 hPa 0,0 l/m 17,1 km/h (3 Bft) S-SO 167 0 min 0,0 UV-I 0 W/m 4,3 C -0,6 C 24,1 km/h (4 Bft)
08.01.2023 19:45 6,1 C 5,6 C 88 % 1000,0 hPa 0,0 l/m 15,6 km/h (3 Bft) S-SO 167 0 min 0,0 UV-I 0 W/m 4,3 C 0,1 C 25,7 km/h (4 Bft)
08.01.2023 19:48 6,1 C 5,6 C 88 % 1000,0 hPa 0,0 l/m 17,1 km/h (3 Bft) S 177 0 min 0,0 UV-I 0 W/m 4,3 C -0,6 C 27,4 km/h (4 Bft)
08.01.2023 19:51 6,1 C 5,6 C 88 % 1000,0 hPa 0,0 l/m 17,0 km/h (3 Bft) S-SO 150 0 min 0,0 UV-I 0 W/m 4,3 C -0,5 C 27,4 km/h (4 Bft)
08.01.2023 19:54 6,2 C 5,6 C 88 % 1000,0 hPa 0,0 l/m 18,5 km/h (3 Bft) S 183 0 min 0,0 UV-I 0 W/m 4,4 C -1,0 C 32,2 km/h (5 Bft)
08.01.2023 19:57 6,2 C 5,6 C 88 % 999,9 hPa 0,0 l/m 17,9 km/h (3 Bft) S 171 0 min 0,0 UV-I 0 W/m 4,4 C -0,8 C 32,2 km/h (5 Bft)
08.01.2023 20:00 6,2 C 5,6 C 88 % 999,9 hPa 0,0 l/m 15,2 km/h (3 Bft) S 178 0 min 0,0 UV-I 0 W/m 4,4 C 0,4 C 22,5 km/h (4 Bft)
08.01.2023 20:03 6,2 C 5,6 C 88 % 999,9 hPa 0,0 l/m 19,0 km/h (3 Bft) SO 134 0 min 0,0 UV-I 0 W/m 4,4 C -1,2 C 30,6 km/h (5 Bft)
08.01.2023 20:06 6,2 C 5,6 C 88 % 999,8 hPa 0,0 l/m 16,3 km/h (3 Bft) SO 146 0 min 0,0 UV-I 0 W/m 4,4 C -0,1 C 29,0 km/h (5 Bft)
08.01.2023 20:09 6,2 C 5,6 C 88 % 999,7 hPa 0,0 l/m 14,6 km/h (3 Bft) S 178 0 min 0,0 UV-I 0 W/m 4,4 C 0,7 C 30,6 km/h (5 Bft)
08.01.2023 20:12 6,2 C 5,6 C 88 % 999,7 hPa 0,0 l/m 16,5 km/h (3 Bft) S 184 0 min 0,0 UV-I 0 W/m 4,4 C -0,2 C 27,4 km/h (4 Bft)
08.01.2023 20:15 6,2 C 5,6 C 88 % 999,6 hPa 0,0 l/m 15,4 km/h (3 Bft) S 173 0 min 0,0 UV-I 0 W/m 4,4 C 0,3 C 25,7 km/h (4 Bft)
08.01.2023 20:18 6,2 C 5,6 C 88 % 999,7 hPa 0,0 l/m 14,6 km/h (3 Bft) S 170 0 min 0,0 UV-I 0 W/m 4,4 C 0,7 C 22,5 km/h (4 Bft)
08.01.2023 20:21 6,2 C 5,6 C 88 % 999,6 hPa 0,0 l/m 12,9 km/h (3 Bft) SO 132 0 min 0,0 UV-I 0 W/m 4,4 C 1,6 C 25,7 km/h (4 Bft)
08.01.2023 20:24 6,2 C 5,6 C 88 % 999,5 hPa 0,0 l/m 12,3 km/h (3 Bft) S-SW 194 0 min 0,0 UV-I 0 W/m 4,4 C 2,0 C 20,9 km/h (4 Bft)
08.01.2023 20:27 6,2 C 5,6 C 88 % 999,5 hPa 0,0 l/m 13,4 km/h (3 Bft) S 173 0 min 0,0 UV-I 0 W/m 4,4 C 1,4 C 19,3 km/h (3 Bft)
08.01.2023 20:30 6,2 C 5,6 C 88 % 999,4 hPa 0,0 l/m 11,4 km/h (2 Bft) S-SO 156 0 min 0,0 UV-I 0 W/m 4,4 C 2,5 C 22,5 km/h (4 Bft)
08.01.2023 20:33 6,1 C 5,6 C 88 % 999,3 hPa 0,0 l/m 7,1 km/h (2 Bft) S-SO 161 0 min 0,0 UV-I 0 W/m 4,3 C 5,5 C 12,9 km/h (3 Bft)
08.01.2023 20:36 6,2 C 5,6 C 88 % 999,1 hPa 0,0 l/m 9,9 km/h (2 Bft) S-SO 150 0 min 0,0 UV-I 0 W/m 4,4 C 3,5 C 19,3 km/h (3 Bft)
08.01.2023 20:39 6,1 C 5,6 C 88 % 999,1 hPa 0,0 l/m 14,6 km/h (3 Bft) S 186 0 min 0,0 UV-I 0 W/m 4,3 C 0,6 C 22,5 km/h (4 Bft)
08.01.2023 20:42 6,1 C 5,0 C 89 % 999,1 hPa 0,0 l/m 11,1 km/h (2 Bft) SO 144 0 min 0,0 UV-I 0 W/m 4,4 C 2,6 C 19,3 km/h (3 Bft)
08.01.2023 20:45 6,1 C 5,0 C 89 % 999,0 hPa 0,0 l/m 10,3 km/h (2 Bft) S-SO 152 0 min 0,0 UV-I 0 W/m 4,4 C 3,1 C 17,7 km/h (3 Bft)
08.01.2023 20:48 6,1 C 5,0 C 89 % 998,9 hPa 0,0 l/m 10,5 km/h (2 Bft) S-SO 151 0 min 0,0 UV-I 0 W/m 4,4 C 3,0 C 20,9 km/h (4 Bft)
08.01.2023 20:51 6,0 C 5,0 C 89 % 998,9 hPa 0,0 l/m 12,9 km/h (3 Bft) SO 136 0 min 0,0 UV-I 0 W/m 4,3 C 1,4 C 20,9 km/h (4 Bft)
08.01.2023 20:54 6,0 C 5,0 C 89 % 998,8 hPa 0,0 l/m 11,5 km/h (2 Bft) S 183 0 min 0,0 UV-I 0 W/m 4,3 C 2,2 C 17,7 km/h (3 Bft)
08.01.2023 20:57 6,0 C 5,0 C 89 % 998,8 hPa 0,0 l/m 10,9 km/h (2 Bft) S-SO 157 0 min 0,0 UV-I 0 W/m 4,3 C 2,6 C 20,9 km/h (4 Bft)
08.01.2023 21:00 6,0 C 5,0 C 89 % 998,6 hPa 0,0 l/m 16,1 km/h (3 Bft) S-SO 147 0 min 0,0 UV-I 0 W/m 4,3 C -0,2 C 29,0 km/h (5 Bft)
08.01.2023 21:03 6,0 C 5,0 C 90 % 998,5 hPa 0,0 l/m 16,9 km/h (3 Bft) S-SO 148 0 min 0,0 UV-I 0 W/m 4,5 C -0,6 C 27,4 km/h (4 Bft)
08.01.2023 21:06 6,0 C 5,0 C 90 % 998,4 hPa 0,0 l/m 14,1 km/h (3 Bft) SO 138 0 min 0,0 UV-I 0 W/m 4,5 C 0,7 C 22,5 km/h (4 Bft)
08.01.2023 21:09 6,0 C 5,0 C 90 % 998,5 hPa 0,0 l/m 9,5 km/h (2 Bft) SO 146 0 min 0,0 UV-I 0 W/m 4,5 C 3,5 C 14,5 km/h (3 Bft)
08.01.2023 21:12 6,0 C 5,0 C 90 % 998,5 hPa 0,0 l/m 15,5 km/h (3 Bft) S-SO 161 0 min 0,0 UV-I 0 W/m 4,5 C 0,0 C 35,4 km/h (5 Bft)
08.01.2023 21:15 6,0 C 5,0 C 90 % 998,5 hPa 0,0 l/m 14,5 km/h (3 Bft) S 175 0 min 0,0 UV-I 0 W/m 4,5 C 0,5 C 25,7 km/h (4 Bft)
08.01.2023 21:18 6,0 C 5,0 C 90 % 998,4 hPa 0,0 l/m 16,6 km/h (3 Bft) S 182 0 min 0,0 UV-I 0 W/m 4,5 C -0,5 C 25,7 km/h (4 Bft)
08.01.2023 21:21 6,0 C 5,0 C 90 % 998,3 hPa 0,0 l/m 11,9 km/h (2 Bft) S 169 0 min 0,0 UV-I 0 W/m 4,5 C 2,0 C 19,3 km/h (3 Bft)
08.01.2023 21:24 6,0 C 5,0 C 90 % 998,3 hPa 0,0 l/m 14,1 km/h (3 Bft) S-SO 154 0 min 0,0 UV-I 0 W/m 4,5 C 0,7 C 27,4 km/h (4 Bft)
08.01.2023 21:27 6,0 C 5,0 C 90 % 998,3 hPa 0,0 l/m 15,7 km/h (3 Bft) S 171 0 min 0,0 UV-I 0 W/m 4,5 C -0,1 C 24,1 km/h (4 Bft)
08.01.2023 21:30 6,0 C 5,0 C 90 % 998,4 hPa 0,2 l/m 12,7 km/h (3 Bft) S-SO 159 0 min 0,0 UV-I 0 W/m 4,5 C 1,5 C 22,5 km/h (4 Bft)
08.01.2023 21:33 5,9 C 5,0 C 90 % 998,2 hPa 0,0 l/m 12,7 km/h (3 Bft) S-SW 206 0 min 0,0 UV-I 0 W/m 4,4 C 1,4 C 25,7 km/h (4 Bft)
08.01.2023 21:36 5,9 C 5,0 C 90 % 998,2 hPa 0,0 l/m 16,3 km/h (3 Bft) S 180 0 min 0,0 UV-I 0 W/m 4,4 C -0,5 C 30,6 km/h (5 Bft)
08.01.2023 21:39 5,9 C 5,0 C 90 % 998,1 hPa 0,0 l/m 15,0 km/h (3 Bft) S-SO 148 0 min 0,0 UV-I 0 W/m 4,4 C 0,2 C 22,5 km/h (4 Bft)
08.01.2023 21:42 5,9 C 5,0 C 90 % 998,2 hPa 0,0 l/m 16,2 km/h (3 Bft) S-SO 168 0 min 0,0 UV-I 0 W/m 4,4 C -0,4 C 32,2 km/h (5 Bft)
08.01.2023 21:45 5,9 C 5,0 C 90 % 998,1 hPa 0,0 l/m 12,8 km/h (3 Bft) S 180 0 min 0,0 UV-I 0 W/m 4,4 C 1,3 C 25,7 km/h (4 Bft)
08.01.2023 21:48 5,9 C 5,0 C 89 % 998,1 hPa 0,0 l/m 20,1 km/h (4 Bft) S 180 0 min 0,0 UV-I 0 W/m 4,2 C -2,0 C 35,4 km/h (5 Bft)
08.01.2023 21:51 5,9 C 5,0 C 89 % 998,0 hPa 0,0 l/m 16,9 km/h (3 Bft) S 190 0 min 0,0 UV-I 0 W/m 4,2 C -0,7 C 29,0 km/h (5 Bft)
08.01.2023 21:54 5,9 C 5,0 C 89 % 998,0 hPa 0,0 l/m 14,0 km/h (3 Bft) S-SW 204 0 min 0,0 UV-I 0 W/m 4,2 C 0,7 C 29,0 km/h (5 Bft)
08.01.2023 21:57 5,9 C 5,0 C 89 % 997,9 hPa 0,0 l/m 17,3 km/h (3 Bft) S-SW 200 0 min 0,0 UV-I 0 W/m 4,2 C -0,9 C 27,4 km/h (4 Bft)
08.01.2023 22:00 5,9 C 5,0 C 89 % 997,9 hPa 0,0 l/m 16,0 km/h (3 Bft) S 175 0 min 0,0 UV-I 0 W/m 4,2 C -0,3 C 29,0 km/h (5 Bft)
08.01.2023 22:03 5,9 C 5,0 C 89 % 997,9 hPa 0,0 l/m 19,2 km/h (3 Bft) S-SO 165 0 min 0,0 UV-I 0 W/m 4,2 C -1,7 C 32,2 km/h (5 Bft)
08.01.2023 22:06 5,9 C 5,0 C 89 % 997,9 hPa 0,0 l/m 18,6 km/h (3 Bft) S-SO 159 0 min 0,0 UV-I 0 W/m 4,2 C -1,5 C 27,4 km/h (4 Bft)
08.01.2023 22:09 5,9 C 5,0 C 89 % 997,9 hPa 0,0 l/m 18,0 km/h (3 Bft) S-SO 167 0 min 0,0 UV-I 0 W/m 4,2 C -1,2 C 30,6 km/h (5 Bft)
08.01.2023 22:12 5,9 C 5,0 C 89 % 997,8 hPa 0,0 l/m 13,2 km/h (3 Bft) S-SO 164 0 min 0,0 UV-I 0 W/m 4,2 C 1,1 C 22,5 km/h (4 Bft)
08.01.2023 22:15 5,9 C 5,0 C 89 % 997,9 hPa 0,0 l/m 17,2 km/h (3 Bft) S-SW 205 0 min 0,0 UV-I 0 W/m 4,2 C -0,9 C 24,1 km/h (4 Bft)
08.01.2023 22:18 5,9 C 5,0 C 89 % 997,8 hPa 0,0 l/m 15,4 km/h (3 Bft) S-SO 157 0 min 0,0 UV-I 0 W/m 4,2 C -0,0 C 27,4 km/h (4 Bft)
08.01.2023 22:21 5,9 C 5,0 C 89 % 997,8 hPa 0,2 l/m 16,0 km/h (3 Bft) S-SO 154 0 min 0,0 UV-I 0 W/m 4,2 C -0,3 C 33,8 km/h (5 Bft)
08.01.2023 22:24 5,8 C 5,0 C 89 % 997,7 hPa 0,0 l/m 15,2 km/h (3 Bft) S 178 0 min 0,0 UV-I 0 W/m 4,1 C -0,1 C 27,4 km/h (4 Bft)
08.01.2023 22:27 5,8 C 5,0 C 89 % 997,7 hPa 0,0 l/m 15,3 km/h (3 Bft) S 188 0 min 0,0 UV-I 0 W/m 4,1 C -0,1 C 22,5 km/h (4 Bft)
08.01.2023 22:30 5,8 C 5,0 C 89 % 997,6 hPa 0,2 l/m 15,1 km/h (3 Bft) S 177 0 min 0,0 UV-I 0 W/m 4,1 C -0,0 C 25,7 km/h (4 Bft)
08.01.2023 22:33 5,7 C 4,4 C 89 % 997,7 hPa 0,0 l/m 16,5 km/h (3 Bft) S 179 0 min 0,0 UV-I 0 W/m 4,0 C -0,8 C 27,4 km/h (4 Bft)
08.01.2023 22:36 5,7 C 4,4 C 89 % 997,6 hPa 0,0 l/m 16,9 km/h (3 Bft) S-SO 151 0 min 0,0 UV-I 0 W/m 4,0 C -1,0 C 32,2 km/h (5 Bft)
08.01.2023 22:39 5,7 C 4,4 C 89 % 997,7 hPa 0,2 l/m 14,8 km/h (3 Bft) S-SO 162 0 min 0,0 UV-I 0 W/m 4,0 C 0,0 C 25,7 km/h (4 Bft)
08.01.2023 22:42 5,6 C 4,4 C 89 % 997,7 hPa 0,0 l/m 13,4 km/h (3 Bft) S 175 0 min 0,0 UV-I 0 W/m 3,9 C 0,6 C 22,5 km/h (4 Bft)
08.01.2023 22:45 5,6 C 4,4 C 89 % 997,7 hPa 0,0 l/m 18,9 km/h (3 Bft) S 188 0 min 0,0 UV-I 0 W/m 3,9 C -2,0 C 27,4 km/h (4 Bft)
08.01.2023 22:48 5,4 C 4,4 C 89 % 997,8 hPa 0,2 l/m 17,2 km/h (3 Bft) S 174 0 min 0,0 UV-I 0 W/m 3,7 C -1,5 C 30,6 km/h (5 Bft)
08.01.2023 22:51 5,4 C 4,4 C 89 % 997,7 hPa 0,2 l/m 16,8 km/h (3 Bft) S 170 0 min 0,0 UV-I 0 W/m 3,7 C -1,3 C 32,2 km/h (5 Bft)
08.01.2023 22:54 5,3 C 4,4 C 89 % 997,7 hPa 0,0 l/m 19,7 km/h (3 Bft) SO 140 0 min 0,0 UV-I 0 W/m 3,6 C -2,7 C 32,2 km/h (5 Bft)
08.01.2023 22:57 5,2 C 3,9 C 88 % 997,5 hPa 0,2 l/m 20,8 km/h (4 Bft) S 190 0 min 0,0 UV-I 0 W/m 3,4 C -3,2 C 33,8 km/h (5 Bft)
08.01.2023 23:00 4,9 C 3,9 C 88 % 997,6 hPa 0,2 l/m 20,0 km/h (4 Bft) S-SO 164 0 min 0,0 UV-I 0 W/m 3,1 C -3,3 C 30,6 km/h (5 Bft)
08.01.2023 23:03 4,8 C 3,3 C 88 % 997,6 hPa 0,0 l/m 19,2 km/h (3 Bft) S 184 0 min 0,0 UV-I 0 W/m 3,0 C -3,1 C 29,0 km/h (5 Bft)
08.01.2023 23:06 4,8 C 3,9 C 88 % 997,6 hPa 0,2 l/m 14,2 km/h (3 Bft) S 184 0 min 0,0 UV-I 0 W/m 3,0 C -0,7 C 24,1 km/h (4 Bft)
08.01.2023 23:09 4,8 C 3,9 C 88 % 997,6 hPa 0,0 l/m 16,5 km/h (3 Bft) SO 135 0 min 0,0 UV-I 0 W/m 3,0 C -1,9 C 27,4 km/h (4 Bft)
08.01.2023 23:12 4,7 C 3,3 C 88 % 997,6 hPa 0,2 l/m 17,4 km/h (3 Bft) S-SO 166 0 min 0,0 UV-I 0 W/m 2,9 C -2,5 C 27,4 km/h (4 Bft)
08.01.2023 23:15 4,6 C 3,3 C 88 % 997,5 hPa 0,0 l/m 16,6 km/h (3 Bft) S 171 0 min 0,0 UV-I 0 W/m 2,8 C -2,2 C 29,0 km/h (5 Bft)
08.01.2023 23:18 4,6 C 3,3 C 88 % 997,5 hPa 0,0 l/m 20,5 km/h (4 Bft) S 171 0 min 0,0 UV-I 0 W/m 2,8 C -3,9 C 38,6 km/h (5 Bft)
08.01.2023 23:21 4,5 C 3,3 C 88 % 997,5 hPa 0,2 l/m 18,0 km/h (3 Bft) S-SW 204 0 min 0,0 UV-I 0 W/m 2,7 C -3,0 C 32,2 km/h (5 Bft)
08.01.2023 23:24 4,4 C 3,3 C 88 % 997,6 hPa 0,0 l/m 20,8 km/h (4 Bft) S 185 0 min 0,0 UV-I 0 W/m 2,6 C -4,3 C 30,6 km/h (5 Bft)
08.01.2023 23:27 4,3 C 3,3 C 89 % 997,5 hPa 0,2 l/m 16,4 km/h (3 Bft) S-SO 154 0 min 0,0 UV-I 0 W/m 2,7 C -2,5 C 29,0 km/h (5 Bft)
08.01.2023 23:30 4,3 C 3,3 C 89 % 997,5 hPa 0,0 l/m 15,9 km/h (3 Bft) S 182 0 min 0,0 UV-I 0 W/m 2,7 C -2,2 C 29,0 km/h (5 Bft)
08.01.2023 23:33 4,3 C 3,3 C 89 % 997,5 hPa 0,0 l/m 11,6 km/h (2 Bft) S-SO 159 0 min 0,0 UV-I 0 W/m 2,7 C 0,2 C 22,5 km/h (4 Bft)
08.01.2023 23:36 4,3 C 3,3 C 89 % 997,5 hPa 0,2 l/m 15,2 km/h (3 Bft) S 186 0 min 0,0 UV-I 0 W/m 2,7 C -1,9 C 27,4 km/h (4 Bft)
08.01.2023 23:39 4,3 C 3,3 C 89 % 997,5 hPa 0,2 l/m 13,0 km/h (3 Bft) S 179 0 min 0,0 UV-I 0 W/m 2,7 C -0,7 C 35,4 km/h (5 Bft)
08.01.2023 23:42 4,2 C 3,3 C 89 % 997,5 hPa 0,0 l/m 23,1 km/h (4 Bft) S-SW 196 0 min 0,0 UV-I 0 W/m 2,6 C -5,4 C 43,5 km/h (6 Bft)
08.01.2023 23:45 4,1 C 3,3 C 89 % 997,5 hPa 0,0 l/m 20,1 km/h (4 Bft) S-SO 161 0 min 0,0 UV-I 0 W/m 2,5 C -4,4 C 37,0 km/h (5 Bft)
08.01.2023 23:48 4,0 C 3,3 C 89 % 997,4 hPa 0,2 l/m 21,1 km/h (4 Bft) S 173 0 min 0,0 UV-I 0 W/m 2,4 C -4,9 C 32,2 km/h (5 Bft)
08.01.2023 23:51 4,0 C 2,8 C 89 % 997,5 hPa 0,0 l/m 18,9 km/h (3 Bft) S-SW 205 0 min 0,0 UV-I 0 W/m 2,4 C -4,0 C 38,6 km/h (5 Bft)
08.01.2023 23:54 3,9 C 2,8 C 89 % 997,7 hPa 0,2 l/m 16,5 km/h (3 Bft) S-SW 198 0 min 0,0 UV-I 0 W/m 2,3 C -3,0 C 24,1 km/h (4 Bft)
08.01.2023 23:57 3,9 C 2,8 C 89 % 997,7 hPa 0,2 l/m 16,8 km/h (3 Bft) S 169 0 min 0,0 UV-I 0 W/m 2,3 C -3,2 C 25,7 km/h (4 Bft)
08.01.2023 23:58 3,9 C 2,8 C 89 % 997,6 hPa 0,0 l/m 22,5 km/h (4 Bft) S 180 0 min 0,0 UV-I 0 W/m 2,3 C -5,6 C 46,7 km/h (6 Bft)
08.01.2023 23:59 3,9 C 2,8 C 89 % 997,7 hPa 0,0 l/m 17,7 km/h (3 Bft) S-SO 157 0 min 0,0 UV-I 0 W/m 2,3 C -3,6 C 25,7 km/h (4 Bft)
_ Min-Zeit 23:51 23:51 13:18 23:48 - 20:33 - - - - - 23:54 23:58 00:02
Minimum _ 3,9 C 2,8 C 84 % 997,4 hPa - 7,1 km/h (2 Bft) - - - - - 2,3 C -5,6 C 0,0 km/h (0 Bft)
_ Max-Zeit 01:32 12:12 00:27 00:03 01:46 00:09 - - 12:12 12:12 13:09 01:38 20:33 11:24
Maximum _ 7,1 C 8,9 C 92 % 1008,5 hPa 0,2 l/m 29,0 km/h
S (5 Bft)
- - 3 min 0,9 UV-I 284 W/m 5,7 C 5,5 C 54,7 km/h
S-SO (7 Bft)
Durchschnitt _ 6,2 C 5,5 C 89 % 1003,6 hPa #7,2 l/m 17,2 km/h (3 Bft) S - #6 min. 0,5 UV-I 63 W/m 4,5 C -0,3 C 27,6 km/h (4 Bft)